[[{"header":{"parameterUnit":"m.s-1","parameterCategory":1,"la1":31.0,"la2":29.5877,"lo1":-88.7671,"lo2":-86.6584,"dy":0.0162,"dx":0.0185,"nx":115,"ny":88,"refTime":"2024-04-30T18:00:00:Z","depth":0,"parameterNumber":2,"parameterNumberName":"U-component_of_WINDS"},"data":[0.0,0.0,0.0,0.0,0.0,0.0,0.0,0.0,0.0,0.0,0.0,0.0,0.0,0.0,0.0,0.0,0.0,0.0,0.0,0.0,0.0,0.0,0.0,0.0,0.0,0.0,0.0,0.0,0.0,0.0,0.0,0.0,0.0,0.0,0.0,0.0,0.0,0.0,0.0,0.0,0.0,0.0,0.0,0.0,0.0,0.0,0.0,0.0,0.0,0.0,0.0,0.0,0.0,0.0,0.0,0.0,0.0,0.0,0.0,0.0,0.0,0.0,0.0,0.0,0.0,0.0,0.0,0.0,0.0,0.0,0.0,0.0,0.0,0.0,0.0,0.0,0.0,0.0,0.0,0.0,0.0,0.0,0.0,0.0,0.0,0.0,0.0,0.0,0.0,0.0,0.0,0.0,0.0,0.0,0.0,0.0,0.0,0.0,0.0,0.0,0.0,0.0,0.0,0.0,0.0,0.0,0.0,0.0,0.0,0.0,0.0,0.0,0.0,0.0,0.0,0.0,0.0,0.0,0.0,0.0,0.0,0.0,0.0,0.0,0.0,0.0,0.0,0.0,0.0,0.0,0.0,0.0,0.0,0.0,0.0,0.0,0.0,0.0,0.0,0.0,0.0,0.0,0.0,0.0,0.0,0.0,0.0,0.0,0.0,0.0,0.0,0.0,0.0,0.0,0.0,0.0,0.0,0.0,0.0,0.0,0.0,0.0,0.0,0.0,0.0,0.0,0.0,0.0,0.0,0.0,0.0,0.0,0.0,0.0,0.0,0.0,0.0,0.0,0.0,0.0,0.0,0.0,0.0,0.0,0.0,0.0,0.0,0.0,0.0,0.0,0.0,0.0,0.0,0.0,0.0,0.0,0.0,0.0,0.0,0.0,0.0,0.0,0.0,0.0,0.0,0.0,0.0,0.0,0.0,0.0,0.0,0.0,0.0,0.0,0.0,0.0,0.0,0.0,0.0,0.0,0.0,0.0,0.0,0.0,0.0,0.0,0.0,0.0,0.0,0.0,0.0,0.0,0.0,0.0,0.0,0.0,0.0,0.0,0.0,0.0,0.0,0.0,0.0,0.0,0.0,0.0,0.0,0.0,0.0,0.0,0.0,0.0,0.0,0.0,0.0,0.0,0.0,0.0,0.0,0.0,0.0,0.0,0.0,0.0,0.0,0.0,0.0,0.0,0.0,0.0,0.0,0.0,0.0,0.0,0.0,0.0,0.0,0.0,0.0,0.0,0.0,0.0,0.0,0.0,0.0,0.0,0.0,0.0,0.0,0.0,0.0,0.0,0.0,0.0,0.0,0.0,0.0,0.0,0.0,0.0,0.0,0.0,0.0,0.0,0.0,0.0,0.0,0.0,0.0,0.0,0.0,0.0,0.0,0.0,0.0,0.0,0.0,0.0,0.0,0.0,0.0,0.0,0.0,0.0,0.0,0.0,0.0,0.0,0.0,0.0,0.0,0.0,0.0,0.0,0.0,0.0,0.0,0.0,0.0,0.0,0.0,0.0,0.0,0.0,0.0,0.0,0.0,0.0,0.0,0.0,0.0,0.0,0.0,0.0,0.0,0.0,0.0,0.0,0.0,0.0,0.0,0.0,0.0,0.0,0.0,0.0,0.0,0.0,0.0,0.0,0.0,0.0,0.0,0.0,0.0,0.0,0.0,0.0,0.0,0.0,0.0,0.0,0.0,0.0,0.0,0.0,0.0,0.0,0.0,0.0,0.0,0.0,0.0,0.0,0.0,0.0,0.0,0.0,0.0,0.0,0.0,0.0,0.0,0.0,0.0,0.0,0.0,0.0,0.0,0.0,0.0,0.0,0.0,0.0,0.0,0.0,0.0,0.0,0.0,0.0,0.0,0.0,0.0,0.0,0.0,0.0,0.0,0.0,0.0,0.0,0.0,0.0,0.0,0.0,0.0,0.0,0.0,0.0,0.0,0.0,0.0,0.0,0.0,0.0,0.0,0.0,0.0,0.0,0.0,0.0,0.0,0.0,0.0,0.0,0.0,0.0,0.0,0.0,0.0,0.0,0.0,0.0,0.0,0.0,0.0,0.0,0.0,0.0,0.0,0.0,0.0,0.0,0.0,0.0,0.0,0.0,0.0,0.0,0.0,0.0,0.0,0.0,0.0,0.0,0.0,0.0,0.0,0.0,0.0,0.0,0.0,0.0,0.0,0.0,0.0,0.0,0.0,0.0,0.0,0.0,0.0,0.0,0.0,0.0,0.0,0.0,0.0,0.0,0.0,0.0,0.0,0.0,0.0,0.0,0.0,0.0,0.0,0.0,0.0,0.0,0.0,0.0,0.0,0.0,0.0,0.0,0.0,0.0,0.0,0.0,0.0,0.0,0.0,0.0,0.0,0.0,0.0,0.0,0.0,0.0,0.0,0.0,0.0,0.0,0.0,0.0,0.0,0.0,0.0,0.0,0.0,0.0,0.0,0.0,0.0,0.0,0.0,0.0,0.0,0.0,0.0,0.0,0.0,0.0,0.0,0.0,0.0,0.0,0.0,0.0,0.0,0.0,0.0,0.0,0.0,0.0,0.0,0.0,0.0,0.0,0.0,0.0,0.0,0.0,0.0,0.0,0.0,0.0,0.0,0.0,0.0,0.0,0.0,0.0,0.0,0.0,0.0,0.0,0.0,0.0,0.0,0.0,0.0,0.0,0.0,0.0,0.0,0.0,0.0,0.0,0.0,0.0,0.0,0.0,0.0,0.0,0.0,0.0,0.0,0.0,0.0,0.0,0.0,0.0,0.0,0.0,0.0,0.0,0.0,0.0,0.0,0.0,0.0,0.0,0.0,0.0,0.0,0.0,0.0,0.0,0.0,0.0,0.0,0.0,0.0,0.0,0.0,0.0,0.0,0.0,0.0,0.0,0.0,0.0,0.0,0.0,0.0,0.0,0.0,0.0,0.0,0.0,0.0,0.0,0.0,0.0,0.0,0.0,0.0,0.0,0.0,0.0,0.0,0.0,0.0,0.0,0.0,0.0,0.0,0.0,0.0,0.0,0.0,0.0,0.0,0.0,0.0,0.0,0.0,0.0,0.0,0.0,0.0,0.0,0.0,0.0,0.0,0.0,0.0,0.0,0.0,0.0,0.0,0.0,0.0,0.0,0.0,0.0,0.0,0.0,0.0,0.0,0.0,0.0,0.0,0.0,0.0,0.0,0.0,0.0,0.0,0.0,0.0,0.0,0.0,0.0,0.0,0.0,0.0,0.0,0.0,0.0,0.0,0.0,0.0,0.0,0.0,0.0,0.0,0.0,0.0,0.0,0.0,0.0,0.0,0.0,0.0,0.0,0.0,0.0,0.0,0.0,0.0,0.0,0.0,0.0,0.0,0.0,0.0,0.0,0.0,0.0,0.0,0.0,0.0,0.0,0.0,0.0,0.0,0.0,0.0,0.0,0.0,0.0,0.0,0.0,0.0,0.0,0.0,0.0,0.0,0.0,0.0,0.0,0.0,0.0,0.0,0.0,0.0,0.0,0.0,0.0,0.0,0.0,0.0,0.0,0.0,0.0,0.0,0.0,0.0,0.0,0.0,0.0,0.0,0.0,0.0,0.0,0.0,0.0,0.0,0.0,0.0,0.0,0.0,0.0,0.0,0.0,0.0,0.0,0.0,0.0,0.0,0.0,0.0,0.0,0.0,0.0,0.0,0.0,0.0,0.0,0.0,0.0,0.0,0.0,0.0,0.0,0.0,0.0,0.0,0.0,0.0,0.0,0.0,0.0,0.0,0.0,0.0,0.0,0.0,0.0,0.0,0.0,0.0,0.0,0.0,0.0,0.0,0.0,0.0,0.0,0.0,0.0,0.0,0.0,0.0,0.0,0.0,0.0,0.0,0.0,0.0,0.0,0.0,0.0,0.0,0.0,0.0,0.0,0.0,0.0,0.0,0.0,0.0,0.0,0.0,0.0,0.0,0.0,0.0,0.0,0.0,0.0,0.0,0.0,0.0,0.0,0.0,0.0,0.0,0.0,0.0,0.0,0.0,0.0,0.0,0.0,0.0,0.0,0.0,0.0,0.0,0.0,0.0,0.0,0.0,0.0,0.0,0.0,0.0,0.0,0.0,0.0,0.0,0.0,0.0,0.0,0.0,0.0,0.0,0.0,0.0,0.0,0.0,0.0,0.0,0.0,0.0,0.0,0.0,0.0,0.0,0.0,0.0,0.0,0.0,0.0,0.0,0.0,0.0,0.0,0.0,0.0,0.0,0.0,0.0,0.0,0.0,0.0,0.0,0.0,0.0,0.0,0.0,0.0,-0.988,0.0,0.0,0.0,0.0,0.0,0.0,0.0,0.0,0.0,0.0,0.0,0.0,0.0,0.0,0.0,0.0,0.0,0.0,0.0,0.0,0.0,0.0,0.0,0.0,0.0,0.0,0.0,0.0,0.0,0.0,0.0,0.0,0.0,0.0,0.0,0.0,0.0,0.0,0.0,0.0,0.0,0.0,0.0,0.0,0.0,0.0,0.0,0.0,0.0,0.0,0.0,0.0,0.0,0.0,0.0,0.0,0.0,0.0,0.0,0.0,0.0,0.0,0.0,0.0,0.0,0.0,0.0,0.0,0.0,0.0,0.0,0.0,0.0,0.0,0.0,0.0,0.0,0.0,0.0,0.0,0.0,0.0,0.0,0.0,0.0,0.0,0.0,0.0,0.0,0.0,0.0,0.0,0.0,0.0,0.0,0.0,0.0,0.0,0.0,0.0,0.0,0.0,0.0,0.0,0.0,0.0,0.0,0.0,0.0,0.0,-0.9724,-0.988,-0.9724,-0.9724,-0.988,0.0,0.0,0.0,0.0,0.0,0.0,0.0,0.0,0.0,0.0,0.0,0.0,0.0,0.0,0.0,0.0,0.0,0.0,0.0,0.0,0.0,0.0,0.0,0.0,0.0,0.0,0.0,0.0,0.0,0.0,0.0,0.0,0.0,0.0,0.0,0.0,0.0,0.0,0.0,0.0,0.0,0.0,0.0,0.0,0.0,0.0,0.0,0.0,0.0,0.0,0.0,0.0,0.0,0.0,0.0,0.0,0.0,0.0,0.0,0.0,0.0,0.0,0.0,0.0,0.0,0.0,0.0,0.0,0.0,0.0,0.0,0.0,0.0,0.0,0.0,0.0,0.0,0.0,0.0,0.0,0.0,0.0,0.0,0.0,0.0,0.0,0.0,0.0,0.0,0.0,0.0,0.0,0.0,0.0,0.0,0.0,0.0,0.0,0.0,0.0,0.0,0.0,0.0,0.0,0.0,0.0,0.0,0.0,0.0,0.0,0.0,0.0,-0.9607,-0.9646,-0.988,0.0,0.0,0.0,0.0,0.0,0.0,0.0,0.0,0.0,0.0,0.0,0.0,0.0,0.0,0.0,0.0,0.0,0.0,0.0,0.0,0.0,0.0,0.0,0.0,0.0,0.0,0.0,0.0,0.0,0.0,0.0,0.0,0.0,0.0,0.0,0.0,0.0,0.0,0.0,0.0,0.0,0.0,0.0,0.0,0.0,0.0,0.0,0.0,0.0,0.0,0.0,0.0,0.0,0.0,0.0,0.0,0.0,0.0,0.0,0.0,0.0,0.0,0.0,0.0,0.0,0.0,0.0,0.0,0.0,0.0,0.0,0.0,0.0,0.0,0.0,0.0,0.0,0.0,0.0,0.0,0.0,0.0,0.0,0.0,0.0,0.0,0.0,0.0,0.0,0.0,0.0,0.0,0.0,0.0,0.0,0.0,0.0,0.0,0.0,0.0,0.0,0.0,0.0,0.0,0.0,0.0,0.0,0.0,0.0,0.0,-0.9712,-0.9461,-0.9712,0.0,-0.988,0.0,0.0,0.0,0.0,0.0,0.0,0.0,0.0,0.0,0.0,0.0,0.0,0.0,0.0,0.0,0.0,0.0,0.0,0.0,0.0,0.0,0.0,0.0,0.0,0.0,0.0,0.0,0.0,0.0,0.0,0.0,0.0,0.0,0.0,0.0,0.0,0.0,0.0,0.0,0.0,0.0,0.0,0.0,0.0,0.0,0.0,0.0,0.0,0.0,0.0,0.0,0.0,0.0,0.0,0.0,0.0,0.0,0.0,0.0,0.0,0.0,0.0,0.0,0.0,0.0,0.0,0.0,0.0,0.0,0.0,0.0,0.0,0.0,0.0,0.0,0.0,0.0,0.0,0.0,0.0,0.0,0.0,0.0,0.0,0.0,0.0,0.0,0.0,0.0,0.0,0.0,0.0,0.0,0.0,0.0,0.0,0.0,0.0,0.0,0.0,0.0,0.0,0.0,0.0,0.0,0.0,0.0,0.0,0.0,0.0,-0.954,-0.9408,-0.975,-0.9879,0.0,0.0,0.0,0.0,0.0,0.0,0.0,0.0,0.0,0.0,0.0,0.0,0.0,0.0,0.0,0.0,0.0,0.0,0.0,0.0,0.0,0.0,0.0,0.0,0.0,0.0,0.0,0.0,0.0,0.0,0.0,0.0,0.0,0.0,0.0,0.0,0.0,0.0,0.0,0.0,0.0,0.0,0.0,0.0,0.0,0.0,0.0,0.0,0.0,0.0,0.0,0.0,0.0,0.0,0.0,0.0,0.0,0.0,0.0,0.0,0.0,0.0,0.0,0.0,0.0,0.0,0.0,0.0,0.0,0.0,0.0,0.0,0.0,0.0,0.0,0.0,0.0,0.0,0.0,0.0,0.0,0.0,0.0,0.0,0.0,0.0,0.0,0.0,0.0,0.0,0.0,0.0,0.0,0.0,0.0,0.0,0.0,0.0,0.0,0.0,0.0,0.0,0.0,0.0,0.0,0.0,0.0,0.0,0.0,0.0,-0.9354,-0.9408,-0.9408,-0.9633,-0.9813,-0.9874,0.0,0.0,0.0,0.0,0.0,0.0,0.0,0.0,0.0,0.0,0.0,0.0,0.0,0.0,0.0,0.0,0.0,0.0,0.0,0.0,0.0,0.0,0.0,0.0,0.0,0.0,0.0,0.0,0.0,0.0,0.0,0.0,0.0,0.0,0.0,0.0,0.0,0.0,0.0,0.0,0.0,0.0,0.0,0.0,0.0,0.0,0.0,0.0,0.0,0.0,0.0,0.0,0.0,0.0,0.0,0.0,0.0,0.0,0.0,0.0,0.0,0.0,0.0,0.0,0.0,0.0,0.0,0.0,0.0,0.0,0.0,0.0,0.0,0.0,0.0,0.0,0.0,0.0,0.0,0.0,0.0,0.0,0.0,0.0,0.0,0.0,0.0,0.0,0.0,0.0,0.0,0.0,0.0,0.0,0.0,0.0,0.0,0.0,0.0,0.0,0.0,0.0,0.0,0.0,0.0,0.0,0.0,0.0,-0.8883,-0.9193,-0.9393,-0.9378,-0.9434,-0.9593,0.0,0.0,0.0,0.0,0.0,0.0,0.0,0.0,0.0,0.0,0.0,0.0,0.0,0.0,0.0,0.0,0.0,0.0,0.0,0.0,0.0,0.0,0.0,0.0,0.0,0.0,0.0,0.0,0.0,0.0,0.0,0.0,0.0,0.0,0.0,0.0,0.0,0.0,0.0,0.0,0.0,0.0,0.0,0.0,0.0,0.0,0.0,0.0,0.0,0.0,0.0,0.0,0.0,0.0,0.0,0.0,0.0,0.0,0.0,0.0,0.0,0.0,0.0,0.0,0.0,0.0,0.0,0.0,0.0,0.0,0.0,0.0,0.0,0.0,0.0,0.0,0.0,0.0,0.0,0.0,0.0,0.0,0.0,0.0,0.0,0.0,0.0,0.0,0.0,0.0,0.0,0.0,0.0,0.0,0.0,0.0,0.0,0.0,0.0,0.0,0.0,0.0,0.0,0.0,0.0,0.0,0.0,0.0,0.0,-0.9799,-0.9616,-0.9411,-0.9193,-0.9879,-1.0097,0.0,0.0,0.0,0.0,0.0,0.0,0.0,0.0,0.0,0.0,0.0,0.0,0.0,0.0,0.0,0.0,0.0,0.0,0.0,0.0,0.0,0.0,0.0,0.0,0.0,0.0,0.0,0.0,0.0,0.0,0.0,0.0,0.0,0.0,0.0,0.0,0.0,0.0,0.0,0.0,0.0,0.0,0.0,0.0,0.0,0.0,0.0,0.0,0.0,0.0,0.0,0.0,0.0,0.0,0.0,0.0,0.0,0.0,0.0,0.0,0.0,0.0,0.0,0.0,0.0,0.0,0.0,0.0,0.0,0.0,0.0,0.0,0.0,0.0,0.0,0.0,0.0,0.0,0.0,0.0,0.0,0.0,0.0,0.0,0.0,0.0,0.0,0.0,0.0,0.0,0.0,0.0,0.0,0.0,0.0,0.0,0.0,0.0,0.0,0.0,0.0,0.0,0.0,0.0,0.0,0.0,0.0,0.0,0.0,-1.0102,0.0,-0.9332,-0.9231,-1.0123,-1.0409,0.0,0.0,0.0,0.0,0.0,0.0,0.0,0.0,0.0,0.0,0.0,0.0,0.0,0.0,0.0,0.0,0.0,0.0,0.0,0.0,0.0,0.0,0.0,0.0,0.0,0.0,0.0,0.0,0.0,0.0,0.0,0.0,0.0,0.0,0.0,0.0,0.0,0.0,0.0,0.0,0.0,0.0,0.0,0.0,0.0,0.0,0.0,0.0,0.0,0.0,0.0,0.0,0.0,0.0,0.0,0.0,0.0,0.0,0.0,0.0,0.0,0.0,0.0,0.0,0.0,0.0,0.0,0.0,0.0,0.0,0.0,0.0,0.0,0.0,0.0,0.0,0.0,0.0,0.0,0.0,0.0,0.0,0.0,0.0,0.0,0.0,0.0,0.0,0.0,0.0,0.0,0.0,0.0,0.0,0.0,0.0,0.0,0.0,0.0,0.0,0.0,0.0,0.0,0.0,0.0,0.0,0.0,0.0,-1.0446,-0.9653,-0.9281,-0.9267,-0.962,-1.0092,-1.0478,0.0,0.0,0.0,0.0,0.0,0.0,0.0,0.0,0.0,0.0,0.0,0.0,0.0,0.0,0.0,0.0,0.0,0.0,0.0,0.0,0.0,0.0,0.0,0.0,0.0,0.0,0.0,0.0,0.0,0.0,0.0,0.0,0.0,0.0,0.0,0.0,0.0,0.0,0.0,0.0,0.0,0.0,0.0,0.0,0.0,0.0,0.0,0.0,0.0,0.0,0.0,0.0,0.0,0.0,0.0,0.0,0.0,0.0,0.0,0.0,0.0,0.0,0.0,0.0,0.0,0.0,0.0,0.0,0.0,0.0,0.0,0.0,0.0,0.0,0.0,0.0,0.0,0.0,0.0,0.0,0.0,0.0,0.0,0.0,0.0,0.0,0.0,0.0,0.0,0.0,0.0,0.0,0.0,0.0,0.0,0.0,0.0,0.0,0.0,0.0,0.0,0.0,0.0,0.0,0.0,0.0,0.0,0.0,0.0,-1.0599,-1.0133,-0.9957,-1.0106,-1.0888,-1.1181,0.0,0.0,0.0,0.0,0.0,0.0,0.0,0.0,0.0,0.0,0.0,0.0,0.0,0.0,0.0,0.0,0.0,0.0,0.0,0.0,0.0,0.0,0.0,0.0,0.0,0.0,0.0,0.0,0.0,0.0,0.0,0.0,0.0,0.0,0.0,0.0,0.0,0.0,0.0,0.0,0.0,0.0,0.0,0.0,0.0,0.0,0.0,0.0,0.0,0.0,0.0,0.0,0.0,0.0,0.0,0.0,0.0,0.0,0.0,0.0,0.0,0.0,0.0,0.0,0.0,0.0,0.0,0.0,0.0,0.0,0.0,0.0,0.0,0.0,0.0,0.0,0.0,0.0,0.0,0.0,0.0,0.0,0.0,0.0,0.0,0.0,0.0,0.0,0.0,0.0,0.0,0.0,0.0,0.0,0.0,0.0,0.0,0.0,0.0,0.0,0.0,0.0,0.0,0.0,0.0,0.0,0.0,0.0,0.0,-1.0753,-1.0428,-1.0322,-1.0322,-1.1255,-1.1628,-1.1279,0.0,0.0,0.0,0.0,0.0,0.0,0.0,0.0,0.0,0.0,0.0,0.0,0.0,0.0,0.0,0.0,0.0,0.0,0.0,0.0,0.0,0.0,0.0,0.0,0.0,0.0,0.0,0.0,0.0,0.0,0.0,0.0,0.0,0.0,0.0,0.0,0.0,0.0,0.0,0.0,0.0,0.0,0.0,0.0,0.0,0.0,0.0,0.0,0.0,0.0,0.0,0.0,0.0,0.0,0.0,0.0,0.0,0.0,0.0,0.0,0.0,0.0,0.0,0.0,0.0,0.0,0.0,0.0,0.0,0.0,0.0,0.0,0.0,0.0,0.0,0.0,0.0,0.0,0.0,0.0,0.0,0.0,0.0,0.0,0.0,0.0,0.0,0.0,0.0,0.0,0.0,0.0,0.0,0.0,0.0,0.0,0.0,0.0,0.0,0.0,0.0,0.0,0.0,0.0,0.0,0.0,0.0,0.0,-1.0361,-1.0322,-1.0322,-1.0322,-1.1292,-1.1811,0.0,0.0,0.0,0.0,0.0,0.0,0.0,0.0,0.0,0.0,0.0,0.0,0.0,0.0,0.0,0.0,0.0,0.0,0.0,0.0,0.0,0.0,0.0,0.0,0.0,0.0,0.0,0.0,0.0,0.0,0.0,0.0,0.0,0.0,0.0,0.0,0.0,0.0,0.0,0.0,0.0,0.0,0.0,0.0,0.0,0.0,0.0,0.0,0.0,0.0,0.0,0.0,0.0,0.0,0.0,0.0,0.0,0.0,0.0,0.0,0.0,0.0,0.0,0.0,0.0,0.0,0.0,0.0,0.0,0.0,0.0,0.0,0.0,0.0,0.0,0.0,0.0,0.0,0.0,0.0,0.0,0.0,0.0,0.0,0.0,0.0,0.0,0.0,0.0,0.0,0.0,0.0,0.0,0.0,0.0,0.0,0.0,0.0,0.0,0.0,0.0,0.0,0.0,0.0,0.0,0.0,0.0,0.0,0.0,-1.0829,-1.0467,-1.0322,-1.0322,-1.1255,-1.1811,0.0,0.0,0.0,0.0,0.0,0.0,0.0,0.0,0.0,0.0,0.0,0.0,0.0,0.0,0.0,0.0,0.0,0.0,0.0,0.0,0.0,0.0,0.0,0.0,0.0,0.0,0.0,0.0,0.0,0.0,0.0,0.0,0.0,0.0,0.0,0.0,0.0,0.0,0.0,0.0,0.0,0.0,0.0,0.0,0.0,0.0,0.0,0.0,0.0,0.0,0.0,0.0,0.0,0.0,0.0,0.0,0.0,0.0,0.0,0.0,0.0,0.0,0.0,0.0,0.0,0.0,0.0,0.0,0.0,0.0,0.0,0.0,0.0,0.0,0.0,0.0,0.0,0.0,0.0,0.0,0.0,0.0,0.0,0.0,0.0,0.0,0.0,0.0,0.0,0.0,0.0,0.0,0.0,0.0,0.0,0.0,0.0,0.0,0.0,0.0,0.0,0.0,0.0,0.0,0.0,0.0,0.0,0.0,-1.1207,-1.0725,-1.0639,-1.0505,-1.0322,-1.1067,-1.1579,0.0,0.0,0.0,0.0,0.0,0.0,0.0,0.0,0.0,0.0,0.0,0.0,0.0,0.0,0.0,0.0,0.0,0.0,0.0,0.0,0.0,0.0,0.0,0.0,0.0,0.0,0.0,0.0,0.0,0.0,0.0,0.0,0.0,0.0,0.0,0.0,0.0,0.0,0.0,0.0,0.0,0.0,0.0,0.0,0.0,0.0,0.0,0.0,0.0,0.0,0.0,0.0,0.0,0.0,0.0,0.0,0.0,0.0,0.0,0.0,0.0,0.0,0.0,0.0,0.0,0.0,0.0,0.0,0.0,0.0,0.0,0.0,0.0,0.0,0.0,0.0,0.0,0.0,0.0,0.0,0.0,0.0,0.0,0.0,0.0,0.0,0.0,0.0,0.0,0.0,0.0,0.0,0.0,0.0,0.0,0.0,0.0,0.0,0.0,0.0,0.0,0.0,0.0,0.0,0.0,0.0,0.0,0.0,-1.0867,-1.04,-1.0829,-1.0878,-1.0515,-1.0867,-1.1319,0.0,0.0,0.0,0.0,0.0,0.0,0.0,0.0,0.0,0.0,0.0,0.0,0.0,0.0,0.0,0.0,0.0,0.0,0.0,0.0,0.0,0.0,0.0,0.0,0.0,0.0,0.0,0.0,0.0,0.0,0.0,0.0,0.0,0.0,0.0,0.0,0.0,0.0,0.0,0.0,0.0,0.0,0.0,0.0,0.0,0.0,0.0,0.0,0.0,0.0,0.0,0.0,0.0,0.0,0.0,0.0,0.0,0.0,0.0,0.0,0.0,0.0,0.0,0.0,0.0,0.0,0.0,0.0,0.0,0.0,0.0,0.0,0.0,0.0,0.0,0.0,0.0,0.0,0.0,0.0,0.0,0.0,0.0,0.0,0.0,0.0,0.0,0.0,0.0,0.0,0.0,0.0,0.0,0.0,0.0,0.0,0.0,0.0,0.0,0.0,0.0,0.0,0.0,0.0,0.0,0.0,0.0,0.0,-1.1345,-1.0878,-1.1356,-1.159,-1.1479,-1.159,-1.1689,0.0,0.0,0.0,0.0,0.0,0.0,0.0,0.0,0.0,0.0,0.0,0.0,0.0,0.0,0.0,0.0,0.0,0.0,0.0,0.0,0.0,0.0,0.0,0.0,0.0,0.0,0.0,0.0,0.0,0.0,0.0,0.0,0.0,0.0,0.0,0.0,0.0,0.0,0.0,0.0,0.0,0.0,0.0,0.0,0.0,0.0,0.0,0.0,0.3533,0.0,0.0,0.0,0.0,0.0,0.0,0.0,0.0,0.0,0.0,0.0,0.0,0.0,0.0,0.0,0.0,0.0,0.0,0.0,0.0,0.0,0.0,0.0,0.0,0.0,0.0,0.0,0.0,0.0,0.0,0.0,0.0,0.0,0.0,0.0,0.0,0.0,0.0,0.0,0.0,0.0,0.0,0.0,0.0,0.0,0.0,0.0,0.0,0.0,0.0,0.0,0.0,0.0,0.0,0.0,0.0,0.0,0.0,0.0,-1.1664,-1.1394,-1.1884,-1.2029,-1.1811,-1.2029,-1.2138,0.0,0.0,0.0,0.0,0.0,0.0,0.0,0.0,0.0,0.0,0.0,0.0,0.0,0.0,0.0,0.0,0.0,0.0,0.0,0.0,0.0,0.0,0.0,0.0,0.0,0.0,0.0,0.0,0.0,0.0,0.0,0.0,0.0,0.0,0.0,0.0,0.0,0.0,0.0,0.0,0.0,0.0,0.0,0.0,0.0,0.0,0.0,0.0,0.0,0.0,0.0,0.0,0.0,0.0,0.0,0.0,0.0,0.0,0.0,0.0,0.0,0.0,0.0,0.0,0.0,0.0,0.0,0.0,0.0,0.0,0.0,0.0,0.0,0.0,0.0,0.0,0.0,0.0,0.0,0.0,0.0,0.0,0.0,0.0,0.0,0.0,0.0,0.0,0.0,0.0,0.0,0.0,0.0,0.0,0.0,0.0,0.0,0.0,0.0,0.0,0.0,0.0,0.0,0.0,0.0,0.0,0.0,-1.2066,-1.192,-1.192,-1.2354,-1.2389,-1.2041,-1.233,-1.2508,-1.2579,0.0,0.0,0.0,0.0,0.0,0.0,0.0,0.0,0.0,0.0,0.0,0.0,0.0,0.0,0.0,0.0,0.0,0.0,0.0,0.0,0.0,0.0,0.0,0.0,0.0,0.0,0.0,0.0,0.0,0.0,0.0,0.0,0.0,0.0,0.0,0.0,0.0,0.0,0.2679,0.2679,0.0,0.0,0.0,0.0,0.0,0.0,0.0,0.0,0.3677,0.0,0.0,0.0,0.0,0.0,0.0,0.0,0.0,0.0,0.0,0.0,0.0,0.0,0.0,0.0,0.0,0.0,0.0,0.0,0.0,0.0,0.0,0.0,0.0,0.0,0.0,0.0,0.0,0.0,0.0,0.0,0.0,0.0,0.0,0.0,0.0,0.0,0.0,0.0,0.0,0.0,0.0,0.0,0.0,0.0,0.0,0.0,0.0,0.0,0.0,0.0,0.0,0.0,0.0,0.0,0.0,-1.1932,-1.221,-1.2389,-1.2389,-1.2838,-1.306,-1.2978,-1.265,-1.2697,-1.306,0.0,0.0,0.0,0.0,0.0,0.0,0.0,0.0,0.0,0.0,0.0,0.0,0.0,0.0,0.0,0.0,0.0,0.0,0.0,0.0,0.0,0.0,0.0,0.0,0.0,0.0,0.0,0.0,0.0,0.0,0.0,0.0,0.0,0.0,0.0,0.0,0.0,0.0,0.0,0.2679,0.2679,0.0,0.0,0.0,0.0,0.0,0.0,0.0,0.0,0.37,0.0,0.0,0.0,0.0,0.0,0.0,0.0,0.0,0.0,0.0,0.0,0.0,0.0,0.0,0.0,0.0,0.0,0.0,0.0,0.0,0.0,0.0,0.0,0.0,0.0,0.0,0.0,0.0,0.0,0.0,0.0,0.0,0.0,0.0,0.0,0.0,0.0,0.0,0.0,0.0,0.0,0.0,0.0,0.0,0.0,0.0,0.0,0.0,0.0,0.0,0.0,0.0,0.0,0.0,0.0,-1.2544,-1.2508,-1.2615,-1.2873,-1.3094,-1.321,-1.321,-1.2978,-1.2978,0.0,0.0,0.0,0.0,0.0,0.0,0.0,0.0,0.0,0.0,0.0,0.0,0.0,0.0,0.0,0.0,0.0,0.0,0.0,0.0,0.0,0.0,0.0,0.0,0.0,0.0,0.0,0.0,0.0,0.0,0.0,0.0,0.0,0.0,0.0,0.0,0.0,0.0,0.0,0.0,0.2679,0.2679,0.2679,0.0,0.0,0.0,0.0,0.0,0.0,0.3035,0.3453,0.0,0.0,0.0,0.0,0.0,0.0,0.0,0.0,0.0,0.0,0.0,0.0,0.0,0.0,0.0,0.0,0.0,0.0,0.0,0.0,0.0,0.0,0.0,0.0,0.0,0.0,0.0,0.0,0.0,0.0,0.0,0.0,0.0,0.0,0.0,0.0,0.0,0.0,0.0,0.0,0.0,0.0,0.0,0.0,0.0,0.0,0.0,0.0,0.0,0.0,0.0,0.0,0.0,0.0,0.0,-1.3198,-1.2826,-1.2826,-1.3198,-1.321,-1.321,-1.321,-1.321,-1.321,0.0,0.0,0.0,0.0,0.0,0.0,0.0,0.0,0.0,0.0,0.0,0.0,0.0,0.0,0.0,0.0,0.0,0.0,0.0,0.0,0.0,0.0,0.0,0.0,0.0,0.0,0.0,0.0,0.0,0.0,0.0,0.0,0.0,0.0,0.0,0.0,0.0,0.0,0.0,0.0,0.0,0.2679,0.2679,0.2679,0.0,0.0,0.0,0.0,0.2679,0.2973,0.0,0.0,0.0,0.0,0.0,0.0,0.0,0.0,0.0,0.0,0.0,0.0,0.0,0.0,0.0,0.0,0.0,0.0,0.0,0.0,0.0,0.0,0.0,0.0,0.0,0.0,0.0,0.0,0.0,0.0,0.0,0.0,0.0,0.0,0.0,0.0,0.0,0.0,0.0,0.0,0.0,0.0,0.0,0.0,0.0,0.0,0.0,0.0,0.0,0.0,0.0,0.0,0.0,0.0,0.0,0.0,-1.3198,-1.3163,-1.3163,-1.321,-1.321,-1.321,-1.321,-1.321,-1.321,0.0,0.0,0.0,0.0,0.0,0.0,0.0,0.0,0.0,0.0,0.0,0.0,0.0,0.0,0.0,0.0,0.0,0.0,0.0,0.0,0.0,0.0,0.0,0.0,0.0,0.0,0.0,0.0,0.0,0.0,0.0,0.0,0.0,0.0,0.0,0.0,0.0,0.0,0.0,0.0,0.0,0.2679,0.2679,0.2679,0.2679,0.0,0.0,0.2679,0.2679,0.2746,0.0,0.0,0.0,0.0,0.0,0.0,0.0,0.0,0.0,0.0,0.0,0.0,0.0,0.0,0.0,0.0,0.0,0.0,0.0,0.0,0.0,0.0,0.0,0.0,0.0,0.0,0.0,0.0,0.0,0.0,0.0,0.0,0.0,0.0,0.0,0.0,0.0,0.0,0.0,0.0,0.0,0.0,0.0,0.0,0.0,0.0,0.0,0.0,0.0,0.0,0.0,0.0,0.0,0.0,0.0,-1.4419,-1.3842,-1.4033,-1.4161,-1.4161,-1.4161,-1.4011,-1.3697,-1.3697,-1.3559,0.0,0.0,0.0,0.0,0.0,0.0,0.0,0.0,0.0,0.0,0.0,0.0,0.0,0.0,0.0,0.0,0.0,0.0,0.0,0.0,0.0,0.0,0.0,0.0,0.0,0.0,0.0,0.0,0.0,0.0,0.0,0.0,0.0,0.0,0.0,0.0,0.0,0.0,0.0,0.0,0.0,0.0,0.2679,0.2679,0.0,0.0,0.0,0.2679,0.2679,0.0,0.0,0.0,0.0,0.0,0.0,0.0,0.0,0.0,0.0,0.0,0.0,0.0,0.0,0.0,0.0,0.0,0.0,0.0,0.0,0.0,0.0,0.0,0.0,0.0,0.0,0.0,0.0,0.0,0.0,0.0,0.0,0.0,0.0,0.0,0.0,0.0,0.0,0.0,0.0,0.0,0.0,0.0,0.0,0.0,0.0,0.0,0.0,0.0,0.0,0.0,0.0,0.0,0.0,0.0,0.0,0.0,-1.4875,-1.4889,-1.5018,-1.5297,-1.5171,-1.4891,-1.452,-1.4494,0.0,0.0,0.0,0.0,0.0,0.0,0.0,0.0,0.0,0.0,0.0,0.0,0.0,0.0,0.0,0.0,0.0,0.0,0.0,0.0,0.0,0.0,0.0,0.0,0.0,0.0,0.0,-0.0168,0.0,0.0,0.0,0.0,0.0,0.0,0.0,0.0,0.0,0.0,0.0,0.0,0.0,0.0,0.2686,0.2686,0.2686,0.273,0.0,0.0,0.2785,0.2784,0.2791,0.2891,0.0,0.0,0.0,0.0,0.0,0.0,0.0,0.0,0.0,0.0,0.0,0.0,0.0,0.0,0.0,0.0,0.0,0.0,0.0,0.0,0.0,0.0,0.0,0.0,0.0,0.0,0.0,0.0,0.0,0.0,0.0,0.0,0.0,0.0,0.0,0.0,0.0,0.0,0.0,0.0,0.0,0.0,0.0,0.0,0.0,0.0,0.0,0.0,0.0,0.0,0.0,0.0,0.0,0.0,0.0,-1.6347,-1.5384,-1.5385,-1.6346,-1.5901,-1.5644,-1.5568,-1.5604,-1.5319,0.0,0.0,0.0,0.0,0.0,0.0,0.0,0.0,0.0,0.0,0.0,0.0,0.0,0.0,0.0,0.0,0.0,0.0,0.0,0.0,0.0,0.0,0.0,0.0,0.0,0.0,0.0,0.0,0.0,0.0,0.0,0.0,0.0,0.0,0.0,0.0,0.0,0.0,0.0,0.0,0.0,0.2696,0.2696,0.2696,0.2747,0.0,0.0,0.3013,0.3069,0.309,0.3093,0.3124,0.0,0.0,0.0,0.0,0.0,0.0,0.0,0.0,0.0,0.0,0.0,0.0,0.0,0.0,0.0,0.0,0.0,0.0,0.0,0.0,0.0,0.0,0.0,0.0,0.0,0.0,0.0,0.0,0.0,0.0,0.0,0.0,0.0,0.0,0.0,0.0,0.0,0.0,0.0,0.0,0.0,0.0,0.0,0.0,0.0,0.0,0.0,0.0,0.0,0.0,0.0,0.0,0.0,-1.7348,-1.7477,-1.7098,-1.707,-1.7439,-1.7301,-1.7009,-1.6678,-1.6664,-1.6427,0.0,0.0,0.0,0.0,0.0,0.0,0.0,0.0,0.0,0.0,0.0,0.0,0.0,0.0,0.0,0.0,0.0,0.0,0.0,0.0,0.0,0.0,0.0,0.0,0.0,0.0,0.0,0.0,-0.1852,-0.1532,-0.1204,0.0,0.0,0.0,0.0,0.0,0.0,0.0,0.0,0.0,0.0,0.1852,0.1852,0.185,0.0,0.0,0.2592,0.308,0.3092,0.3176,0.325,0.3211,0.3121,0.0,0.0,0.0,0.0,0.0,0.0,0.0,0.0,0.0,0.0,0.0,0.0,0.0,0.0,0.0,0.0,0.0,0.0,0.0,0.0,0.0,0.0,0.0,0.0,0.0,0.0,0.0,0.0,0.0,0.0,0.0,0.0,0.0,0.0,0.0,0.0,0.0,0.0,0.0,0.0,0.0,0.0,0.0,0.0,0.0,0.0,0.0,0.0,0.0,0.0,0.0,0.0,-1.8462,-1.8585,-1.8261,-1.8249,-1.8574,-1.8419,-1.8184,-1.7787,-1.7773,-1.7539,0.0,0.0,0.0,0.0,0.0,0.0,0.0,0.0,0.0,0.0,0.0,0.0,0.0,0.0,0.0,0.0,0.0,0.0,0.0,0.0,0.0,0.0,0.0,0.0,0.0,0.0,0.0,0.0,-0.261,-0.2902,-0.2964,0.0,0.0,0.0,0.0,0.0,0.0,0.0,0.0,0.0,0.0,0.0901,0.0901,0.0901,0.0904,0.0917,0.164,0.2297,0.2658,0.278,0.2983,0.3317,0.0,0.0,0.0,0.0,0.0,0.0,0.0,0.0,0.0,0.0,0.0,0.0,0.0,0.0,0.0,0.0,0.0,0.0,0.0,0.0,0.0,0.0,0.0,0.0,0.0,0.0,0.0,0.0,0.0,0.0,-1.8601,0.0,0.0,0.0,0.0,0.0,0.0,0.0,0.0,0.0,0.0,0.0,0.0,0.0,0.0,0.0,0.0,0.0,0.0,0.0,0.0,0.0,0.0,-1.9585,-1.9645,-1.8674,-1.865,-1.9603,-1.9169,-1.8878,-1.8849,-1.8864,-1.8622,-1.8076,0.0,0.0,0.0,0.0,0.0,0.0,0.0,0.0,0.0,0.0,0.0,0.0,0.0,0.0,0.0,0.0,0.0,0.0,0.0,0.0,0.0,0.0,0.0,0.0,0.0,0.0,-0.3222,-0.3261,-0.3342,0.0,0.0,0.0,0.0,0.0,0.0,0.0,0.0,0.0,0.0,0.0548,0.0039,-0.0,0.0039,0.004,-0.0,0.0042,0.0467,0.1633,0.1823,0.2228,0.0,0.0,0.0,0.0,0.0,0.0,0.0,0.0,0.0,0.0,0.0,0.0,0.0,0.0,0.0,0.0,0.0,0.0,0.0,0.0,0.0,0.0,0.0,0.0,0.0,0.0,0.0,-2.0044,-1.9675,0.0,0.0,0.0,0.0,0.0,0.0,0.0,0.0,0.0,0.0,0.0,-2.0035,-2.1066,0.0,0.0,0.0,0.0,0.0,0.0,0.0,0.0,0.0,0.0,0.0,0.0,-2.0534,-2.0532,-1.9904,-1.9743,-2.0089,-1.9681,-1.9457,-1.9442,-1.9457,-1.914,-1.8436,0.0,0.0,0.0,0.0,0.0,0.0,0.0,0.0,0.0,0.0,0.0,0.0,0.0,0.0,0.0,0.0,0.0,0.0,0.0,0.0,0.0,0.0,0.0,0.0,0.0,-0.3723,0.0,0.0,0.0,0.0,0.0,0.0,0.0,0.0,0.0,0.0,0.0,-0.1966,-0.0899,-0.1007,-0.1198,-0.12,-0.0513,-0.0301,0.0,0.0,0.0,0.0,0.0,0.0,0.0,0.0,0.0,0.0,0.0,0.0,0.0,0.0,0.3979,0.4317,0.457,0.4688,0.4726,0.0,0.0,0.0,0.0,0.0,0.0,0.0,0.0,0.0,0.0,0.0,0.0,0.0,0.0,-2.0758,0.0,-2.0758,0.0,0.0,0.0,0.0,0.0,0.0,0.0,0.0,-2.0904,-2.0797,-2.0829,-2.1843,-2.2046,0.0,-2.2073,-2.2057,0.0,0.0,0.0,0.0,0.0,0.0,0.0,0.0,-2.1278,-2.1424,-2.0859,-2.0483,-2.0299,-2.0035,-1.9839,-1.9726,-1.9839,-1.9606,-1.8994,-1.8895,-1.8895,0.0,0.0,0.0,0.0,0.0,0.0,0.0,0.0,0.0,0.0,0.0,0.0,0.0,0.0,0.0,0.0,0.0,0.0,0.0,0.0,0.0,0.0,0.0,-0.4095,0.0,0.0,0.0,0.0,0.0,0.0,0.0,0.0,0.0,-0.3927,-0.3765,-0.3308,-0.2525,-0.2413,-0.2413,-0.2413,0.0,0.0,0.0,0.0,0.0,0.0,0.0,0.0268,0.1029,0.1163,0.1163,0.1162,0.2499,0.3578,0.3578,0.0,0.0,0.4049,0.428,0.4391,0.4395,0.4625,0.4848,0.505,0.5847,0.6613,0.0,0.0,0.0,0.0,0.0,0.0,0.0,0.0,-2.0494,-2.0511,0.0,-2.0859,0.0,0.0,0.0,0.0,0.0,-2.1361,0.0,0.0,-2.2276,-2.231,-2.2293,-2.231,-2.2327,-2.2327,-2.231,-2.231,-2.2265,-2.1853,0.0,0.0,0.0,0.0,0.0,0.0,-2.1847,-2.2246,-2.144,-2.0781,-2.0348,-2.0314,-2.0089,-1.9726,-2.0054,-2.0104,-1.9767,-2.0054,-2.0093,-1.9713,-1.9036,0.0,0.0,0.0,0.0,0.0,0.0,0.0,0.0,0.0,0.0,0.0,0.0,0.0,0.0,0.0,0.0,0.0,0.0,0.0,0.0,-0.4474,0.0,0.0,0.0,0.0,0.0,0.0,0.0,0.0,0.0,0.0,-0.4583,-0.406,-0.3578,-0.3578,0.0,0.0,0.0,0.0,-0.3595,-0.3595,-0.3595,-0.3595,-0.3551,-0.1654,-0.0134,-0.0045,0.0,0.0,-0.0,0.1919,0.3445,0.3578,0.3578,0.3578,0.3615,0.4029,0.4331,0.4374,0.4366,0.4561,0.5082,0.5224,0.5497,-2.4509,0.0,0.0,0.0,0.0,-2.2669,-2.2347,-2.2029,-2.2029,-2.1936,-2.1769,-2.2046,0.0,0.0,0.0,0.0,0.0,0.0,-2.241,-2.2573,-2.2388,-2.2327,-2.2327,-2.2327,-2.2327,-2.2327,-2.2327,-2.2327,-2.2299,-2.218,-2.218,-2.2282,0.0,0.0,0.0,0.0,-2.2178,-2.2254,-2.1727,-2.1244,-2.0813,-2.0483,-2.0089,-1.9726,-1.9803,-2.0096,-2.0599,-2.0147,-1.9803,-1.9681,-1.9046,0.0,0.0,0.0,0.0,0.0,0.0,0.0,0.0,0.0,0.0,0.0,0.0,0.0,0.0,0.0,0.0,0.0,0.0,0.0,-0.5739,-0.5701,-0.5432,0.0,0.0,0.0,0.0,0.0,0.0,0.0,0.0,0.0,-0.4399,-0.3968,-0.3578,0.0,0.0,-0.3585,-0.3585,-0.3585,-0.3585,-0.3585,-0.3585,0.0,-0.3585,-0.304,-0.2277,-0.1426,-0.0581,-0.0,-0.0,0.058,0.1606,0.3262,0.3578,0.3578,0.3622,0.3707,0.3836,0.384,0.384,0.388,0.4056,0.4399,0.4826,-2.5736,-2.5142,-2.4926,-2.4577,-2.418,-2.3965,-2.3496,-2.2898,-2.2898,-2.2789,-2.2686,-2.2965,-2.3003,-2.2923,-2.3117,0.0,0.0,0.0,-2.2997,-2.3136,-2.2563,-2.2613,-2.3122,-2.3164,-2.3153,-2.3173,-2.3173,-2.3173,-2.3173,-2.319,-2.3173,-2.3156,0.0,0.0,-2.288,-2.2496,-2.2496,-2.2846,-2.2216,-2.1615,-2.1007,-2.0398,-2.0019,-1.9929,-1.9945,-2.0284,-2.0945,-2.0299,-1.9874,-1.9711,-1.9301,-1.9091,0.0,0.0,0.0,0.0,0.0,0.0,0.0,0.0,0.0,0.0,0.0,-1.0254,-0.9843,0.0,0.0,0.0,-0.7592,-0.6677,-0.5916,-0.605,0.0,0.0,0.0,0.0,0.0,0.0,0.0,-0.5615,-0.4836,-0.4399,-0.4696,-0.4487,-0.41,-0.3667,-0.3578,-0.3578,-0.3578,0.0,-0.3578,-0.3578,-0.3578,-0.3578,-0.3578,-0.3578,-0.3353,-0.2637,-0.1117,-0.0,-0.0,-0.0,-0.0,0.1875,0.2951,0.3585,0.3581,0.3578,0.3578,0.3578,0.3578,0.3578,0.3578,0.4005,0.4517,-2.6522,-2.6796,-2.6814,-2.6093,-2.501,-2.4951,-2.4377,-2.3407,-2.3407,-2.3407,-2.3431,-2.3701,-2.3679,-2.3383,-2.336,0.0,-2.3377,-2.3329,-2.3535,-2.3905,-2.2963,-2.3219,-2.4472,-2.4545,-2.4516,-2.4506,-2.4523,-2.4523,-2.4489,-2.4506,-2.4523,-2.4472,-2.3156,-2.2948,-2.3752,-2.2931,-2.2931,-2.3803,-2.2948,-2.2069,-2.1231,-2.035,-2.0041,-2.0441,-2.0379,-2.0525,-2.0861,-2.0506,-2.0124,-1.9726,-1.9705,-1.9705,-1.9675,0.0,0.0,0.0,0.0,0.0,0.0,0.0,0.0,0.0,0.0,0.0,0.0,0.0,0.0,0.0,-0.7941,0.0,-0.5518,-0.5959,0.0,0.0,0.0,-0.6972,-0.6972,-0.6556,-0.6179,-0.6179,0.0,0.0,-0.5308,-0.5308,-0.4918,-0.3884,-0.3707,-0.3755,-0.3707,-0.366,-0.3619,-0.3707,-0.3619,-0.3619,-0.3622,-0.3578,-0.3581,-0.3455,-0.1744,-0.0,-0.0,-0.0,-0.0,-0.0,0.1834,0.3366,0.3541,0.3581,0.3578,0.3581,0.3578,0.3578,0.3622,0.3965,0.4303,-2.8343,-2.8425,-2.8407,-2.7429,-2.5809,-2.5535,-2.5287,-2.5034,-2.5034,-2.5034,-2.5034,-2.5109,-2.5109,-2.4992,-2.4761,-2.4644,-2.4644,-2.4356,-2.424,-2.4356,-2.4445,-2.4501,-2.4523,-2.4863,-2.4846,-2.4523,-2.4523,-2.4523,-2.4523,-2.4523,-2.4523,-2.4489,-2.412,-2.41,-2.4303,-2.41,-2.41,-2.432,-2.4117,-2.3737,-2.3194,-2.2096,-2.1557,-2.1658,-2.1132,-2.0553,-2.0042,-2.0203,-2.0124,-1.9726,-1.9705,-1.9705,-1.969,-1.8674,0.0,0.0,0.0,0.0,0.0,0.0,0.0,0.0,0.0,-1.1505,-1.0867,0.0,-0.9728,0.0,-0.7758,-0.6888,-0.6634,-0.6719,0.0,0.0,-0.6846,-0.6972,-0.6972,-0.652,-0.6179,-0.6179,-0.5653,-0.5308,-0.5308,-0.5308,-0.5221,-0.4918,-0.4879,-0.4918,-0.4874,-0.4144,-0.3745,-0.4077,-0.3858,-0.3595,-0.3619,-0.3578,-0.3578,-0.3585,-0.3087,-0.2142,-0.0,-0.0,-0.0,-0.0,0.0402,0.152,0.3185,0.3592,0.3592,0.3581,0.3578,0.3578,0.3622,0.3707,0.3924,-2.9549,-2.9512,-2.914,-2.8375,-2.7359,-2.6814,-2.6363,-2.6056,-2.6056,-2.6056,-2.6056,-2.6056,-2.6056,-2.6015,-2.5839,-2.5765,-2.5765,-2.5535,-2.5442,-2.5478,-2.5501,-2.55,-2.5505,-2.576,-2.5729,-2.5488,-2.5456,-2.5473,-2.5505,-2.5473,-2.5473,-2.5473,-2.5456,-2.5505,-2.5454,-2.4862,-2.4675,-2.4983,-2.4488,-2.4129,-2.3902,-2.3027,-2.2597,-2.2581,-2.1873,-2.108,-2.0139,-2.0227,-2.0124,-1.9726,-1.9705,-1.9705,-1.9705,-1.9132,-1.8584,0.0,0.0,0.0,0.0,0.0,0.0,0.0,0.0,0.0,0.0,0.0,-1.041,-0.9177,-0.8456,-0.8005,-0.7765,-0.7565,-0.7308,-0.7022,-0.7001,-0.6972,-0.6972,-0.6725,-0.6556,-0.6562,-0.6252,-0.6076,-0.6033,-0.6033,-0.6039,-0.6033,-0.6039,-0.5862,-0.5341,-0.4712,-0.4444,-0.473,-0.4105,-0.3585,-0.3619,-0.3578,-0.3578,-0.3578,-0.3578,-0.3129,-0.1828,-0.116,-0.0625,-0.0,-0.0,-0.0,0.1741,0.2962,0.3509,0.322,0.335,0.3578,0.3578,0.3578,0.3711,-3.0338,-3.0301,-2.9494,-2.914,-2.9085,-2.8301,-2.7567,-2.6906,-2.6906,-2.6906,-2.6906,-2.6924,-2.6924,-2.6906,-2.6845,-2.6841,-2.6841,-2.6779,-2.6802,-2.6825,-2.6356,-2.6412,-2.6856,-2.6808,-2.6776,-2.6774,-2.6725,-2.6708,-2.6708,-2.6708,-2.6708,-2.6708,-2.6708,-2.6708,-2.664,-2.5438,-2.5084,-2.5727,-2.4762,-2.4265,-2.4249,-2.3765,-2.3495,-2.3479,-2.2815,-2.1965,-2.1062,-2.0724,-2.0366,-2.0005,-1.9843,-1.9747,-1.9726,-1.9675,-1.9427,0.0,-1.8341,0.0,0.0,0.0,0.0,0.0,0.0,0.0,0.0,-1.1887,-1.1196,-0.978,-0.9591,-0.9339,-0.889,-0.8451,-0.7827,-0.7098,-0.7208,-0.7383,-0.7383,-0.7383,-0.7341,-0.7262,-0.722,-0.722,-0.7118,-0.7141,-0.7098,-0.7088,-0.7102,-0.6755,-0.5881,-0.5609,-0.5518,-0.5437,-0.4457,-0.3763,-0.3744,-0.3667,-0.3578,-0.3578,-0.3578,-0.3578,-0.349,-0.2679,-0.1695,-0.0801,-0.0,-0.0402,-0.0089,0.1746,0.2879,0.2546,0.3084,0.3585,0.3581,0.3578,0.3578,-3.1164,-3.1109,-3.0301,-2.9971,-2.9916,-2.9127,-2.8705,-2.8553,-2.8517,-2.8535,-2.8535,-2.8553,-2.8553,-2.8535,-2.8203,-2.8062,-2.8062,-2.778,-2.7636,-2.7667,-2.7553,-2.7568,-2.7648,-2.7326,-2.7189,-2.7178,-2.6858,-2.6708,-2.6708,-2.6708,-2.6708,-2.6708,-2.6708,-2.6708,-2.6691,0.0,0.0,0.0,-2.6286,-2.6168,-2.6152,-2.548,-2.5145,-2.5128,-2.4456,0.0,-2.3193,-2.226,-2.1682,-2.1521,-2.0698,0.0,0.0,0.0,0.0,0.0,0.0,0.0,0.0,0.0,0.0,0.0,-1.6111,-1.5175,-1.3133,-1.1782,-1.0857,-1.0575,-1.0118,-0.9756,-0.9712,-0.9587,-0.8842,-0.7288,-0.8431,-0.9347,-0.9408,-0.9355,-0.9175,-0.8602,-0.8557,-0.8335,-0.7821,-0.7709,-0.7749,-0.7722,-0.7709,-0.7669,-0.741,-0.6931,-0.6532,-0.6044,-0.5067,-0.4308,-0.4264,-0.3935,-0.3694,-0.3578,-0.3578,-0.3585,-0.3588,-0.3452,-0.322,-0.2818,-0.2921,-0.2201,-0.0447,0.0403,0.1122,0.2152,0.3013,0.3602,0.3585,0.3581,0.3578,-3.199,0.0,-3.1127,-3.0577,0.0,-2.9787,-2.936,-2.8975,-2.8975,-2.8975,-2.8975,-2.8975,-2.8975,-2.8994,-2.8791,-2.8707,-2.8682,-2.8533,-2.8334,-2.8156,-2.8156,-2.8047,-2.7897,-2.7678,-2.7607,-2.7607,-2.7396,-2.7303,-2.7303,-2.7286,-2.7286,-2.7286,-2.71,-2.7083,-2.7286,-2.7083,-2.6906,-2.6691,-2.6708,-2.6708,-2.6674,-2.6336,-2.615,-2.6116,-2.5423,0.0,0.0,0.0,0.0,0.0,0.0,0.0,0.0,-1.9839,0.0,-1.893,-1.838,-1.7987,-1.7706,-1.7188,-1.6921,-1.6866,-1.6398,-1.5365,-1.3783,-1.2131,-1.1202,-1.1192,-1.0918,-1.0731,-1.074,-1.0508,-1.0052,-0.9387,-0.9666,-1.0262,-1.1122,-1.0496,-0.9786,-0.9466,-0.9382,-0.9244,-0.8928,-0.8562,-0.8428,-0.8381,-0.8112,-0.7936,-0.7862,-0.757,-0.7148,-0.6696,-0.6185,-0.5631,-0.5305,-0.476,-0.4346,-0.4303,-0.4026,-0.3811,-0.3697,-0.3683,-0.3666,-0.3612,-0.3595,-0.3096,-0.2055,-0.0849,0.0269,0.112,0.2511,0.3293,0.2949,0.3176,0.3578,-3.2875,-3.2801,-3.2035,-3.1317,-3.0691,-3.0544,-2.9926,-2.8989,0.0,0.0,0.0,-2.8975,-2.8975,-2.8975,-2.8975,-2.8975,-2.8975,-2.8975,-2.8839,-2.8515,-2.8496,-2.8342,-2.8093,-2.802,-2.7992,-2.7964,-2.7926,-2.7897,-2.7897,-2.7897,-2.7897,-2.7869,-2.756,-2.7577,-2.7869,-2.7577,-2.721,-2.6808,-2.6725,-2.6708,-2.6708,-2.6708,-2.6708,-2.6708,-2.6116,-2.5647,-2.5278,-2.4547,-2.373,-2.2886,-2.218,-2.1487,-2.088,-2.03,-1.9707,-1.9095,-1.893,-1.8727,-1.8249,-1.7666,-1.7271,-1.7188,-1.6188,-1.5201,-1.4281,-1.2822,-1.1999,-1.1999,-1.1886,-1.1851,-1.1832,-1.1474,-1.1331,-1.1788,-1.1013,-1.1141,-1.2533,-1.15,-1.0481,-1.03,-1.0242,-1.0208,-1.0048,-0.9588,-0.9243,-0.9156,-0.8882,-0.8366,-0.8208,-0.7922,-0.7566,-0.7288,-0.7026,-0.6823,-0.6395,-0.5552,-0.514,-0.5012,-0.4443,-0.3975,-0.387,-0.3829,-0.3785,-0.37,-0.3659,-0.3628,-0.3527,-0.2159,-0.0593,-0.0091,0.1548,0.275,0.2158,0.2812,0.3638,-3.398,-3.3905,-3.3106,-3.2697,-3.2553,-3.1846,-3.0609,-2.9028,-2.8989,-2.8975,-2.8975,-2.8975,-2.8975,-2.8975,-2.8975,-2.8975,-2.8975,-2.8975,-2.897,-2.8929,-2.8929,-2.8887,-2.8815,-2.8489,-2.8324,-2.8298,-2.802,-2.7897,-2.7897,-2.7897,-2.7897,-2.7897,-2.784,-2.7869,-2.7897,-2.784,-2.7619,-2.7241,-2.6873,-2.6708,-2.6708,-2.6708,-2.6708,-2.6691,-2.659,-2.6539,-2.6455,-2.5413,-2.4776,-2.4622,-2.3519,-2.2438,-2.1445,-2.1168,-2.063,-1.9647,-1.9169,-1.8855,-1.8765,-1.7867,-1.7131,-1.6625,-1.5996,-1.533,-1.4654,-1.3936,-1.3486,-1.3486,-1.2959,-1.2695,-1.2695,-1.2608,-1.2551,-1.2638,-1.2541,-1.2619,-1.2908,-1.2599,-1.2119,-1.1598,-1.1554,-1.1274,-1.0846,-1.0615,-1.0449,-1.049,-1.021,-1.0081,-0.9386,-0.8574,-0.7908,-0.7732,-0.7392,-0.7092,-0.6952,-0.5931,-0.5372,-0.5091,-0.458,-0.4093,-0.4098,-0.3985,-0.3968,-0.385,-0.3834,-0.3847,-0.3902,-0.3732,-0.2464,-0.0785,0.0297,0.085,0.15,0.2792,0.3837,-3.4467,-3.443,-3.4073,-3.3642,-3.3135,-3.2203,-3.0724,-2.9119,-2.9465,-2.9379,-2.8994,-2.8975,-2.8975,-2.8975,-2.8975,-2.8975,-2.8975,-2.8975,-2.8975,-2.8975,-2.8975,-2.8975,-2.8975,-2.8815,-2.8707,-2.8725,-2.8576,-2.8525,-2.8482,-2.8482,-2.8482,-2.8482,-2.8482,-2.8386,-2.8183,-2.8183,-2.8102,-2.789,-2.7317,-2.6939,-2.6691,-2.6708,-2.6708,-2.6708,-2.6708,-2.6708,-2.6708,-2.6202,-2.5797,-2.5553,-2.4372,-2.3338,-2.2559,-2.1918,-2.1129,-2.0288,-1.999,-1.9715,-1.9347,-1.8341,-1.7504,-1.6993,-1.6398,-1.5976,-1.57,-1.4503,-1.3815,-1.3768,-1.3238,-1.2891,-1.2891,-1.2891,-1.2891,-1.2891,-1.2891,-1.2891,-1.2891,-1.2891,-1.2774,-1.2452,-1.2403,-1.2295,-1.1999,-1.1575,-1.1366,-1.1316,-1.1065,-1.0559,-0.9909,-0.9322,-0.8784,-0.8447,-0.8202,-0.8044,-0.793,-0.7161,-0.6591,-0.6483,-0.5553,-0.4896,-0.4675,-0.4445,-0.4161,-0.4089,-0.3976,-0.4029,-0.4086,-0.4089,-0.348,-0.2725,-0.0871,0.0103,0.0882,0.2426,0.3866,-3.4774,-3.4793,-3.4793,-3.4396,-3.3696,-3.2547,-3.1214,-2.9976,-3.0136,-2.9843,-2.931,-2.9085,-2.8975,-2.8975,-2.8975,-2.8975,-2.8975,-2.8975,-2.8975,-2.8975,-2.8975,-2.8975,-2.8975,-2.8975,-2.8975,-2.8975,-2.8975,-2.8975,-2.8975,-2.8975,-2.8975,-2.8975,-2.8975,-2.8839,-2.8522,-2.854,-2.8515,-2.8376,-2.7833,-2.7317,-2.6841,-2.6841,-2.6774,-2.6691,-2.6708,-2.6708,-2.6708,-2.6708,-2.6556,-2.6123,-2.5167,-2.4303,-2.3599,-2.2607,-2.1762,-2.1021,-2.0946,-2.0557,-1.979,-1.8864,-1.8003,-1.7353,-1.6795,-1.6534,-1.6392,-1.5096,-1.4133,-1.3956,-1.3467,-1.3065,-1.2929,-1.2891,-1.2891,-1.2891,-1.2891,-1.2891,-1.2891,-1.2891,-1.2891,-1.2891,-1.2891,-1.2881,-1.2822,-1.2393,-1.2089,-1.1981,-1.1466,-1.0813,-1.0364,-1.0064,-0.9562,-0.9211,-0.891,-0.8725,-0.8752,-0.8137,-0.7694,-0.767,-0.6617,-0.5726,-0.5369,-0.4816,-0.4418,-0.4319,-0.4185,-0.4199,-0.4233,-0.4295,-0.4206,-0.3855,-0.2538,-0.1124,-0.0537,0.1257,0.3144,-3.5051,-3.507,-3.507,-3.5032,-3.4751,-3.3475,-3.2765,-3.24,-3.0959,-3.0173,-3.0055,-2.9347,-2.9017,-2.8975,-2.8975,-2.8975,-2.8975,-2.8975,-2.8975,-2.8975,-2.8975,-2.8975,-2.8975,-2.8975,-2.8975,-2.8975,-2.8975,-2.8975,-2.8975,-2.8975,-2.8975,-2.8975,-2.8975,-2.8975,-2.8929,-2.8929,-2.8749,-2.842,-2.8342,-2.7956,-2.7286,-2.7224,-2.7068,-2.6691,-2.6691,-2.6708,-2.6708,-2.6708,-2.6691,-2.6624,-2.6125,-2.5297,-2.4223,-2.3537,-2.2738,-2.1704,-2.1605,-2.1094,-1.9991,-1.9343,-1.8577,-1.7419,-1.6888,-1.6572,-1.6547,-1.5888,-1.5186,-1.4652,-1.4061,-1.3515,-1.3017,-1.2978,-1.3017,-1.2978,-1.2978,-1.2891,-1.2929,-1.2891,-1.2891,-1.2891,-1.2978,-1.2891,-1.2881,-1.2774,-1.2774,-1.2666,-1.2138,-1.1625,-1.1366,-1.0618,-0.9917,-0.9614,-0.9211,-0.8857,-0.8752,-0.8209,-0.7883,-0.7723,-0.7074,-0.6392,-0.5873,-0.555,-0.5229,-0.4674,-0.449,-0.4537,-0.4443,-0.4477,-0.446,-0.4422,-0.3905,-0.355,-0.2275,-0.0778,0.0608,-3.5339,-3.5339,-3.5339,-3.5239,-3.5013,-3.4472,-3.4091,-3.3707,-3.2585,-3.1719,-3.1009,-3.0428,-2.9758,-2.9017,-2.8975,-2.8975,-2.8975,-2.8975,-2.8975,-2.8975,-2.8975,-2.8975,-2.8975,-2.8975,-2.8975,-2.8975,-2.8975,-2.8975,-2.8975,-2.8975,-2.8975,-2.8975,-2.8975,-2.8975,-2.8975,-2.8975,-2.8929,-2.8773,-2.8749,-2.8489,-2.7974,-2.753,-2.7224,-2.7068,-2.6808,-2.6708,-2.6708,-2.6708,-2.6708,-2.6657,-2.6245,-2.5793,-2.5265,-2.4483,-2.3597,-2.2729,-2.2088,-2.1496,-2.0976,-2.046,-1.9962,-1.9446,-1.8545,-1.7904,-1.7566,-1.703,-1.6284,-1.5334,-1.4687,-1.419,-1.3978,-1.3967,-1.3836,-1.3515,-1.342,-1.342,-1.342,-1.342,-1.342,-1.342,-1.342,-1.3286,-1.3027,-1.2891,-1.2891,-1.2881,-1.2608,-1.2295,-1.1873,-1.1316,-1.0712,-0.9961,-0.9562,-0.9211,-0.8903,-0.8586,-0.8374,-0.8209,-0.7723,-0.7069,-0.6848,-0.6362,-0.5928,-0.5218,-0.5054,-0.4842,-0.456,-0.4519,-0.4463,-0.4467,-0.4477,-0.4255,-0.3641,-0.3079,-0.1842,-3.5507,-3.5507,-3.5507,-3.5383,-3.5207,-3.5122,-3.4921,-3.451,-3.3734,-3.2883,-3.2089,-3.1561,-3.0677,-2.962,-2.9317,-2.9181,-2.9115,-2.9181,-2.9166,-2.9185,-2.9185,-2.9181,-2.9093,-2.9112,-2.9067,-2.904,-2.9089,-2.9112,-2.9089,-2.904,-2.8975,-2.8975,-2.8975,-2.8975,-2.8975,-2.8975,-2.8975,-2.8975,-2.8975,-2.8863,-2.8515,-2.7946,-2.7542,-2.7439,-2.7083,-2.6873,-2.6873,-2.6758,-2.6708,-2.6708,-2.6367,-2.612,-2.5961,-2.5243,-2.4477,-2.3692,-2.2783,-2.2113,-2.1879,-2.1415,-2.1193,-2.115,-1.9968,-1.8932,-1.8526,-1.7971,-1.7264,-1.6466,-1.5902,-1.5545,-1.472,-1.4709,-1.4468,-1.4097,-1.405,-1.405,-1.405,-1.4061,-1.3956,-1.3815,-1.3732,-1.3552,-1.3065,-1.2891,-1.2891,-1.2881,-1.2881,-1.2774,-1.2187,-1.1922,-1.1416,-1.0466,-1.0115,-0.9517,-0.8956,-0.8752,-0.8804,-0.8699,-0.8262,-0.7943,-0.7783,-0.7187,-0.6421,-0.5655,-0.5597,-0.5269,-0.468,-0.4519,-0.4463,-0.4463,-0.4467,-0.4477,-0.4311,-0.4376,-0.3583,-3.5507,-3.5507,-3.5507,-3.5493,-3.5465,-3.5223,-3.5105,-3.4992,-3.3922,-3.3375,-3.3185,-3.2505,-3.1693,-3.0865,-3.015,-2.9589,-2.9395,-2.9533,-2.9625,-2.9625,-2.9643,-2.9551,-2.9373,-2.9392,-2.9246,-2.9112,-2.927,-2.9392,-2.9353,-2.9156,-2.8975,-2.9017,-2.9021,-2.8998,-2.8998,-2.9017,-2.8975,-2.8975,-2.8975,-2.8994,-2.8929,-2.854,-2.8183,-2.788,-2.7487,-2.7255,-2.7192,-2.6906,-2.6708,-2.6708,-2.6657,-2.647,-2.6085,-2.5924,-2.5416,-2.4418,-2.3815,-2.3103,-2.2423,-2.2058,-2.1987,-2.1953,-2.0494,-1.9189,-1.9239,-1.8721,-1.8219,-1.8031,-1.7872,-1.7068,-1.5337,-1.5119,-1.4948,-1.4754,-1.4686,-1.4697,-1.4652,-1.4652,-1.4376,-1.4003,-1.3862,-1.36,-1.3027,-1.2891,-1.2891,-1.2891,-1.2891,-1.2832,-1.2715,-1.2236,-1.1823,-1.1416,-1.0618,-0.9614,-0.8956,-0.8804,-0.8804,-0.8752,-0.8639,-0.848,-0.8049,-0.7503,-0.674,-0.6145,-0.5977,-0.5542,-0.4842,-0.4463,-0.4463,-0.4463,-0.4463,-0.4467,-0.447,-0.4477,-0.3968,-3.5507,-3.5507,-3.5507,-3.5507,-3.5493,-3.5383,-3.5354,-3.5315,-3.4929,-3.44,-3.3938,-3.3612,-3.294,-3.2031,-3.1851,-3.095,-2.9682,-2.968,-2.9696,-2.9696,-2.9696,-2.9661,-2.9588,-2.957,-2.9551,-2.9494,-2.9533,-2.9589,-2.9589,-2.9476,-2.9456,-2.9416,-2.933,-2.9246,-2.9225,-2.9067,-2.8975,-2.8998,-2.8975,-2.8975,-2.8975,-2.8863,-2.8725,-2.8558,-2.7992,-2.7577,-2.7334,-2.7147,-2.6971,-2.6725,-2.6708,-2.6624,-2.6453,-2.6139,-2.554,-2.4552,-2.4225,-2.3827,-2.3221,-2.305,-2.3007,-2.3048,-2.2104,-2.1153,-2.0873,-2.027,-1.9615,-1.9002,-1.8806,-1.8096,-1.7343,-1.6916,-1.6632,-1.5939,-1.5799,-1.5683,-1.5357,-1.5276,-1.5186,-1.4903,-1.4318,-1.3684,-1.3467,-1.3152,-1.2929,-1.2891,-1.2891,-1.2929,-1.2881,-1.2618,-1.2335,-1.1823,-1.1065,-1.0218,-0.9569,-0.9061,-0.8811,-0.8804,-0.8752,-0.8699,-0.8374,-0.8321,-0.7717,-0.7069,-0.674,-0.614,-0.5492,-0.4732,-0.4677,-0.4463,-0.4463,-0.4463,-0.4463,-0.4467,-0.4473,-3.5507,-3.5507,-3.5507,-3.5507,-3.5507,-3.5507,-3.5507,-3.5507,-3.5488,-3.5161,-3.468,-3.4622,-3.4054,-3.3255,-3.3242,-3.242,-3.0798,-3.0497,-3.0193,-2.9931,-2.9931,-2.988,-2.9796,-2.9796,-2.9746,-2.9713,-2.9696,-2.9731,-2.978,-2.9712,-2.9695,-2.9678,-2.9551,-2.9494,-2.9455,-2.9267,-2.9115,-2.9112,-2.9044,-2.8975,-2.8975,-2.8975,-2.8975,-2.8929,-2.8507,-2.8047,-2.766,-2.7439,-2.721,-2.6939,-2.6791,-2.6708,-2.6657,-2.6262,-2.5689,-2.5012,-2.4592,-2.4164,-2.3716,-2.3578,-2.3595,-2.3551,-2.3054,-2.2538,-2.2148,-2.1541,-2.0758,-2.0138,-1.9938,-1.9734,-1.9433,-1.9339,-1.8699,-1.7414,-1.7137,-1.7036,-1.6536,-1.6454,-1.6279,-1.5773,-1.5002,-1.4316,-1.3847,-1.342,-1.3152,-1.2929,-1.2891,-1.292,-1.3142,-1.2958,-1.2852,-1.2463,-1.1706,-1.1065,-1.0517,-1.0123,-0.9211,-0.9008,-0.891,-0.8857,-0.891,-0.8857,-0.8586,-0.7996,-0.7396,-0.6789,-0.6086,-0.5273,-0.4838,-0.4625,-0.4463,-0.4463,-0.4463,-0.4463,-0.4467,-3.5507,-3.5507,-3.5507,-3.5507,-3.5507,-3.5507,-3.5507,-3.5507,-3.5507,-3.543,-3.5315,-3.543,-3.4916,-3.432,-3.4199,-3.3686,-3.2756,-3.2052,-3.1284,-3.0535,-3.0458,-3.0266,-3.0013,-2.9999,-2.9924,-2.9763,-2.9731,-2.9829,-3.0003,-2.9845,-2.9782,-2.9748,-2.9731,-2.9713,-2.9696,-2.9513,-2.9394,-2.9332,-2.916,-2.9021,-2.8998,-2.9017,-2.8975,-2.8975,-2.8929,-2.8725,-2.8376,-2.7718,-2.7365,-2.7241,-2.6939,-2.6725,-2.6657,-2.6297,-2.5997,-2.5779,-2.5028,-2.4275,-2.3662,-2.3613,-2.3681,-2.3551,-2.3054,-2.2756,-2.2639,-2.22,-2.1727,-2.1564,-2.1517,-2.1539,-2.145,-2.1437,-2.0556,-1.8725,-1.8608,-1.8603,-1.8172,-1.8094,-1.7718,-1.6644,-1.5903,-1.5082,-1.4243,-1.4031,-1.3882,-1.3417,-1.3242,-1.3347,-1.3658,-1.3372,-1.3238,-1.3304,-1.2502,-1.1516,-1.1366,-1.1166,-1.0115,-0.9309,-0.9113,-0.9008,-0.9166,-0.9159,-0.8844,-0.8309,-0.7771,-0.7224,-0.6627,-0.5814,-0.5273,-0.5007,-0.4787,-0.457,-0.4463,-0.4463,-0.4463,-3.5507,-3.5507,-3.5507,-3.5507,-3.5507,-3.5507,-3.5507,-3.5507,-3.5507,-3.5507,-3.5507,-3.5507,-3.5339,-3.5141,-3.5084,-3.4603,-3.3814,-3.3468,-3.266,-3.1506,-3.1314,-3.0924,-3.0394,-3.0286,-3.0241,-3.0202,-3.0188,-3.0215,-3.0241,-3.0202,-3.0188,-3.0155,-2.9988,-2.9908,-2.9893,-2.9695,-2.9607,-2.9589,-2.9394,-2.9267,-2.9246,-2.9089,-2.9017,-2.8975,-2.8975,-2.8929,-2.8815,-2.8316,-2.7833,-2.733,-2.7178,-2.6987,-2.6741,-2.6556,-2.6315,-2.6013,-2.5742,-2.4869,-2.3866,-2.3917,-2.3991,-2.3681,-2.3421,-2.3334,-2.3334,-2.3128,-2.2801,-2.2483,-2.2392,-2.2253,-2.1899,-2.2161,-2.1472,-1.9672,-1.9614,-1.9363,-1.8459,-1.8254,-1.8034,-1.7696,-1.7135,-1.6607,-1.6238,-1.5867,-1.5224,-1.4742,-1.4602,-1.466,-1.4414,-1.3979,-1.3552,-1.3674,-1.2648,-1.194,-1.1823,-1.1633,-1.0981,-1.0218,-0.9865,-0.9562,-0.9614,-0.9361,-0.9047,-0.8679,-0.8143,-0.7605,-0.7009,-0.6519,-0.5982,-0.5492,-0.5273,-0.4948,-0.4625,-0.4519,-0.4519,-3.5507,-3.5507,-3.5507,-3.5507,-3.5507,-3.5507,-3.5507,-3.5507,-3.5507,-3.5507,-3.5507,-3.5507,-3.5507,-3.5507,-3.5507,-3.5199,-3.4718,-3.468,-3.393,-3.2718,-3.2237,-3.1698,-3.0898,-3.0525,-3.0398,-3.0398,-3.0398,-3.0398,-3.0398,-3.0398,-3.0398,-3.0355,-3.0222,-3.015,-3.0136,-2.9943,-2.9813,-2.978,-2.9626,-2.9474,-2.9373,-2.9243,-2.9089,-2.8998,-2.8975,-2.8975,-2.8975,-2.8749,-2.8324,-2.7805,-2.7601,-2.7317,-2.6971,-2.6906,-2.6724,-2.6332,-2.6085,-2.5603,-2.483,-2.4784,-2.4353,-2.3827,-2.3761,-2.3794,-2.3681,-2.3595,-2.3377,-2.3098,-2.3024,-2.2846,-2.2575,-2.277,-2.2343,-2.1194,-2.0959,-2.0288,-1.914,-1.878,-1.8681,-1.8496,-1.8154,-1.78,-1.7338,-1.7022,-1.6486,-1.5981,-1.5815,-1.5953,-1.5468,-1.4886,-1.4548,-1.4104,-1.3391,-1.278,-1.2264,-1.199,-1.1692,-1.1233,-1.0771,-1.0517,-1.0364,-0.9762,-0.9302,-0.8949,-0.8474,-0.8043,-0.7498,-0.723,-0.6799,-0.6308,-0.576,-0.5328,-0.4948,-0.457,-0.4519,-3.5507,-3.5507,-3.5507,-3.5507,-3.5507,-3.5507,-3.5507,-3.5507,-3.5507,-3.5507,-3.5507,-3.5507,-3.5507,-3.5507,-3.5507,-3.5449,-3.5468,-3.5391,-3.4988,-3.416,-3.3487,-3.266,-3.1583,-3.0763,-3.0398,-3.0398,-3.0398,-3.0398,-3.0398,-3.0398,-3.0398,-3.0379,-3.0367,-3.0379,-3.0311,-3.0136,-3.0028,-2.9999,-2.9813,-2.9625,-2.9474,-2.9414,-2.927,-2.9067,-2.9044,-2.9021,-2.8975,-2.8952,-2.8773,-2.8394,-2.802,-2.7695,-2.7378,-2.7317,-2.7066,-2.6708,-2.6297,-2.6286,-2.631,-2.567,-2.4909,-2.407,-2.424,-2.4241,-2.3921,-2.3921,-2.3822,-2.3666,-2.3623,-2.3595,-2.3493,-2.3508,-2.3201,-2.2815,-2.2098,-2.1185,-2.0044,-1.9699,-1.9434,-1.9158,-1.8983,-1.8697,-1.7763,-1.7616,-1.7298,-1.6857,-1.6734,-1.6924,-1.6748,-1.6184,-1.5532,-1.4832,-1.4123,-1.3449,-1.2919,-1.2748,-1.2488,-1.2232,-1.1799,-1.1493,-1.1074,-1.0423,-0.9814,-0.9406,-0.885,-0.8421,-0.815,-0.7984,-0.7503,-0.6907,-0.6357,-0.5756,-0.5269,-0.4897,-0.4574,-3.5507,-3.5507,-3.5507,-3.5507,-3.5507,-3.5507,-3.5507,-3.5507,-3.5488,-3.5501,-3.5488,-3.5507,-3.5488,-3.5507,-3.5488,-3.5507,-3.5501,-3.5501,-3.543,-3.5161,-3.4968,-3.3564,-3.1891,-3.0809,-3.0424,-3.0436,-3.0417,-3.0398,-3.0398,-3.0398,-3.0398,-3.0398,-3.0398,-3.0398,-3.0367,-3.0311,-3.0299,-3.0254,-3.0047,-2.9908,-2.9813,-2.9678,-2.9532,-2.9312,-2.927,-2.9181,-2.9021,-2.8975,-2.8797,-2.842,-2.8075,-2.7869,-2.7754,-2.75,-2.7286,-2.7066,-2.6791,-2.6535,-2.6524,-2.6142,-2.5594,-2.5185,-2.4989,-2.495,-2.4831,-2.4792,-2.4592,-2.4307,-2.4184,-2.4032,-2.3709,-2.3638,-2.3493,-2.3216,-2.2257,-2.1,-2.0096,-1.9813,-1.9736,-1.9623,-1.9585,-1.9345,-1.9132,-1.8995,-1.8782,-1.8374,-1.8215,-1.8141,-1.7836,-1.7093,-1.6243,-1.5546,-1.4828,-1.4152,-1.3649,-1.3445,-1.3268,-1.3159,-1.2845,-1.2539,-1.1959,-1.1283,-1.0771,-1.0356,-0.9309,-0.8738,-0.889,-0.8883,-0.8243,-0.745,-0.6907,-0.6308,-0.5542,-0.5003,-0.468,-3.5568,-3.5588,-3.5538,-3.555,-3.5557,-3.5558,-3.555,-3.5577,-3.5538,-3.5562,-3.5566,-3.5538,-3.5553,-3.5553,-3.5566,-3.5574,-3.5546,-3.5585,-3.5579,-3.5568,-3.5454,-3.4429,-3.275,-3.1309,-3.0578,-3.0879,-3.0571,-3.0398,-3.0398,-3.0398,-3.0398,-3.0398,-3.0398,-3.0398,-3.0398,-3.0398,-3.0398,-3.0367,-3.0241,-3.0117,-2.9999,-2.9893,-2.9731,-2.957,-2.9532,-2.9415,-2.9203,-2.9067,-2.8863,-2.8658,-2.8482,-2.8281,-2.8102,-2.789,-2.7631,-2.7348,-2.7083,-2.6893,-2.6672,-2.6432,-2.6118,-2.577,-2.554,-2.5427,-2.5221,-2.5182,-2.5012,-2.4792,-2.4736,-2.4576,-2.4307,-2.4074,-2.3846,-2.3471,-2.2398,-2.1131,-1.996,-1.98,-1.9812,-1.9798,-1.9798,-1.9798,-1.9798,-1.9798,-1.966,-1.9384,-1.9233,-1.9096,-1.8846,-1.7843,-1.7078,-1.6491,-1.6067,-1.5529,-1.507,-1.484,-1.4643,-1.4459,-1.3781,-1.3481,-1.2626,-1.1918,-1.1174,-1.0559,-0.9769,-0.9211,-0.9309,-0.9256,-0.8738,-0.7996,-0.7456,-0.6858,-0.6091,-0.5546,-0.5171,-3.5703,-3.5696,-3.5639,-3.5657,-3.5675,-3.5639,-3.5648,-3.5694,-3.5639,-3.5648,-3.5659,-3.5639,-3.5611,-3.5621,-3.5655,-3.5671,-3.5602,-3.5655,-3.5694,-3.5652,-3.5523,-3.4951,-3.4156,-3.2442,-3.1571,-3.1545,-3.0852,-3.0533,-3.0436,-3.0398,-3.0398,-3.0398,-3.0398,-3.0398,-3.0398,-3.0398,-3.0398,-3.0398,-3.0367,-3.0267,-3.0117,-3.0061,-2.9958,-2.9746,-2.9607,-2.9532,-2.9332,-2.9138,-2.8975,-2.8975,-2.8975,-2.8773,-2.8471,-2.8446,-2.8112,-2.7572,-2.7348,-2.7083,-2.6825,-2.6708,-2.6471,-2.6021,-2.6016,-2.5888,-2.5598,-2.5524,-2.5486,-2.5297,-2.5281,-2.5205,-2.4973,-2.4672,-2.4112,-2.3629,-2.2981,-2.1851,-2.0658,-2.0036,-1.9901,-1.985,-1.9901,-1.9798,-1.9798,-1.9798,-1.9786,-1.9648,-1.9623,-1.9547,-1.9396,-1.8841,-1.8262,-1.7859,-1.7416,-1.7047,-1.6706,-1.6333,-1.616,-1.5875,-1.4866,-1.4152,-1.3066,-1.2249,-1.141,-1.0669,-1.0174,-0.9718,-0.951,-0.9256,-0.8857,-0.8487,-0.7889,-0.7348,-0.6853,-0.6367,-0.5937,-3.5703,-3.5703,-3.5682,-3.5689,-3.5703,-3.5682,-3.5689,-3.571,-3.5689,-3.5709,-3.5703,-3.5682,-3.5675,-3.5694,-3.5703,-3.5689,-3.5702,-3.5703,-3.5703,-3.5684,-3.5573,-3.5512,-3.5251,-3.4375,-3.3352,-3.2204,-3.1557,-3.1044,-3.0595,-3.0414,-3.041,-3.039,-3.039,-3.0398,-3.0398,-3.0398,-3.0398,-3.0398,-3.0398,-3.0367,-3.0311,-3.0267,-3.0182,-2.9939,-2.9643,-2.9474,-2.9372,-2.9134,-2.9017,-2.8975,-2.8975,-2.891,-2.8797,-2.8565,-2.8342,-2.8057,-2.7601,-2.7286,-2.7147,-2.6906,-2.6641,-2.6471,-2.6437,-2.6488,-2.6436,-2.6315,-2.6175,-2.5961,-2.5815,-2.5689,-2.5319,-2.4752,-2.4275,-2.3738,-2.314,-2.2768,-2.2491,-2.1444,-2.0696,-2.0446,-2.0144,-1.9798,-1.985,-1.985,-1.985,-1.9798,-1.9798,-1.9798,-1.9683,-1.9503,-1.916,-1.8706,-1.8638,-1.8218,-1.7792,-1.7484,-1.7271,-1.6894,-1.5968,-1.5056,-1.3932,-1.275,-1.1959,-1.1285,-1.0736,-1.0328,-0.9814,-0.9211,-0.8752,-0.854,-0.8268,-0.7777,-0.7343,-0.6966,-0.6588,-3.5861,-3.5838,-3.5812,-3.5817,-3.5834,-3.5792,-3.5817,-3.5834,-3.5792,-3.5817,-3.583,-3.5797,-3.5797,-3.5802,-3.583,-3.583,-3.5792,-3.583,-3.5825,-3.5788,-3.5738,-3.5722,-3.5696,-3.556,-3.4546,-3.2619,-3.1951,-3.1322,-3.0704,-3.0462,-3.0442,-3.0441,-3.0406,-3.041,-3.0398,-3.041,-3.0398,-3.0398,-3.0398,-3.0398,-3.0398,-3.0398,-3.0355,-3.0122,-2.9782,-2.957,-2.9607,-2.9218,-2.9021,-2.8975,-2.8975,-2.8975,-2.8975,-2.8815,-2.8615,-2.8342,-2.8112,-2.7601,-2.7348,-2.7115,-2.6906,-2.6691,-2.6708,-2.6708,-2.6708,-2.6708,-2.6624,-2.6418,-2.6297,-2.6175,-2.5892,-2.5166,-2.465,-2.434,-2.3601,-2.3319,-2.3289,-2.2198,-2.1064,-2.093,-2.0769,-2.0333,-2.0131,-2.0093,-1.9952,-1.9901,-1.9798,-1.9798,-1.9798,-1.9683,-1.9619,-1.9401,-1.9577,-1.9344,-1.8907,-1.8505,-1.8263,-1.7751,-1.6915,-1.6079,-1.5133,-1.3818,-1.2588,-1.1935,-1.1234,-1.0474,-0.9909,-0.9309,-0.8857,-0.8699,-0.848,-0.8103,-0.7883,-0.7723,-0.7182,-3.6016,-3.5996,-3.5945,-3.5947,-3.5976,-3.5945,-3.5947,-3.5975,-3.5945,-3.5925,-3.5975,-3.5942,-3.5913,-3.5918,-3.5953,-3.5951,-3.5945,-3.595,-3.5929,-3.5916,-3.5932,-3.5877,-3.5827,-3.5713,-3.5124,-3.3462,-3.259,-3.1683,-3.084,-3.0552,-3.0524,-3.0507,-3.0472,-3.0422,-3.0409,-3.0425,-3.0414,-3.039,-3.0398,-3.0398,-3.0398,-3.0398,-3.0379,-3.0286,-2.9931,-2.9753,-2.9683,-2.9347,-2.8975,-2.8975,-2.8975,-2.8975,-2.8975,-2.8975,-2.8905,-2.8515,-2.8394,-2.8029,-2.756,-2.7317,-2.7115,-2.6758,-2.6708,-2.6708,-2.6708,-2.6708,-2.6657,-2.6691,-2.6624,-2.6624,-2.6607,-2.5855,-2.5335,-2.4996,-2.4251,-2.3752,-2.3406,-2.2606,-2.1913,-2.1355,-2.1245,-2.0939,-2.0584,-2.0359,-2.0207,-2.0003,-1.9901,-1.985,-1.985,-1.9798,-1.9734,-1.9683,-1.9758,-1.9783,-1.9359,-1.9218,-1.9007,-1.8586,-1.7787,-1.6994,-1.6181,-1.508,-1.3746,-1.2447,-1.1639,-1.0972,-1.0269,-0.971,-0.9361,-0.9061,-0.8752,-0.8427,-0.8374,-0.8427,-0.7937,-3.6016,-3.6016,-3.5976,-3.5976,-3.6016,-3.5976,-3.5996,-3.5996,-3.5996,-3.5996,-3.5996,-3.5976,-3.5976,-3.5976,-3.5996,-3.5996,-3.5996,-3.5996,-3.5996,-3.5976,-3.5996,-3.5957,-3.5957,-3.5937,-3.5371,-3.4459,-3.3372,-3.2127,-3.1006,-3.0607,-3.0587,-3.0581,-3.0574,-3.0517,-3.0451,-3.0443,-3.0452,-3.0386,-3.0414,-3.0402,-3.041,-3.0398,-3.0398,-3.0374,-2.9977,-2.9822,-2.9738,-2.9347,-2.8975,-2.8975,-2.8975,-2.8975,-2.8975,-2.8975,-2.8952,-2.8839,-2.859,-2.8264,-2.7794,-2.747,-2.7147,-2.6825,-2.6708,-2.6708,-2.6708,-2.6708,-2.6708,-2.6708,-2.6708,-2.6708,-2.6691,-2.6139,-2.5705,-2.5237,-2.4672,-2.4032,-2.3666,-2.3275,-2.2905,-2.2346,-2.196,-2.1472,-2.0966,-2.0597,-2.0446,-2.0144,-1.985,-1.9901,-2.0055,-1.9952,-1.9798,-1.9798,-1.9811,-1.9811,-1.9683,-1.9683,-1.9517,-1.9285,-1.8646,-1.785,-1.7073,-1.6192,-1.5026,-1.3701,-1.2512,-1.1663,-1.0972,-1.0285,-0.9909,-0.9658,-0.9256,-0.885,-0.9001,-0.9152,-0.8896,-3.6016,-3.6016,-3.6016,-3.6016,-3.6016,-3.6016,-3.6016,-3.6016,-3.6016,-3.6016,-3.6016,-3.6016,-3.6016,-3.6016,-3.6016,-3.6016,-3.6016,-3.6016,-3.6016,-3.6016,-3.6016,-3.6016,-3.6016,-3.6016,-3.5469,-3.4648,-3.3717,-3.2695,-3.1474,-3.0888,-3.07,-3.0633,-3.0628,-3.0562,-3.0535,-3.054,-3.0485,-3.0434,-3.0423,-3.0419,-3.039,-3.041,-3.0398,-3.0299,-3.0066,-2.9867,-2.9718,-2.9453,-2.9156,-2.904,-2.8975,-2.8975,-2.8975,-2.8975,-2.8975,-2.8952,-2.8797,-2.8438,-2.801,-2.7648,-2.7348,-2.6791,-2.6708,-2.6708,-2.6708,-2.6708,-2.6708,-2.6708,-2.6708,-2.6708,-2.6691,-2.6297,-2.6016,-2.5837,-2.5092,-2.4256,-2.3794,-2.3638,-2.3406,-2.3187,-2.298,-2.2271,-2.1064,-2.0782,-2.0633,-2.0333,-1.9901,-2.0042,-2.0245,-2.0182,-2.0105,-1.9952,-1.9952,-1.9798,-1.9798,-1.9798,-1.9798,-1.9631,-1.9347,-1.8536,-1.7748,-1.6839,-1.5999,-1.5046,-1.3873,-1.2475,-1.1881,-1.1251,-1.0753,-1.0312,-1.0064,-0.9865,-0.9865,-0.9821,-0.9569,-3.6016,-3.6016,-3.6016,-3.6016,-3.6016,-3.6016,-3.6016,-3.6016,-3.6016,-3.6016,-3.6016,-3.6016,-3.6016,-3.6016,-3.6016,-3.6016,-3.6016,-3.6016,-3.6016,-3.6016,-3.6016,-3.6016,-3.6016,-3.5937,-3.5644,-3.5078,-3.3848,-3.3008,-3.2031,-3.1182,-3.0804,-3.0738,-3.0689,-3.0677,-3.0672,-3.0647,-3.0542,-3.0506,-3.0474,-3.0472,-3.043,-3.0402,-3.0398,-3.0367,-3.0155,-2.9943,-2.9912,-2.9589,-2.9295,-2.9104,-2.9052,-2.9085,-2.8998,-2.8975,-2.8975,-2.8975,-2.8975,-2.8626,-2.8201,-2.7897,-2.753,-2.6971,-2.6758,-2.6725,-2.6708,-2.6708,-2.6708,-2.6708,-2.6708,-2.6708,-2.6657,-2.6367,-2.6349,-2.6265,-2.5424,-2.443,-2.4158,-2.3991,-2.3879,-2.3752,-2.3767,-2.2921,-2.1582,-2.1161,-2.1051,-2.0683,-2.0245,-2.057,-2.0782,-2.0677,-2.0539,-2.0283,-2.0093,-1.985,-1.9798,-1.9798,-1.9798,-1.9747,-1.9475,-1.8972,-1.8195,-1.7362,-1.6612,-1.5763,-1.4542,-1.3284,-1.2735,-1.2118,-1.141,-1.0965,-1.0864,-1.072,-1.0415,-1.032,-1.0115,-3.6016,-3.6016,-3.6016,-3.6016,-3.6016,-3.6016,-3.6016,-3.6016,-3.6016,-3.6016,-3.6016,-3.5996,-3.5996,-3.6016,-3.6016,-3.6016,-3.6016,-3.6016,-3.6016,-3.6016,-3.6016,-3.6016,-3.6016,-3.6016,-3.5937,-3.5449,-3.418,-3.3027,-3.2246,-3.1367,-3.0879,-3.0859,-3.0859,-3.087,-3.0827,-3.0746,-3.0661,-3.0645,-3.0607,-3.054,-3.0472,-3.0439,-3.0414,-3.0323,-3.0182,-3.0094,-3.0148,-2.9859,-2.9514,-2.9167,-2.9256,-2.9243,-2.9062,-2.8975,-2.8975,-2.8975,-2.8952,-2.8815,-2.8368,-2.8102,-2.7783,-2.7286,-2.6987,-2.6758,-2.6758,-2.6758,-2.6758,-2.6708,-2.6708,-2.6708,-2.6708,-2.6624,-2.6671,-2.6383,-2.5799,-2.5192,-2.4871,-2.4241,-2.4116,-2.4074,-2.4006,-2.3084,-2.1932,-2.171,-2.1486,-2.1015,-2.0795,-2.1064,-2.1259,-2.1184,-2.0615,-2.0246,-2.0093,-1.9901,-1.9798,-1.9798,-1.985,-1.9798,-1.9643,-1.9371,-1.8737,-1.8012,-1.7025,-1.6051,-1.4978,-1.4321,-1.3955,-1.3198,-1.2127,-1.1715,-1.1756,-1.1308,-1.0762,-1.072,-1.083,-3.5871,-3.5947,-3.5976,-3.6016,-3.6016,-3.6016,-3.6016,-3.6016,-3.6016,-3.6016,-3.5996,-3.597,-3.5947,-3.5948,-3.5995,-3.6016,-3.6016,-3.5996,-3.5996,-3.5996,-3.5996,-3.6016,-3.6016,-3.6016,-3.6016,-3.5684,-3.4785,-3.3789,-3.2773,-3.1641,-3.0918,-3.0918,-3.0918,-3.0898,-3.0918,-3.084,-3.0782,-3.0708,-3.0628,-3.0561,-3.0496,-3.0463,-3.043,-3.039,-3.0267,-3.0303,-3.0276,-3.0072,-2.9895,-2.9701,-2.9662,-2.9332,-2.9203,-2.9089,-2.8975,-2.8975,-2.8975,-2.8797,-2.8446,-2.8246,-2.7974,-2.7736,-2.7439,-2.7334,-2.7115,-2.7036,-2.6906,-2.6725,-2.6691,-2.6708,-2.6691,-2.6708,-2.6723,-2.6457,-2.6016,-2.5659,-2.5259,-2.4712,-2.4323,-2.4282,-2.4101,-2.3288,-2.2577,-2.2331,-2.2053,-2.1534,-2.1403,-2.1643,-2.1724,-2.1718,-2.0921,-1.9965,-1.9901,-1.9798,-1.9798,-1.9798,-1.985,-1.985,-1.9798,-1.9527,-1.9359,-1.8637,-1.7676,-1.71,-1.6535,-1.5923,-1.5341,-1.4368,-1.3293,-1.2939,-1.2696,-1.2209,-1.1774,-1.1841,-1.1742,-3.573,-3.5827,-3.5896,-3.5909,-3.5929,-3.5929,-3.5918,-3.5918,-3.5918,-3.5918,-3.5925,-3.588,-3.5845,-3.5849,-3.5896,-3.5898,-3.5918,-3.5929,-3.5929,-3.593,-3.5953,-3.5976,-3.5976,-3.5976,-3.6016,-3.5996,-3.5039,-3.4141,-3.3144,-3.209,-3.123,-3.0937,-3.0918,-3.0918,-3.0918,-3.0898,-3.0836,-3.0767,-3.0669,-3.0598,-3.0561,-3.0505,-3.0472,-3.0449,-3.0421,-3.0407,-3.0379,-3.0237,-3.0213,-3.0061,-2.9829,-2.9551,-2.9373,-2.9225,-2.9067,-2.9021,-2.8975,-2.8887,-2.8633,-2.8464,-2.829,-2.8102,-2.7897,-2.7695,-2.7517,-2.7439,-2.7286,-2.6939,-2.6906,-2.6841,-2.6725,-2.6708,-2.6691,-2.6551,-2.6253,-2.5901,-2.5577,-2.5182,-2.4831,-2.4712,-2.4471,-2.3891,-2.3289,-2.3054,-2.2634,-2.21,-2.2053,-2.2221,-2.2189,-2.2109,-2.121,-2.0144,-2.0194,-2.0194,-2.0194,-2.0093,-2.0042,-1.9991,-1.994,-1.9798,-1.9579,-1.9226,-1.8507,-1.8119,-1.7785,-1.7635,-1.7203,-1.5802,-1.4503,-1.3962,-1.3486,-1.322,-1.2997,-1.292,-1.2304,-3.5611,-3.5631,-3.5702,-3.5729,-3.5729,-3.5723,-3.5729,-3.5741,-3.5735,-3.5735,-3.5755,-3.5723,-3.5723,-3.5723,-3.5755,-3.5747,-3.5729,-3.5704,-3.5741,-3.5802,-3.5841,-3.5884,-3.5896,-3.5937,-3.5976,-3.5859,-3.5215,-3.4375,-3.3457,-3.2656,-3.1719,-3.1016,-3.0976,-3.0937,-3.0918,-3.0898,-3.0898,-3.084,-3.0762,-3.0707,-3.0648,-3.0581,-3.0516,-3.0482,-3.0449,-3.0398,-3.0405,-3.0343,-3.0241,-3.0075,-2.9946,-2.9782,-2.9533,-2.9373,-2.9225,-2.9112,-2.9017,-2.8952,-2.8839,-2.8633,-2.8446,-2.8272,-2.8139,-2.7992,-2.7851,-2.7869,-2.7648,-2.7286,-2.721,-2.7019,-2.6841,-2.6708,-2.6708,-2.6606,-2.645,-2.6347,-2.6068,-2.5888,-2.5524,-2.5259,-2.4816,-2.4333,-2.4085,-2.3849,-2.3319,-2.2741,-2.2589,-2.2754,-2.2473,-2.2255,-2.1348,-2.0646,-2.0646,-2.0696,-2.0746,-2.0733,-2.072,-2.0521,-2.0333,-2.0144,-1.9901,-1.95,-1.9093,-1.8975,-1.866,-1.8859,-1.8794,-1.7287,-1.5966,-1.4844,-1.4199,-1.3876,-1.324,-1.2764,-1.2049,-3.5521,-3.5534,-3.5574,-3.5621,-3.5703,-3.5703,-3.5703,-3.5703,-3.5742,-3.5706,-3.5648,-3.5694,-3.5675,-3.5663,-3.5689,-3.5703,-3.5703,-3.5703,-3.5696,-3.571,-3.5761,-3.5766,-3.5788,-3.5797,-3.5801,-3.5756,-3.5381,-3.4889,-3.4082,-3.3256,-3.2426,-3.1738,-3.1208,-3.0957,-3.0918,-3.0918,-3.0918,-3.0898,-3.0859,-3.0793,-3.071,-3.0665,-3.0587,-3.0498,-3.0491,-3.0449,-3.0421,-3.041,-3.0304,-3.0203,-3.007,-2.9908,-2.9712,-2.9551,-2.9373,-2.9243,-2.9134,-2.904,-2.9017,-2.8863,-2.8773,-2.8767,-2.8651,-2.8456,-2.8255,-2.821,-2.802,-2.7765,-2.747,-2.7255,-2.7115,-2.6841,-2.6708,-2.6657,-2.6624,-2.659,-2.6487,-2.6262,-2.5997,-2.5615,-2.5297,-2.4934,-2.4776,-2.4617,-2.4017,-2.345,-2.3348,-2.3157,-2.2824,-2.2544,-2.1712,-2.1237,-2.1286,-2.1307,-2.1355,-2.1342,-2.1342,-2.1099,-2.0818,-2.0584,-2.0346,-1.9862,-1.9565,-1.951,-1.951,-1.9554,-1.9231,-1.8436,-1.742,-1.6299,-1.5213,-1.4398,-1.3603,-1.289,-1.2358,-3.5507,-3.5507,-3.5507,-3.5538,-3.5639,-3.5629,-3.5648,-3.5648,-3.5678,-3.566,-3.5566,-3.5631,-3.5621,-3.56,-3.5611,-3.5639,-3.5621,-3.563,-3.5639,-3.5657,-3.5666,-3.5671,-3.5675,-3.5696,-3.5729,-3.5703,-3.5645,-3.5243,-3.4413,-3.3907,-3.3195,-3.2377,-3.1621,-3.1269,-3.0918,-3.0918,-3.0918,-3.0918,-3.0898,-3.0859,-3.0769,-3.0716,-3.0677,-3.0568,-3.0552,-3.0524,-3.0492,-3.0452,-3.0449,-3.0356,-3.0253,-3.0103,-2.9924,-2.9763,-2.957,-2.9454,-2.9289,-2.9134,-2.9112,-2.904,-2.9017,-2.8929,-2.8952,-2.8791,-2.8676,-2.8583,-2.8412,-2.8075,-2.7776,-2.7577,-2.7444,-2.7068,-2.6825,-2.6741,-2.6691,-2.6624,-2.659,-2.6453,-2.6227,-2.5924,-2.5668,-2.5443,-2.5176,-2.4981,-2.4639,-2.4021,-2.3595,-2.3319,-2.2931,-2.2626,-2.2324,-2.2002,-2.1908,-2.1974,-2.1993,-2.2007,-2.2007,-2.1819,-2.1534,-2.121,-2.0868,-2.0434,-1.9977,-1.9711,-1.9799,-2.0105,-2.0014,-1.9667,-1.8758,-1.7663,-1.6515,-1.5306,-1.5078,-1.4471,-1.3811,-3.5507,-3.5507,-3.5507,-3.5501,-3.5509,-3.5501,-3.5515,-3.5515,-3.5541,-3.5528,-3.5515,-3.5522,-3.5522,-3.5515,-3.5528,-3.554,-3.554,-3.5515,-3.5515,-3.5546,-3.5588,-3.5611,-3.5631,-3.5657,-3.5655,-3.5696,-3.5628,-3.5274,-3.4598,-3.4321,-3.3803,-3.3102,-3.2259,-3.1504,-3.0976,-3.0918,-3.0918,-3.0918,-3.0918,-3.0898,-3.0858,-3.0771,-3.0716,-3.0669,-3.0628,-3.0587,-3.0559,-3.0532,-3.049,-3.0443,-3.0389,-3.0253,-3.0061,-2.9984,-2.9845,-2.9677,-2.9513,-2.9394,-2.9392,-2.9156,-2.9044,-2.8998,-2.8975,-2.8952,-2.8952,-2.8929,-2.8943,-2.8673,-2.847,-2.8152,-2.7736,-2.7411,-2.7308,-2.7247,-2.7216,-2.7148,-2.7181,-2.7164,-2.7054,-2.7014,-2.6416,-2.5917,-2.5567,-2.5278,-2.51,-2.4605,-2.3994,-2.348,-2.3127,-2.2888,-2.2754,-2.2709,-2.2603,-2.2634,-2.2665,-2.268,-2.2649,-2.2498,-2.2346,-2.2086,-2.1697,-2.1315,-2.0818,-2.017,-2.032,-2.0766,-2.1015,-2.1094,-1.9966,-1.8747,-1.7364,-1.6405,-1.6282,-1.5859,-1.5038,-3.5507,-3.5507,-3.5507,-3.5507,-3.5507,-3.5507,-3.5507,-3.5507,-3.5507,-3.5507,-3.5507,-3.5507,-3.5507,-3.5507,-3.5507,-3.5507,-3.5507,-3.5507,-3.5507,-3.5501,-3.5547,-3.5547,-3.5546,-3.5574,-3.5577,-3.5554,-3.5535,-3.5499,-3.5183,-3.4759,-3.4351,-3.3719,-3.274,-3.1601,-3.1094,-3.0918,-3.0918,-3.0918,-3.0918,-3.0918,-3.0879,-3.0859,-3.0792,-3.0718,-3.07,-3.0657,-3.0623,-3.0601,-3.0547,-3.0513,-3.0472,-3.04,-3.0228,-3.0163,-2.9984,-2.9861,-2.9713,-2.9607,-2.9533,-2.9395,-2.92,-2.9108,-2.9017,-2.9017,-2.9012,-2.8994,-2.9143,-2.943,-2.9326,-2.9305,-2.964,-2.9113,-2.8864,-2.8766,-2.8682,-2.8455,-2.8383,-2.8366,-2.8328,-2.8325,-2.7981,-2.7813,-2.7494,-2.6688,-2.6237,-2.5782,-2.523,-2.4128,-2.3538,-2.3451,-2.3334,-2.329,-2.3231,-2.329,-2.3334,-2.3435,-2.3593,-2.3606,-2.3375,-2.3054,-2.2684,-2.2338,-2.1676,-2.1093,-2.1274,-2.1513,-2.1636,-2.1589,-2.0877,-1.9747,-1.8623,-1.7461,-1.6919,-1.6457,-1.5802,-3.5507,-3.5507,-3.5507,-3.5507,-3.5507,-3.5507,-3.5507,-3.5507,-3.5507,-3.5507,-3.5507,-3.5507,-3.5507,-3.5507,-3.5507,-3.5507,-3.5507,-3.5507,-3.5507,-3.5507,-3.5488,-3.5501,-3.5488,-3.5507,-3.5509,-3.5507,-3.5507,-3.5482,-3.5418,-3.4974,-3.456,-3.4061,-3.3244,-3.2349,-3.1621,-3.1094,-3.0859,-3.0879,-3.0918,-3.0918,-3.0918,-3.0898,-3.0859,-3.0793,-3.0767,-3.076,-3.0716,-3.0672,-3.0623,-3.0568,-3.0521,-3.0491,-3.0389,-3.0273,-3.0131,-3.0095,-2.9958,-2.9799,-2.9661,-2.9588,-2.9566,-2.9818,-2.9341,-2.9182,-2.9324,-2.9512,-2.9953,-3.0222,-3.0279,-3.0495,-3.071,-3.0225,-3.0103,-2.9974,-2.9726,-2.9506,-2.9455,-2.9472,-2.9438,-2.9454,-2.9471,-2.9454,-2.9225,-2.8404,-2.7616,-2.7077,-2.6477,-2.5334,-2.4227,-2.4139,-2.4009,-2.3879,-2.3991,-2.4142,-2.4184,-2.4266,-2.443,-2.4632,-2.4399,-2.4039,-2.3884,-2.3528,-2.2776,-2.2171,-2.2374,-2.2486,-2.2292,-2.1963,-2.1588,-2.1097,-2.0373,-1.9119,-1.779,-1.7369,-1.7151,-3.5507,-3.5507,-3.5507,-3.5507,-3.5507,-3.5507,-3.5507,-3.5507,-3.5507,-3.5507,-3.5507,-3.5507,-3.5507,-3.5507,-3.5507,-3.5507,-3.5507,-3.5507,-3.5507,-3.5507,-3.5507,-3.5507,-3.5507,-3.5507,-3.5507,-3.5507,-3.5507,-3.5507,-3.5507,-3.5322,-3.4955,-3.453,-3.4098,-3.3234,-3.2312,-3.1436,-3.1047,-3.0898,-3.0859,-3.0859,-3.0859,-3.0898,-3.0898,-3.0879,-3.0879,-3.0879,-3.084,-3.0786,-3.0716,-3.0637,-3.0568,-3.0529,-3.0482,-3.043,-3.0414,-3.033,-3.0122,-2.9973,-2.9851,-2.982,-3.0203,-3.049,-2.9967,-2.9839,-3.0018,-3.0341,-3.0746,-3.1134,-3.1327,-3.1263,-3.1192,-3.1078,-3.0987,-3.082,-3.0588,-3.0508,-3.0476,-3.0459,-3.0476,-3.048,-3.0501,-3.039,-3.0024,-2.9363,-2.8797,-2.8344,-2.7717,-2.6805,-2.5823,-2.5123,-2.4907,-2.4471,-2.4672,-2.4989,-2.5028,-2.4871,-2.5028,-2.5144,-2.5221,-2.4957,-2.4886,-2.4682,-2.4076,-2.3618,-2.3556,-2.3447,-2.3187,-2.2965,-2.2743,-2.2207,-2.1681,-2.0791,-1.9466,-1.9459,-1.9334,-3.5507,-3.5507,-3.5507,-3.5507,-3.5507,-3.5507,-3.5507,-3.5507,-3.5507,-3.5507,-3.5507,-3.5507,-3.5507,-3.5507,-3.5507,-3.5507,-3.5507,-3.5507,-3.5507,-3.5507,-3.5507,-3.5507,-3.5507,-3.5507,-3.5507,-3.5507,-3.5507,-3.5507,-3.5507,-3.5507,-3.5468,-3.5175,-3.4615,-3.3961,-3.32,-3.2202,-3.1495,-3.0915,-3.0888,-3.0767,-3.0793,-3.0838,-3.0879,-3.0898,-3.0918,-3.0918,-3.0898,-3.0879,-3.0801,-3.069,-3.0669,-3.0623,-3.0498,-3.0482,-3.0462,-3.039,-3.0311,-3.026,-3.0284,-3.059,-3.1023,-3.139,-3.1204,-3.1291,-3.1368,-3.144,-3.1686,-3.2029,-3.2272,-3.2208,-3.232,-3.23,-3.2169,-3.2036,-3.1841,-3.1701,-3.1719,-3.1719,-3.1719,-3.1671,-3.1689,-3.1452,-3.1043,-3.0473,-2.9911,-2.9512,-2.8958,-2.8136,-2.7257,-2.6519,-2.5828,-2.5376,-2.5205,-2.5524,-2.5335,-2.5166,-2.5449,-2.5652,-2.5689,-2.5762,-2.5656,-2.5422,-2.5185,-2.4877,-2.4538,-2.4287,-2.4059,-2.3846,-2.3658,-2.34,-2.2907,-2.2055,-2.1329,-2.1129,-2.0792,-3.5507,-3.5507,-3.5507,-3.5507,-3.5507,-3.5507,-3.5507,-3.5507,-3.5507,-3.5507,-3.5507,-3.5507,-3.5507,-3.5507,-3.5507,-3.5507,-3.5507,-3.5507,-3.5507,-3.5507,-3.5474,-3.5507,-3.5507,-3.5474,-3.5507,-3.5507,-3.5507,-3.5507,-3.5507,-3.5507,-3.5468,-3.5411,-3.4872,-3.4558,-3.4002,-3.3216,-3.2435,-3.167,-3.1092,-3.0782,-3.0735,-3.079,-3.0817,-3.0879,-3.0898,-3.0918,-3.0918,-3.0918,-3.0859,-3.0762,-3.0745,-3.0673,-3.0561,-3.0525,-3.049,-3.0441,-3.0402,-3.0629,-3.0899,-3.1213,-3.1747,-3.2312,-3.2737,-3.2988,-3.2825,-3.2753,-3.2892,-3.3093,-3.3103,-3.3193,-3.3405,-3.3588,-3.3468,-3.3364,-3.3183,-3.2985,-3.3003,-3.3003,-3.2985,-3.2937,-3.2796,-3.257,-3.2168,-3.1532,-3.1079,-3.0737,-3.0285,-2.9626,-2.8615,-2.7653,-2.6907,-2.6298,-2.6024,-2.598,-2.5799,-2.5762,-2.5983,-2.6229,-2.621,-2.6245,-2.6297,-2.6123,-2.5859,-2.555,-2.5281,-2.4973,-2.4697,-2.4665,-2.4538,-2.4356,-2.4244,-2.3679,-2.282,-2.1941,-2.1622,-3.5412,-3.5412,-3.5446,-3.546,-3.5507,-3.5507,-3.5507,-3.5474,-3.546,-3.546,-3.5446,-3.5493,-3.546,-3.5412,-3.546,-3.5474,-3.5507,-3.5507,-3.5507,-3.5474,-3.5398,-3.5412,-3.5474,-3.546,-3.5446,-3.546,-3.5507,-3.5507,-3.5507,-3.5507,-3.5507,-3.5507,-3.543,-3.5078,-3.4526,-3.4064,-3.3395,-3.2797,-3.1784,-3.1113,-3.0895,-3.0827,-3.0747,-3.0858,-3.0898,-3.0918,-3.0918,-3.0918,-3.0918,-3.0859,-3.0814,-3.074,-3.0661,-3.0587,-3.0529,-3.0643,-3.0656,-3.0865,-3.1383,-3.1838,-3.2756,-3.3506,-3.4237,-3.4366,-3.416,-3.371,-3.3721,-3.3653,-3.3647,-3.354,-3.368,-3.3707,-3.368,-3.3652,-3.355,-3.3447,-3.3447,-3.3447,-3.3447,-3.3419,-3.3314,-3.3087,-3.2805,-3.2178,-3.1895,-3.1723,-3.1472,-3.0868,-3.0214,-2.9085,-2.8202,-2.7457,-2.7069,-2.691,-2.6843,-2.6826,-2.6741,-2.6841,-2.6791,-2.6724,-2.6724,-2.6624,-2.6521,-2.6087,-2.5672,-2.5524,-2.5297,-2.5379,-2.5533,-2.5717,-2.5558,-2.526,-2.446,-2.3453,-2.2731,-3.487,-3.4908,-3.5105,-3.5304,-3.5493,-3.5507,-3.5474,-3.5479,-3.5273,-3.5207,-3.5223,-3.5369,-3.5369,-3.5223,-3.5369,-3.5432,-3.5446,-3.5383,-3.5474,-3.5383,-3.5289,-3.5289,-3.5383,-3.5273,-3.5304,-3.5446,-3.5507,-3.5474,-3.5507,-3.5507,-3.5507,-3.5507,-3.5507,-3.5257,-3.5045,-3.4641,-3.4097,-3.3789,-3.2899,-3.2,-3.1685,-3.1047,-3.0721,-3.0792,-3.082,-3.0879,-3.0898,-3.0918,-3.0918,-3.0898,-3.0879,-3.0793,-3.0693,-3.0608,-3.0581,-3.0665,-3.1072,-3.1261,-3.1594,-3.2454,-3.3619,-3.4058,-3.4597,-3.5076,-3.5101,-3.4586,-3.4242,-3.4167,-3.4018,-3.3902,-3.3807,-3.3807,-3.3807,-3.3807,-3.3807,-3.3807,-3.3807,-3.3807,-3.3807,-3.3753,-3.368,-3.3494,-3.3243,-3.2983,-3.2713,-3.25,-3.2332,-3.2003,-3.1707,-3.0853,-2.985,-2.9039,-2.8271,-2.8011,-2.7885,-2.7722,-2.7563,-2.7478,-2.7409,-2.7317,-2.721,-2.6954,-2.6708,-2.6385,-2.6068,-2.5999,-2.6071,-2.6229,-2.6437,-2.6674,-2.6573,-2.6182,-2.6132,-2.5379,-2.4563,-3.4694,-3.4733,-3.487,-3.5088,-3.5289,-3.532,-3.5383,-3.5465,-3.5335,-3.5138,-3.4944,-3.507,-3.5051,-3.4926,-3.5088,-3.5174,-3.5174,-3.5138,-3.5105,-3.5051,-3.5053,-3.5035,-3.5035,-3.5018,-3.5018,-3.5138,-3.5289,-3.5354,-3.5432,-3.5507,-3.5507,-3.5474,-3.5474,-3.5474,-3.5416,-3.4968,-3.4718,-3.4718,-3.3891,-3.3249,-3.2636,-3.188,-3.1012,-3.0898,-3.0769,-3.0856,-3.0898,-3.0918,-3.0918,-3.0918,-3.0898,-3.0859,-3.0771,-3.0703,-3.0637,-3.0857,-3.1265,-3.1735,-3.2023,-3.2981,-3.442,-3.4754,-3.4986,-3.5488,-3.5393,-3.4901,-3.4641,-3.4489,-3.4176,-3.4043,-3.3868,-3.3807,-3.3807,-3.3807,-3.3807,-3.3807,-3.3807,-3.3807,-3.3807,-3.3807,-3.3734,-3.3707,-3.3447,-3.3243,-3.2983,-3.284,-3.2745,-3.255,-3.2388,-3.2375,-3.1419,-3.0693,-2.9919,-2.9029,-2.8588,-2.8416,-2.8247,-2.8152,-2.8124,-2.7783,-2.7577,-2.721,-2.6889,-2.6774,-2.6707,-2.674,-2.6839,-2.6922,-2.7129,-2.7361,-2.7251,-2.7029,-2.7057,-2.7068,-2.6387,-3.4591,-3.4632,-3.4632,-3.4793,-3.5016,-3.5053,-3.5174,-3.5335,-3.532,-3.5051,-3.4653,-3.4591,-3.4612,-3.4632,-3.4694,-3.4694,-3.4734,-3.4851,-3.4774,-3.4734,-3.4674,-3.4754,-3.4754,-3.4674,-3.4734,-3.4813,-3.4963,-3.5138,-3.5289,-3.5304,-3.5304,-3.5417,-3.5446,-3.546,-3.5474,-3.5468,-3.5372,-3.5199,-3.4699,-3.4314,-3.3619,-3.278,-3.1778,-3.1149,-3.0863,-3.088,-3.0898,-3.0879,-3.0879,-3.0898,-3.0898,-3.0898,-3.0859,-3.081,-3.0982,-3.1184,-3.1874,-3.2231,-3.2628,-3.3829,-3.4804,-3.5387,-3.5573,-3.5568,-3.5464,-3.5321,-3.5045,-3.4756,-3.443,-3.42,-3.4037,-3.3947,-3.3947,-3.3868,-3.3868,-3.3834,-3.3834,-3.3834,-3.3834,-3.3834,-3.3834,-3.3815,-3.3662,-3.3437,-3.3332,-3.3166,-3.3045,-3.2809,-3.2709,-3.284,-3.2504,-3.2089,-3.1619,-3.0713,-2.9792,-2.9444,-2.9394,-2.9179,-2.9116,-2.8487,-2.7943,-2.7607,-2.7409,-2.7365,-2.7348,-2.7317,-2.7409,-2.75,-2.7754,-2.7982,-2.7707,-2.7525,-2.7855,-2.7893,-2.7911,-3.4111,-3.4311,-3.4311,-3.4486,-3.4754,-3.4774,-3.4793,-3.4793,-3.4595,-3.436,-3.4311,-3.4093,-3.4068,-3.4292,-3.4612,-3.4653,-3.4551,-3.4591,-3.4674,-3.4694,-3.442,-3.4486,-3.4529,-3.4398,-3.4486,-3.4614,-3.4734,-3.4812,-3.4999,-3.4963,-3.4981,-3.5174,-3.519,-3.5289,-3.5493,-3.5493,-3.5468,-3.5372,-3.5295,-3.4911,-3.4161,-3.3319,-3.2474,-3.195,-3.1657,-3.122,-3.0898,-3.0723,-3.0723,-3.0762,-3.0859,-3.0937,-3.1035,-3.1094,-3.1309,-3.1934,-3.2617,-3.2887,-3.3539,-3.4605,-3.5466,-3.5735,-3.5803,-3.5666,-3.5602,-3.5582,-3.5335,-3.5078,-3.4813,-3.4617,-3.4467,-3.4461,-3.4416,-3.4104,-3.3988,-3.3961,-3.3921,-3.3921,-3.3921,-3.3921,-3.3921,-3.3876,-3.3823,-3.3689,-3.3689,-3.356,-3.355,-3.3361,-3.3314,-3.34,-3.3486,-3.3249,-3.2994,-3.2534,-3.1657,-3.101,-3.0786,-3.0513,-3.0079,-2.9493,-2.8809,-2.8073,-2.7869,-2.7811,-2.7783,-2.7765,-2.7869,-2.7974,-2.8166,-2.8316,-2.8037,-2.7954,-2.8386,-2.8646,-2.8591]},{"header":{"parameterUnit":"m.s-1","parameterCategory":1,"la1":31.0,"la2":29.5877,"lo1":-88.7671,"lo2":-86.6584,"dy":0.0162,"dx":0.0185,"nx":115,"ny":88,"refTime":"2024-04-30T18:00:00:Z","depth":0,"parameterNumber":3,"parameterNumberName":"V-component_of_WINDS"},"data":[0.0,0.0,0.0,0.0,0.0,0.0,0.0,0.0,0.0,0.0,0.0,0.0,0.0,0.0,0.0,0.0,0.0,0.0,0.0,0.0,0.0,0.0,0.0,0.0,0.0,0.0,0.0,0.0,0.0,0.0,0.0,0.0,0.0,0.0,0.0,0.0,0.0,0.0,0.0,0.0,0.0,0.0,0.0,0.0,0.0,0.0,0.0,0.0,0.0,0.0,0.0,0.0,0.0,0.0,0.0,0.0,0.0,0.0,0.0,0.0,0.0,0.0,0.0,0.0,0.0,0.0,0.0,0.0,0.0,0.0,0.0,0.0,0.0,0.0,0.0,0.0,0.0,0.0,0.0,0.0,0.0,0.0,0.0,0.0,0.0,0.0,0.0,0.0,0.0,0.0,0.0,0.0,0.0,0.0,0.0,0.0,0.0,0.0,0.0,0.0,0.0,0.0,0.0,0.0,0.0,0.0,0.0,0.0,0.0,0.0,0.0,0.0,0.0,0.0,0.0,0.0,0.0,0.0,0.0,0.0,0.0,0.0,0.0,0.0,0.0,0.0,0.0,0.0,0.0,0.0,0.0,0.0,0.0,0.0,0.0,0.0,0.0,0.0,0.0,0.0,0.0,0.0,0.0,0.0,0.0,0.0,0.0,0.0,0.0,0.0,0.0,0.0,0.0,0.0,0.0,0.0,0.0,0.0,0.0,0.0,0.0,0.0,0.0,0.0,0.0,0.0,0.0,0.0,0.0,0.0,0.0,0.0,0.0,0.0,0.0,0.0,0.0,0.0,0.0,0.0,0.0,0.0,0.0,0.0,0.0,0.0,0.0,0.0,0.0,0.0,0.0,0.0,0.0,0.0,0.0,0.0,0.0,0.0,0.0,0.0,0.0,0.0,0.0,0.0,0.0,0.0,0.0,0.0,0.0,0.0,0.0,0.0,0.0,0.0,0.0,0.0,0.0,0.0,0.0,0.0,0.0,0.0,0.0,0.0,0.0,0.0,0.0,0.0,0.0,0.0,0.0,0.0,0.0,0.0,0.0,0.0,0.0,0.0,0.0,0.0,0.0,0.0,0.0,0.0,0.0,0.0,0.0,0.0,0.0,0.0,0.0,0.0,0.0,0.0,0.0,0.0,0.0,0.0,0.0,0.0,0.0,0.0,0.0,0.0,0.0,0.0,0.0,0.0,0.0,0.0,0.0,0.0,0.0,0.0,0.0,0.0,0.0,0.0,0.0,0.0,0.0,0.0,0.0,0.0,0.0,0.0,0.0,0.0,0.0,0.0,0.0,0.0,0.0,0.0,0.0,0.0,0.0,0.0,0.0,0.0,0.0,0.0,0.0,0.0,0.0,0.0,0.0,0.0,0.0,0.0,0.0,0.0,0.0,0.0,0.0,0.0,0.0,0.0,0.0,0.0,0.0,0.0,0.0,0.0,0.0,0.0,0.0,0.0,0.0,0.0,0.0,0.0,0.0,0.0,0.0,0.0,0.0,0.0,0.0,0.0,0.0,0.0,0.0,0.0,0.0,0.0,0.0,0.0,0.0,0.0,0.0,0.0,0.0,0.0,0.0,0.0,0.0,0.0,0.0,0.0,0.0,0.0,0.0,0.0,0.0,0.0,0.0,0.0,0.0,0.0,0.0,0.0,0.0,0.0,0.0,0.0,0.0,0.0,0.0,0.0,0.0,0.0,0.0,0.0,0.0,0.0,0.0,0.0,0.0,0.0,0.0,0.0,0.0,0.0,0.0,0.0,0.0,0.0,0.0,0.0,0.0,0.0,0.0,0.0,0.0,0.0,0.0,0.0,0.0,0.0,0.0,0.0,0.0,0.0,0.0,0.0,0.0,0.0,0.0,0.0,0.0,0.0,0.0,0.0,0.0,0.0,0.0,0.0,0.0,0.0,0.0,0.0,0.0,0.0,0.0,0.0,0.0,0.0,0.0,0.0,0.0,0.0,0.0,0.0,0.0,0.0,0.0,0.0,0.0,0.0,0.0,0.0,0.0,0.0,0.0,0.0,0.0,0.0,0.0,0.0,0.0,0.0,0.0,0.0,0.0,0.0,0.0,0.0,0.0,0.0,0.0,0.0,0.0,0.0,0.0,0.0,0.0,0.0,0.0,0.0,0.0,0.0,0.0,0.0,0.0,0.0,0.0,0.0,0.0,0.0,0.0,0.0,0.0,0.0,0.0,0.0,0.0,0.0,0.0,0.0,0.0,0.0,0.0,0.0,0.0,0.0,0.0,0.0,0.0,0.0,0.0,0.0,0.0,0.0,0.0,0.0,0.0,0.0,0.0,0.0,0.0,0.0,0.0,0.0,0.0,0.0,0.0,0.0,0.0,0.0,0.0,0.0,0.0,0.0,0.0,0.0,0.0,0.0,0.0,0.0,0.0,0.0,0.0,0.0,0.0,0.0,0.0,0.0,0.0,0.0,0.0,0.0,0.0,0.0,0.0,0.0,0.0,0.0,0.0,0.0,0.0,0.0,0.0,0.0,0.0,0.0,0.0,0.0,0.0,0.0,0.0,0.0,0.0,0.0,0.0,0.0,0.0,0.0,0.0,0.0,0.0,0.0,0.0,0.0,0.0,0.0,0.0,0.0,0.0,0.0,0.0,0.0,0.0,0.0,0.0,0.0,0.0,0.0,0.0,0.0,0.0,0.0,0.0,0.0,0.0,0.0,0.0,0.0,0.0,0.0,0.0,0.0,0.0,0.0,0.0,0.0,0.0,0.0,0.0,0.0,0.0,0.0,0.0,0.0,0.0,0.0,0.0,0.0,0.0,0.0,0.0,0.0,0.0,0.0,0.0,0.0,0.0,0.0,0.0,0.0,0.0,0.0,0.0,0.0,0.0,0.0,0.0,0.0,0.0,0.0,0.0,0.0,0.0,0.0,0.0,0.0,0.0,0.0,0.0,0.0,0.0,0.0,0.0,0.0,0.0,0.0,0.0,0.0,0.0,0.0,0.0,0.0,0.0,0.0,0.0,0.0,0.0,0.0,0.0,0.0,0.0,0.0,0.0,0.0,0.0,0.0,0.0,0.0,0.0,0.0,0.0,0.0,0.0,0.0,0.0,0.0,0.0,0.0,0.0,0.0,0.0,0.0,0.0,0.0,0.0,0.0,0.0,0.0,0.0,0.0,0.0,0.0,0.0,0.0,0.0,0.0,0.0,0.0,0.0,0.0,0.0,0.0,0.0,0.0,0.0,0.0,0.0,0.0,0.0,0.0,0.0,0.0,0.0,0.0,0.0,0.0,0.0,0.0,0.0,0.0,0.0,0.0,0.0,0.0,0.0,0.0,0.0,0.0,0.0,0.0,0.0,0.0,0.0,0.0,0.0,0.0,0.0,0.0,0.0,0.0,0.0,0.0,0.0,0.0,0.0,0.0,0.0,0.0,0.0,0.0,0.0,0.0,0.0,0.0,0.0,0.0,0.0,0.0,0.0,0.0,0.0,0.0,0.0,0.0,0.0,0.0,0.0,0.0,0.0,0.0,0.0,0.0,0.0,0.0,0.0,0.0,0.0,0.0,0.0,0.0,0.0,0.0,0.0,0.0,0.0,0.0,0.0,0.0,0.0,0.0,0.0,0.0,0.0,0.0,0.0,0.0,0.0,0.0,0.0,0.0,0.0,0.0,0.0,0.0,0.0,0.0,0.0,0.0,0.0,0.0,0.0,0.0,0.0,0.0,0.0,0.0,0.0,0.0,0.0,0.0,0.0,0.0,0.0,0.0,0.0,0.0,0.0,0.0,0.0,0.0,0.0,0.0,0.0,0.0,0.0,0.0,0.0,0.0,0.0,0.0,0.0,0.0,0.0,0.0,0.0,0.0,0.0,0.0,0.0,0.0,0.0,0.0,0.0,0.0,0.0,0.0,0.0,0.0,0.0,0.0,0.0,0.0,0.0,0.0,0.0,0.0,0.0,0.0,0.0,0.0,0.0,0.0,0.0,0.0,0.0,0.0,0.0,0.0,0.0,0.0,0.0,0.0,0.0,0.0,0.0,0.0,0.0,0.0,0.0,0.0,0.0,0.0,0.0,0.0,0.0,0.0,0.0,0.0,0.0,0.0,0.0,0.0,0.0,0.0,0.0,0.0,0.0,0.0,0.0,0.0,0.0,0.0,0.0,0.0,0.0,0.0,0.0,0.0,0.0,0.0,0.0,0.0,0.0,0.0,0.0,0.0,0.0,0.0,0.0,0.0,0.0,0.0,0.0,0.0,0.0,0.0,0.0,0.0,0.0,0.0,0.0,0.0,0.0,0.0,0.0,0.0,-1.1826,0.0,0.0,0.0,0.0,0.0,0.0,0.0,0.0,0.0,0.0,0.0,0.0,0.0,0.0,0.0,0.0,0.0,0.0,0.0,0.0,0.0,0.0,0.0,0.0,0.0,0.0,0.0,0.0,0.0,0.0,0.0,0.0,0.0,0.0,0.0,0.0,0.0,0.0,0.0,0.0,0.0,0.0,0.0,0.0,0.0,0.0,0.0,0.0,0.0,0.0,0.0,0.0,0.0,0.0,0.0,0.0,0.0,0.0,0.0,0.0,0.0,0.0,0.0,0.0,0.0,0.0,0.0,0.0,0.0,0.0,0.0,0.0,0.0,0.0,0.0,0.0,0.0,0.0,0.0,0.0,0.0,0.0,0.0,0.0,0.0,0.0,0.0,0.0,0.0,0.0,0.0,0.0,0.0,0.0,0.0,0.0,0.0,0.0,0.0,0.0,0.0,0.0,0.0,0.0,0.0,0.0,0.0,0.0,0.0,0.0,-1.1955,-1.1826,-1.1955,-1.1955,-1.1826,0.0,0.0,0.0,0.0,0.0,0.0,0.0,0.0,0.0,0.0,0.0,0.0,0.0,0.0,0.0,0.0,0.0,0.0,0.0,0.0,0.0,0.0,0.0,0.0,0.0,0.0,0.0,0.0,0.0,0.0,0.0,0.0,0.0,0.0,0.0,0.0,0.0,0.0,0.0,0.0,0.0,0.0,0.0,0.0,0.0,0.0,0.0,0.0,0.0,0.0,0.0,0.0,0.0,0.0,0.0,0.0,0.0,0.0,0.0,0.0,0.0,0.0,0.0,0.0,0.0,0.0,0.0,0.0,0.0,0.0,0.0,0.0,0.0,0.0,0.0,0.0,0.0,0.0,0.0,0.0,0.0,0.0,0.0,0.0,0.0,0.0,0.0,0.0,0.0,0.0,0.0,0.0,0.0,0.0,0.0,0.0,0.0,0.0,0.0,0.0,0.0,0.0,0.0,0.0,0.0,0.0,0.0,0.0,0.0,0.0,0.0,0.0,-1.2024,-1.2018,-1.1826,0.0,0.0,0.0,0.0,0.0,0.0,0.0,0.0,0.0,0.0,0.0,0.0,0.0,0.0,0.0,0.0,0.0,0.0,0.0,0.0,0.0,0.0,0.0,0.0,0.0,0.0,0.0,0.0,0.0,0.0,0.0,0.0,0.0,0.0,0.0,0.0,0.0,0.0,0.0,0.0,0.0,0.0,0.0,0.0,0.0,0.0,0.0,0.0,0.0,0.0,0.0,0.0,0.0,0.0,0.0,0.0,0.0,0.0,0.0,0.0,0.0,0.0,0.0,0.0,0.0,0.0,0.0,0.0,0.0,0.0,0.0,0.0,0.0,0.0,0.0,0.0,0.0,0.0,0.0,0.0,0.0,0.0,0.0,0.0,0.0,0.0,0.0,0.0,0.0,0.0,0.0,0.0,0.0,0.0,0.0,0.0,0.0,0.0,0.0,0.0,0.0,0.0,0.0,0.0,0.0,0.0,0.0,0.0,0.0,0.0,-1.194,-1.2164,-1.194,0.0,-1.1826,0.0,0.0,0.0,0.0,0.0,0.0,0.0,0.0,0.0,0.0,0.0,0.0,0.0,0.0,0.0,0.0,0.0,0.0,0.0,0.0,0.0,0.0,0.0,0.0,0.0,0.0,0.0,0.0,0.0,0.0,0.0,0.0,0.0,0.0,0.0,0.0,0.0,0.0,0.0,0.0,0.0,0.0,0.0,0.0,0.0,0.0,0.0,0.0,0.0,0.0,0.0,0.0,0.0,0.0,0.0,0.0,0.0,0.0,0.0,0.0,0.0,0.0,0.0,0.0,0.0,0.0,0.0,0.0,0.0,0.0,0.0,0.0,0.0,0.0,0.0,0.0,0.0,0.0,0.0,0.0,0.0,0.0,0.0,0.0,0.0,0.0,0.0,0.0,0.0,0.0,0.0,0.0,0.0,0.0,0.0,0.0,0.0,0.0,0.0,0.0,0.0,0.0,0.0,0.0,0.0,0.0,0.0,0.0,0.0,0.0,-1.2102,-1.2205,-1.1933,-1.1878,0.0,0.0,0.0,0.0,0.0,0.0,0.0,0.0,0.0,0.0,0.0,0.0,0.0,0.0,0.0,0.0,0.0,0.0,0.0,0.0,0.0,0.0,0.0,0.0,0.0,0.0,0.0,0.0,0.0,0.0,0.0,0.0,0.0,0.0,0.0,0.0,0.0,0.0,0.0,0.0,0.0,0.0,0.0,0.0,0.0,0.0,0.0,0.0,0.0,0.0,0.0,0.0,0.0,0.0,0.0,0.0,0.0,0.0,0.0,0.0,0.0,0.0,0.0,0.0,0.0,0.0,0.0,0.0,0.0,0.0,0.0,0.0,0.0,0.0,0.0,0.0,0.0,0.0,0.0,0.0,0.0,0.0,0.0,0.0,0.0,0.0,0.0,0.0,0.0,0.0,0.0,0.0,0.0,0.0,0.0,0.0,0.0,0.0,0.0,0.0,0.0,0.0,0.0,0.0,0.0,0.0,0.0,0.0,0.0,0.0,-1.2246,-1.2205,-1.2205,-1.2003,-1.1957,-1.2085,0.0,0.0,0.0,0.0,0.0,0.0,0.0,0.0,0.0,0.0,0.0,0.0,0.0,0.0,0.0,0.0,0.0,0.0,0.0,0.0,0.0,0.0,0.0,0.0,0.0,0.0,0.0,0.0,0.0,0.0,0.0,0.0,0.0,0.0,0.0,0.0,0.0,0.0,0.0,0.0,0.0,0.0,0.0,0.0,0.0,0.0,0.0,0.0,0.0,0.0,0.0,0.0,0.0,0.0,0.0,0.0,0.0,0.0,0.0,0.0,0.0,0.0,0.0,0.0,0.0,0.0,0.0,0.0,0.0,0.0,0.0,0.0,0.0,0.0,0.0,0.0,0.0,0.0,0.0,0.0,0.0,0.0,0.0,0.0,0.0,0.0,0.0,0.0,0.0,0.0,0.0,0.0,0.0,0.0,0.0,0.0,0.0,0.0,0.0,0.0,0.0,0.0,0.0,0.0,0.0,0.0,0.0,0.0,-1.2569,-1.2368,-1.2241,-1.2277,-1.2185,-1.206,0.0,0.0,0.0,0.0,0.0,0.0,0.0,0.0,0.0,0.0,0.0,0.0,0.0,0.0,0.0,0.0,0.0,0.0,0.0,0.0,0.0,0.0,0.0,0.0,0.0,0.0,0.0,0.0,0.0,0.0,0.0,0.0,0.0,0.0,0.0,0.0,0.0,0.0,0.0,0.0,0.0,0.0,0.0,0.0,0.0,0.0,0.0,0.0,0.0,0.0,0.0,0.0,0.0,0.0,0.0,0.0,0.0,0.0,0.0,0.0,0.0,0.0,0.0,0.0,0.0,0.0,0.0,0.0,0.0,0.0,0.0,0.0,0.0,0.0,0.0,0.0,0.0,0.0,0.0,0.0,0.0,0.0,0.0,0.0,0.0,0.0,0.0,0.0,0.0,0.0,0.0,0.0,0.0,0.0,0.0,0.0,0.0,0.0,0.0,0.0,0.0,0.0,0.0,0.0,0.0,0.0,0.0,0.0,0.0,-1.393,-1.4057,-1.4218,-1.436,-1.3849,-1.3399,0.0,0.0,0.0,0.0,0.0,0.0,0.0,0.0,0.0,0.0,0.0,0.0,0.0,0.0,0.0,0.0,0.0,0.0,0.0,0.0,0.0,0.0,0.0,0.0,0.0,0.0,0.0,0.0,0.0,0.0,0.0,0.0,0.0,0.0,0.0,0.0,0.0,0.0,0.0,0.0,0.0,0.0,0.0,0.0,0.0,0.0,0.0,0.0,0.0,0.0,0.0,0.0,0.0,0.0,0.0,0.0,0.0,0.0,0.0,0.0,0.0,0.0,0.0,0.0,0.0,0.0,0.0,0.0,0.0,0.0,0.0,0.0,0.0,0.0,0.0,0.0,0.0,0.0,0.0,0.0,0.0,0.0,0.0,0.0,0.0,0.0,0.0,0.0,0.0,0.0,0.0,0.0,0.0,0.0,0.0,0.0,0.0,0.0,0.0,0.0,0.0,0.0,0.0,0.0,0.0,0.0,0.0,0.0,0.0,-1.4837,0.0,-1.5378,-1.5439,-1.4798,-1.4261,0.0,0.0,0.0,0.0,0.0,0.0,0.0,0.0,0.0,0.0,0.0,0.0,0.0,0.0,0.0,0.0,0.0,0.0,0.0,0.0,0.0,0.0,0.0,0.0,0.0,0.0,0.0,0.0,0.0,0.0,0.0,0.0,0.0,0.0,0.0,0.0,0.0,0.0,0.0,0.0,0.0,0.0,0.0,0.0,0.0,0.0,0.0,0.0,0.0,0.0,0.0,0.0,0.0,0.0,0.0,0.0,0.0,0.0,0.0,0.0,0.0,0.0,0.0,0.0,0.0,0.0,0.0,0.0,0.0,0.0,0.0,0.0,0.0,0.0,0.0,0.0,0.0,0.0,0.0,0.0,0.0,0.0,0.0,0.0,0.0,0.0,0.0,0.0,0.0,0.0,0.0,0.0,0.0,0.0,0.0,0.0,0.0,0.0,0.0,0.0,0.0,0.0,0.0,0.0,0.0,0.0,0.0,0.0,-1.4645,-1.5225,-1.5523,-1.5577,-1.5246,-1.4962,-1.4622,0.0,0.0,0.0,0.0,0.0,0.0,0.0,0.0,0.0,0.0,0.0,0.0,0.0,0.0,0.0,0.0,0.0,0.0,0.0,0.0,0.0,0.0,0.0,0.0,0.0,0.0,0.0,0.0,0.0,0.0,0.0,0.0,0.0,0.0,0.0,0.0,0.0,0.0,0.0,0.0,0.0,0.0,0.0,0.0,0.0,0.0,0.0,0.0,0.0,0.0,0.0,0.0,0.0,0.0,0.0,0.0,0.0,0.0,0.0,0.0,0.0,0.0,0.0,0.0,0.0,0.0,0.0,0.0,0.0,0.0,0.0,0.0,0.0,0.0,0.0,0.0,0.0,0.0,0.0,0.0,0.0,0.0,0.0,0.0,0.0,0.0,0.0,0.0,0.0,0.0,0.0,0.0,0.0,0.0,0.0,0.0,0.0,0.0,0.0,0.0,0.0,0.0,0.0,0.0,0.0,0.0,0.0,0.0,0.0,-1.6637,-1.6948,-1.7074,-1.6987,-1.645,-1.5895,0.0,0.0,0.0,0.0,0.0,0.0,0.0,0.0,0.0,0.0,0.0,0.0,0.0,0.0,0.0,0.0,0.0,0.0,0.0,0.0,0.0,0.0,0.0,0.0,0.0,0.0,0.0,0.0,0.0,0.0,0.0,0.0,0.0,0.0,0.0,0.0,0.0,0.0,0.0,0.0,0.0,0.0,0.0,0.0,0.0,0.0,0.0,0.0,0.0,0.0,0.0,0.0,0.0,0.0,0.0,0.0,0.0,0.0,0.0,0.0,0.0,0.0,0.0,0.0,0.0,0.0,0.0,0.0,0.0,0.0,0.0,0.0,0.0,0.0,0.0,0.0,0.0,0.0,0.0,0.0,0.0,0.0,0.0,0.0,0.0,0.0,0.0,0.0,0.0,0.0,0.0,0.0,0.0,0.0,0.0,0.0,0.0,0.0,0.0,0.0,0.0,0.0,0.0,0.0,0.0,0.0,0.0,0.0,0.0,-1.7462,-1.7704,-1.7789,-1.7789,-1.7167,-1.6607,-1.6184,0.0,0.0,0.0,0.0,0.0,0.0,0.0,0.0,0.0,0.0,0.0,0.0,0.0,0.0,0.0,0.0,0.0,0.0,0.0,0.0,0.0,0.0,0.0,0.0,0.0,0.0,0.0,0.0,0.0,0.0,0.0,0.0,0.0,0.0,0.0,0.0,0.0,0.0,0.0,0.0,0.0,0.0,0.0,0.0,0.0,0.0,0.0,0.0,0.0,0.0,0.0,0.0,0.0,0.0,0.0,0.0,0.0,0.0,0.0,0.0,0.0,0.0,0.0,0.0,0.0,0.0,0.0,0.0,0.0,0.0,0.0,0.0,0.0,0.0,0.0,0.0,0.0,0.0,0.0,0.0,0.0,0.0,0.0,0.0,0.0,0.0,0.0,0.0,0.0,0.0,0.0,0.0,0.0,0.0,0.0,0.0,0.0,0.0,0.0,0.0,0.0,0.0,0.0,0.0,0.0,0.0,0.0,0.0,-1.7766,-1.7789,-1.7789,-1.7789,-1.7142,-1.6789,0.0,0.0,0.0,0.0,0.0,0.0,0.0,0.0,0.0,0.0,0.0,0.0,0.0,0.0,0.0,0.0,0.0,0.0,0.0,0.0,0.0,0.0,0.0,0.0,0.0,0.0,0.0,0.0,0.0,0.0,0.0,0.0,0.0,0.0,0.0,0.0,0.0,0.0,0.0,0.0,0.0,0.0,0.0,0.0,0.0,0.0,0.0,0.0,0.0,0.0,0.0,0.0,0.0,0.0,0.0,0.0,0.0,0.0,0.0,0.0,0.0,0.0,0.0,0.0,0.0,0.0,0.0,0.0,0.0,0.0,0.0,0.0,0.0,0.0,0.0,0.0,0.0,0.0,0.0,0.0,0.0,0.0,0.0,0.0,0.0,0.0,0.0,0.0,0.0,0.0,0.0,0.0,0.0,0.0,0.0,0.0,0.0,0.0,0.0,0.0,0.0,0.0,0.0,0.0,0.0,0.0,0.0,0.0,0.0,-1.7415,-1.7681,-1.7789,-1.7789,-1.7167,-1.6789,0.0,0.0,0.0,0.0,0.0,0.0,0.0,0.0,0.0,0.0,0.0,0.0,0.0,0.0,0.0,0.0,0.0,0.0,0.0,0.0,0.0,0.0,0.0,0.0,0.0,0.0,0.0,0.0,0.0,0.0,0.0,0.0,0.0,0.0,0.0,0.0,0.0,0.0,0.0,0.0,0.0,0.0,0.0,0.0,0.0,0.0,0.0,0.0,0.0,0.0,0.0,0.0,0.0,0.0,0.0,0.0,0.0,0.0,0.0,0.0,0.0,0.0,0.0,0.0,0.0,0.0,0.0,0.0,0.0,0.0,0.0,0.0,0.0,0.0,0.0,0.0,0.0,0.0,0.0,0.0,0.0,0.0,0.0,0.0,0.0,0.0,0.0,0.0,0.0,0.0,0.0,0.0,0.0,0.0,0.0,0.0,0.0,0.0,0.0,0.0,0.0,0.0,0.0,0.0,0.0,0.0,0.0,0.0,-1.7175,-1.7502,-1.7532,-1.7658,-1.7789,-1.7288,-1.6926,0.0,0.0,0.0,0.0,0.0,0.0,0.0,0.0,0.0,0.0,0.0,0.0,0.0,0.0,0.0,0.0,0.0,0.0,0.0,0.0,0.0,0.0,0.0,0.0,0.0,0.0,0.0,0.0,0.0,0.0,0.0,0.0,0.0,0.0,0.0,0.0,0.0,0.0,0.0,0.0,0.0,0.0,0.0,0.0,0.0,0.0,0.0,0.0,0.0,0.0,0.0,0.0,0.0,0.0,0.0,0.0,0.0,0.0,0.0,0.0,0.0,0.0,0.0,0.0,0.0,0.0,0.0,0.0,0.0,0.0,0.0,0.0,0.0,0.0,0.0,0.0,0.0,0.0,0.0,0.0,0.0,0.0,0.0,0.0,0.0,0.0,0.0,0.0,0.0,0.0,0.0,0.0,0.0,0.0,0.0,0.0,0.0,0.0,0.0,0.0,0.0,0.0,0.0,0.0,0.0,0.0,0.0,0.0,-1.7392,-1.7743,-1.7415,-1.7408,-1.7675,-1.7392,-1.7101,0.0,0.0,0.0,0.0,0.0,0.0,0.0,0.0,0.0,0.0,0.0,0.0,0.0,0.0,0.0,0.0,0.0,0.0,0.0,0.0,0.0,0.0,0.0,0.0,0.0,0.0,0.0,0.0,0.0,0.0,0.0,0.0,0.0,0.0,0.0,0.0,0.0,0.0,0.0,0.0,0.0,0.0,0.0,0.0,0.0,0.0,0.0,0.0,0.0,0.0,0.0,0.0,0.0,0.0,0.0,0.0,0.0,0.0,0.0,0.0,0.0,0.0,0.0,0.0,0.0,0.0,0.0,0.0,0.0,0.0,0.0,0.0,0.0,0.0,0.0,0.0,0.0,0.0,0.0,0.0,0.0,0.0,0.0,0.0,0.0,0.0,0.0,0.0,0.0,0.0,0.0,0.0,0.0,0.0,0.0,0.0,0.0,0.0,0.0,0.0,0.0,0.0,0.0,0.0,0.0,0.0,0.0,0.0,-1.706,-1.7408,-1.7076,-1.6942,-1.7018,-1.6942,-1.685,0.0,0.0,0.0,0.0,0.0,0.0,0.0,0.0,0.0,0.0,0.0,0.0,0.0,0.0,0.0,0.0,0.0,0.0,0.0,0.0,0.0,0.0,0.0,0.0,0.0,0.0,0.0,0.0,0.0,0.0,0.0,0.0,0.0,0.0,0.0,0.0,0.0,0.0,0.0,0.0,0.0,0.0,0.0,0.0,0.0,0.0,0.0,0.0,-1.4859,0.0,0.0,0.0,0.0,0.0,0.0,0.0,0.0,0.0,0.0,0.0,0.0,0.0,0.0,0.0,0.0,0.0,0.0,0.0,0.0,0.0,0.0,0.0,0.0,0.0,0.0,0.0,0.0,0.0,0.0,0.0,0.0,0.0,0.0,0.0,0.0,0.0,0.0,0.0,0.0,0.0,0.0,0.0,0.0,0.0,0.0,0.0,0.0,0.0,0.0,0.0,0.0,0.0,0.0,0.0,0.0,0.0,0.0,0.0,-1.6892,-1.7052,-1.6738,-1.6633,-1.6789,-1.6633,-1.6554,0.0,0.0,0.0,0.0,0.0,0.0,0.0,0.0,0.0,0.0,0.0,0.0,0.0,0.0,0.0,0.0,0.0,0.0,0.0,0.0,0.0,0.0,0.0,0.0,0.0,0.0,0.0,0.0,0.0,0.0,0.0,0.0,0.0,0.0,0.0,0.0,0.0,0.0,0.0,0.0,0.0,0.0,0.0,0.0,0.0,0.0,0.0,0.0,0.0,0.0,0.0,0.0,0.0,0.0,0.0,0.0,0.0,0.0,0.0,0.0,0.0,0.0,0.0,0.0,0.0,0.0,0.0,0.0,0.0,0.0,0.0,0.0,0.0,0.0,0.0,0.0,0.0,0.0,0.0,0.0,0.0,0.0,0.0,0.0,0.0,0.0,0.0,0.0,0.0,0.0,0.0,0.0,0.0,0.0,0.0,0.0,0.0,0.0,0.0,0.0,0.0,0.0,0.0,0.0,0.0,0.0,0.0,-1.6607,-1.6712,-1.6712,-1.6394,-1.6367,-1.6649,-1.6436,-1.6301,-1.6246,0.0,0.0,0.0,0.0,0.0,0.0,0.0,0.0,0.0,0.0,0.0,0.0,0.0,0.0,0.0,0.0,0.0,0.0,0.0,0.0,0.0,0.0,0.0,0.0,0.0,0.0,0.0,0.0,0.0,0.0,0.0,0.0,0.0,0.0,0.0,0.0,0.0,0.0,-1.5195,-1.5195,0.0,0.0,0.0,0.0,0.0,0.0,0.0,0.0,-1.4885,0.0,0.0,0.0,0.0,0.0,0.0,0.0,0.0,0.0,0.0,0.0,0.0,0.0,0.0,0.0,0.0,0.0,0.0,0.0,0.0,0.0,0.0,0.0,0.0,0.0,0.0,0.0,0.0,0.0,0.0,0.0,0.0,0.0,0.0,0.0,0.0,0.0,0.0,0.0,0.0,0.0,0.0,0.0,0.0,0.0,0.0,0.0,0.0,0.0,0.0,0.0,0.0,0.0,0.0,0.0,0.0,-1.6727,-1.6501,-1.6367,-1.6367,-1.6067,-1.5913,-1.5955,-1.6191,-1.6179,-1.5913,0.0,0.0,0.0,0.0,0.0,0.0,0.0,0.0,0.0,0.0,0.0,0.0,0.0,0.0,0.0,0.0,0.0,0.0,0.0,0.0,0.0,0.0,0.0,0.0,0.0,0.0,0.0,0.0,0.0,0.0,0.0,0.0,0.0,0.0,0.0,0.0,0.0,0.0,0.0,-1.5195,-1.5195,0.0,0.0,0.0,0.0,0.0,0.0,0.0,0.0,-1.4839,0.0,0.0,0.0,0.0,0.0,0.0,0.0,0.0,0.0,0.0,0.0,0.0,0.0,0.0,0.0,0.0,0.0,0.0,0.0,0.0,0.0,0.0,0.0,0.0,0.0,0.0,0.0,0.0,0.0,0.0,0.0,0.0,0.0,0.0,0.0,0.0,0.0,0.0,0.0,0.0,0.0,0.0,0.0,0.0,0.0,0.0,0.0,0.0,0.0,0.0,0.0,0.0,0.0,0.0,0.0,-1.6274,-1.6301,-1.6219,-1.6039,-1.5885,-1.5814,-1.5814,-1.5955,-1.5955,0.0,0.0,0.0,0.0,0.0,0.0,0.0,0.0,0.0,0.0,0.0,0.0,0.0,0.0,0.0,0.0,0.0,0.0,0.0,0.0,0.0,0.0,0.0,0.0,0.0,0.0,0.0,0.0,0.0,0.0,0.0,0.0,0.0,0.0,0.0,0.0,0.0,0.0,0.0,0.0,-1.5195,-1.5195,-1.5195,0.0,0.0,0.0,0.0,0.0,0.0,-1.5088,-1.4958,0.0,0.0,0.0,0.0,0.0,0.0,0.0,0.0,0.0,0.0,0.0,0.0,0.0,0.0,0.0,0.0,0.0,0.0,0.0,0.0,0.0,0.0,0.0,0.0,0.0,0.0,0.0,0.0,0.0,0.0,0.0,0.0,0.0,0.0,0.0,0.0,0.0,0.0,0.0,0.0,0.0,0.0,0.0,0.0,0.0,0.0,0.0,0.0,0.0,0.0,0.0,0.0,0.0,0.0,0.0,-1.5799,-1.6052,-1.6052,-1.5799,-1.5814,-1.5814,-1.5814,-1.5814,-1.5814,0.0,0.0,0.0,0.0,0.0,0.0,0.0,0.0,0.0,0.0,0.0,0.0,0.0,0.0,0.0,0.0,0.0,0.0,0.0,0.0,0.0,0.0,0.0,0.0,0.0,0.0,0.0,0.0,0.0,0.0,0.0,0.0,0.0,0.0,0.0,0.0,0.0,0.0,0.0,0.0,0.0,-1.5195,-1.5195,-1.5195,0.0,0.0,0.0,0.0,-1.5195,-1.5121,0.0,0.0,0.0,0.0,0.0,0.0,0.0,0.0,0.0,0.0,0.0,0.0,0.0,0.0,0.0,0.0,0.0,0.0,0.0,0.0,0.0,0.0,0.0,0.0,0.0,0.0,0.0,0.0,0.0,0.0,0.0,0.0,0.0,0.0,0.0,0.0,0.0,0.0,0.0,0.0,0.0,0.0,0.0,0.0,0.0,0.0,0.0,0.0,0.0,0.0,0.0,0.0,0.0,0.0,0.0,0.0,-1.5799,-1.5827,-1.5827,-1.5814,-1.5814,-1.5814,-1.5814,-1.5814,-1.5814,0.0,0.0,0.0,0.0,0.0,0.0,0.0,0.0,0.0,0.0,0.0,0.0,0.0,0.0,0.0,0.0,0.0,0.0,0.0,0.0,0.0,0.0,0.0,0.0,0.0,0.0,0.0,0.0,0.0,0.0,0.0,0.0,0.0,0.0,0.0,0.0,0.0,0.0,0.0,0.0,0.0,-1.5195,-1.5195,-1.5195,-1.5195,0.0,0.0,-1.5195,-1.5195,-1.5183,0.0,0.0,0.0,0.0,0.0,0.0,0.0,0.0,0.0,0.0,0.0,0.0,0.0,0.0,0.0,0.0,0.0,0.0,0.0,0.0,0.0,0.0,0.0,0.0,0.0,0.0,0.0,0.0,0.0,0.0,0.0,0.0,0.0,0.0,0.0,0.0,0.0,0.0,0.0,0.0,0.0,0.0,0.0,0.0,0.0,0.0,0.0,0.0,0.0,0.0,0.0,0.0,0.0,0.0,0.0,-1.553,-1.5994,-1.6576,-1.6877,-1.6877,-1.6877,-1.6697,-1.6323,-1.6323,-1.6159,0.0,0.0,0.0,0.0,0.0,0.0,0.0,0.0,0.0,0.0,0.0,0.0,0.0,0.0,0.0,0.0,0.0,0.0,0.0,0.0,0.0,0.0,0.0,0.0,0.0,0.0,0.0,0.0,0.0,0.0,0.0,0.0,0.0,0.0,0.0,0.0,0.0,0.0,0.0,0.0,0.0,0.0,-1.5195,-1.5195,0.0,0.0,0.0,-1.5195,-1.5195,0.0,0.0,0.0,0.0,0.0,0.0,0.0,0.0,0.0,0.0,0.0,0.0,0.0,0.0,0.0,0.0,0.0,0.0,0.0,0.0,0.0,0.0,0.0,0.0,0.0,0.0,0.0,0.0,0.0,0.0,0.0,0.0,0.0,0.0,0.0,0.0,0.0,0.0,0.0,0.0,0.0,0.0,0.0,0.0,0.0,0.0,0.0,0.0,0.0,0.0,0.0,0.0,0.0,0.0,0.0,0.0,0.0,-1.6092,-1.7128,-1.7584,-1.729,-1.7453,-1.7282,-1.6777,-1.6747,0.0,0.0,0.0,0.0,0.0,0.0,0.0,0.0,0.0,0.0,0.0,0.0,0.0,0.0,0.0,0.0,0.0,0.0,0.0,0.0,0.0,0.0,0.0,0.0,0.0,0.0,0.0,-1.5409,0.0,0.0,0.0,0.0,0.0,0.0,0.0,0.0,0.0,0.0,0.0,0.0,0.0,0.0,-1.5234,-1.5234,-1.5234,-1.5285,0.0,0.0,-1.5593,-1.5792,-1.583,-1.5792,0.0,0.0,0.0,0.0,0.0,0.0,0.0,0.0,0.0,0.0,0.0,0.0,0.0,0.0,0.0,0.0,0.0,0.0,0.0,0.0,0.0,0.0,0.0,0.0,0.0,0.0,0.0,0.0,0.0,0.0,0.0,0.0,0.0,0.0,0.0,0.0,0.0,0.0,0.0,0.0,0.0,0.0,0.0,0.0,0.0,0.0,0.0,0.0,0.0,0.0,0.0,0.0,0.0,0.0,0.0,-1.6135,-1.7161,-1.7238,-1.6275,-1.6683,-1.6924,-1.6915,-1.6881,-1.7088,0.0,0.0,0.0,0.0,0.0,0.0,0.0,0.0,0.0,0.0,0.0,0.0,0.0,0.0,0.0,0.0,0.0,0.0,0.0,0.0,0.0,0.0,0.0,0.0,0.0,0.0,0.0,0.0,0.0,0.0,0.0,0.0,0.0,0.0,0.0,0.0,0.0,0.0,0.0,0.0,0.0,-1.5291,-1.5291,-1.5291,-1.558,0.0,0.0,-1.6663,-1.7407,-1.7523,-1.7542,-1.7497,0.0,0.0,0.0,0.0,0.0,0.0,0.0,0.0,0.0,0.0,0.0,0.0,0.0,0.0,0.0,0.0,0.0,0.0,0.0,0.0,0.0,0.0,0.0,0.0,0.0,0.0,0.0,0.0,0.0,0.0,0.0,0.0,0.0,0.0,0.0,0.0,0.0,0.0,0.0,0.0,0.0,0.0,0.0,0.0,0.0,0.0,0.0,0.0,0.0,0.0,0.0,0.0,0.0,-1.6391,-1.6369,-1.7399,-1.7754,-1.7363,-1.7529,-1.746,-1.7046,-1.7032,-1.6936,0.0,0.0,0.0,0.0,0.0,0.0,0.0,0.0,0.0,0.0,0.0,0.0,0.0,0.0,0.0,0.0,0.0,0.0,0.0,0.0,0.0,0.0,0.0,0.0,0.0,0.0,0.0,0.0,-1.6577,-1.6668,-1.6205,0.0,0.0,0.0,0.0,0.0,0.0,0.0,0.0,0.0,0.0,-1.6911,-1.6911,-1.6891,0.0,0.0,-1.7346,-1.7465,-1.776,-1.7785,-1.7752,-1.7759,-1.7477,0.0,0.0,0.0,0.0,0.0,0.0,0.0,0.0,0.0,0.0,0.0,0.0,0.0,0.0,0.0,0.0,0.0,0.0,0.0,0.0,0.0,0.0,0.0,0.0,0.0,0.0,0.0,0.0,0.0,0.0,0.0,0.0,0.0,0.0,0.0,0.0,0.0,0.0,0.0,0.0,0.0,0.0,0.0,0.0,0.0,0.0,0.0,0.0,0.0,0.0,0.0,0.0,-1.6478,-1.6515,-1.7557,-1.7933,-1.7626,-1.7787,-1.7637,-1.7176,-1.7163,-1.7011,0.0,0.0,0.0,0.0,0.0,0.0,0.0,0.0,0.0,0.0,0.0,0.0,0.0,0.0,0.0,0.0,0.0,0.0,0.0,0.0,0.0,0.0,0.0,0.0,0.0,0.0,0.0,0.0,-1.7462,-1.7575,-1.7029,0.0,0.0,0.0,0.0,0.0,0.0,0.0,0.0,0.0,0.0,-1.7946,-1.7946,-1.7946,-1.8005,-1.8258,-1.8286,-1.8373,-1.862,-1.8602,-1.8571,-1.8573,0.0,0.0,0.0,0.0,0.0,0.0,0.0,0.0,0.0,0.0,0.0,0.0,0.0,0.0,0.0,0.0,0.0,0.0,0.0,0.0,0.0,0.0,0.0,0.0,0.0,0.0,0.0,0.0,0.0,0.0,-0.8773,0.0,0.0,0.0,0.0,0.0,0.0,0.0,0.0,0.0,0.0,0.0,0.0,0.0,0.0,0.0,0.0,0.0,0.0,0.0,0.0,0.0,0.0,-1.6434,-1.6484,-1.749,-1.7544,-1.6595,-1.7034,-1.7299,-1.7272,-1.7286,-1.7518,-1.7997,0.0,0.0,0.0,0.0,0.0,0.0,0.0,0.0,0.0,0.0,0.0,0.0,0.0,0.0,0.0,0.0,0.0,0.0,0.0,0.0,0.0,0.0,0.0,0.0,0.0,0.0,-1.7816,-1.7809,-1.7814,0.0,0.0,0.0,0.0,0.0,0.0,0.0,0.0,0.0,0.0,-1.7941,-1.8008,-1.8047,-1.8027,-1.834,-1.9082,-1.916,-1.9447,-2.0188,-2.0329,-2.0347,0.0,0.0,0.0,0.0,0.0,0.0,0.0,0.0,0.0,0.0,0.0,0.0,0.0,0.0,0.0,0.0,0.0,0.0,0.0,0.0,0.0,0.0,0.0,0.0,0.0,0.0,0.0,-0.956,-1.0297,0.0,0.0,0.0,0.0,0.0,0.0,0.0,0.0,0.0,0.0,0.0,-1.1626,-1.2224,0.0,0.0,0.0,0.0,0.0,0.0,0.0,0.0,0.0,0.0,0.0,0.0,-1.5264,-1.5332,-1.6046,-1.6275,-1.5908,-1.6441,-1.6765,-1.6752,-1.6765,-1.7008,-1.7572,0.0,0.0,0.0,0.0,0.0,0.0,0.0,0.0,0.0,0.0,0.0,0.0,0.0,0.0,0.0,0.0,0.0,0.0,0.0,0.0,0.0,0.0,0.0,0.0,0.0,-1.8715,0.0,0.0,0.0,0.0,0.0,0.0,0.0,0.0,0.0,0.0,0.0,-1.8706,-1.8709,-1.9212,-1.9592,-1.9612,-1.9603,-1.9685,0.0,0.0,0.0,0.0,0.0,0.0,0.0,0.0,0.0,0.0,0.0,0.0,0.0,0.0,-1.8922,-1.7643,-1.7358,-1.7346,-1.7336,0.0,0.0,0.0,0.0,0.0,0.0,0.0,0.0,0.0,0.0,0.0,0.0,0.0,0.0,-1.0013,0.0,-1.0013,0.0,0.0,0.0,0.0,0.0,0.0,0.0,0.0,-1.2191,-1.2373,-1.2086,-1.2675,-1.2792,0.0,-1.2744,-1.2734,0.0,0.0,0.0,0.0,0.0,0.0,0.0,0.0,-1.4488,-1.4724,-1.5085,-1.5365,-1.5576,-1.6008,-1.6281,-1.6479,-1.6281,-1.6378,-1.6731,-1.6281,-1.6281,0.0,0.0,0.0,0.0,0.0,0.0,0.0,0.0,0.0,0.0,0.0,0.0,0.0,0.0,0.0,0.0,0.0,0.0,0.0,0.0,0.0,0.0,0.0,-1.9476,0.0,0.0,0.0,0.0,0.0,0.0,0.0,0.0,0.0,-1.8674,-1.9145,-1.9507,-1.9505,-2.0011,-2.0385,-2.0385,0.0,0.0,0.0,0.0,0.0,0.0,0.0,-2.0447,-2.0482,-2.0475,-2.0475,-2.0455,-2.0355,-2.0292,-2.0292,0.0,0.0,-1.8648,-1.8355,-1.8289,-1.8308,-1.8211,-1.8092,-1.8057,-1.8267,-1.8419,0.0,0.0,0.0,0.0,0.0,0.0,0.0,0.0,-1.0839,-1.0848,0.0,-1.0118,0.0,0.0,0.0,0.0,0.0,-1.1902,0.0,0.0,-1.2861,-1.2881,-1.2871,-1.2881,-1.2891,-1.2891,-1.2881,-1.2881,-1.292,-1.3457,0.0,0.0,0.0,0.0,0.0,0.0,-1.4053,-1.4585,-1.4667,-1.496,-1.5543,-1.5588,-1.5908,-1.6479,-1.5952,-1.5636,-1.5653,-1.5668,-1.584,-1.625,-1.5903,0.0,0.0,0.0,0.0,0.0,0.0,0.0,0.0,0.0,0.0,0.0,0.0,0.0,0.0,0.0,0.0,0.0,0.0,0.0,0.0,-1.9974,0.0,0.0,0.0,0.0,0.0,0.0,0.0,0.0,0.0,0.0,-2.0049,-2.0182,-2.0292,-2.0292,0.0,0.0,0.0,0.0,-2.0389,-2.0389,-2.0389,-2.0389,-2.0396,-2.0441,-2.0488,-2.0508,0.0,0.0,-2.0508,-2.0398,-2.0315,-2.0292,-2.0292,-2.0292,-2.0246,-2.0028,-1.9945,-1.9936,-1.9898,-1.9954,-1.9828,-1.9669,-1.9656,-1.0341,0.0,0.0,0.0,0.0,-1.0212,-1.0899,-1.1529,-1.1529,-1.1787,-1.2253,-1.1538,0.0,0.0,0.0,0.0,0.0,0.0,-1.1978,-1.2129,-1.2666,-1.2891,-1.2891,-1.2891,-1.2891,-1.2891,-1.2891,-1.2891,-1.2939,-1.3065,-1.3065,-1.2929,0.0,0.0,0.0,0.0,-1.326,-1.3438,-1.3842,-1.4329,-1.4915,-1.5365,-1.5908,-1.6479,-1.6324,-1.6274,-1.6239,-1.6242,-1.6324,-1.6441,-1.5982,0.0,0.0,0.0,0.0,0.0,0.0,0.0,0.0,0.0,0.0,0.0,0.0,0.0,0.0,0.0,0.0,0.0,0.0,0.0,-1.9688,-1.972,-1.9755,0.0,0.0,0.0,0.0,0.0,0.0,0.0,0.0,0.0,-2.005,-2.018,-2.0292,0.0,0.0,-2.0331,-2.0331,-2.0331,-2.0331,-2.0331,-2.0331,0.0,-2.0331,-2.034,-2.0381,-2.0399,-2.048,-2.0508,-2.0508,-2.046,-2.0406,-2.0306,-2.0292,-2.0292,-2.0285,-2.0249,-2.0205,-2.0225,-2.0225,-2.0197,-2.0162,-2.005,-1.9912,-1.0073,-0.9213,-0.9568,-0.9868,-1.0016,-1.042,-1.0894,-1.1416,-1.1416,-1.1674,-1.1999,-1.1325,-1.1157,-1.1366,-1.0965,0.0,0.0,0.0,-1.1654,-1.2108,-1.2187,-1.2664,-1.335,-1.3039,-1.3099,-1.3379,-1.3379,-1.3379,-1.3379,-1.3389,-1.3379,-1.3369,0.0,0.0,-1.3143,-1.2988,-1.2988,-1.3124,-1.3349,-1.3836,-1.4709,-1.5511,-1.5996,-1.6139,-1.6151,-1.6134,-1.6145,-1.6146,-1.6238,-1.6466,-1.6195,-1.6019,0.0,0.0,0.0,0.0,0.0,0.0,0.0,0.0,0.0,0.0,0.0,-1.776,-1.8035,0.0,0.0,0.0,-1.903,-1.939,-1.9656,-1.9636,0.0,0.0,0.0,0.0,0.0,0.0,0.0,-1.9744,-1.995,-2.005,-1.9943,-2.0031,-2.0153,-2.0277,-2.0292,-2.0292,-2.0292,0.0,-2.0292,-2.0292,-2.0292,-2.0292,-2.0292,-2.0292,-2.0311,-2.0377,-2.0458,-2.0508,-2.0508,-2.0508,-2.0469,-2.0402,-2.0354,-2.0331,-2.0312,-2.0292,-2.0292,-2.0292,-2.0292,-2.0292,-2.0292,-2.0133,-1.9964,-1.0314,-0.9753,-0.976,-1.0016,-1.0359,-1.0399,-1.06,-1.0853,-1.0853,-1.0853,-1.0802,-1.0244,-1.0296,-1.0904,-1.0955,0.0,-1.0963,-1.1065,-1.167,-1.2577,-1.189,-1.2411,-1.4058,-1.3327,-1.338,-1.4077,-1.4087,-1.4087,-1.4068,-1.4077,-1.4087,-1.4058,-1.3369,-1.3182,-1.3507,-1.3173,-1.3173,-1.3536,-1.3182,-1.359,-1.4729,-1.5828,-1.6156,-1.5614,-1.5567,-1.5537,-1.5577,-1.5593,-1.5864,-1.6479,-1.6534,-1.6534,-1.6509,0.0,0.0,0.0,0.0,0.0,0.0,0.0,0.0,0.0,0.0,0.0,0.0,0.0,0.0,0.0,-1.8823,0.0,-1.9731,-1.9643,0.0,0.0,0.0,-1.9286,-1.9286,-1.9452,-1.9596,-1.9596,0.0,0.0,-1.9809,-1.9809,-1.9909,-2.0216,-2.0249,-2.026,-2.0249,-2.0238,-2.0265,-2.0249,-2.0265,-2.0265,-2.0285,-2.0292,-2.0312,-2.0373,-2.0453,-2.0488,-2.0508,-2.0508,-2.0508,-2.0508,-2.0445,-2.0388,-2.0339,-2.0312,-2.0292,-2.0312,-2.0292,-2.0292,-2.0285,-2.0161,-2.0031,-1.0526,-1.0416,-1.0409,-1.046,-1.0624,-1.1169,-1.1391,-1.1475,-1.1475,-1.1475,-1.1475,-1.1311,-1.1311,-1.1521,-1.2143,-1.2422,-1.2422,-1.3019,-1.3436,-1.371,-1.355,-1.3651,-1.4087,-1.3924,-1.3914,-1.4087,-1.4087,-1.4087,-1.4087,-1.4087,-1.4087,-1.4068,-1.3926,-1.3844,-1.3961,-1.3844,-1.3844,-1.397,-1.3854,-1.4192,-1.4991,-1.54,-1.5519,-1.5378,-1.5073,-1.5139,-1.5588,-1.5572,-1.5864,-1.6479,-1.6534,-1.6534,-1.6522,-1.7262,0.0,0.0,0.0,0.0,0.0,0.0,0.0,0.0,0.0,-1.6977,-1.7392,0.0,-1.801,0.0,-1.8963,-1.9316,-1.9405,-1.9376,0.0,0.0,-1.9331,-1.9286,-1.9286,-1.9485,-1.9596,-1.9596,-1.9713,-1.9809,-1.9809,-1.9809,-1.9832,-1.9909,-1.9939,-1.9909,-1.992,-1.9925,-1.9964,-2.0039,-2.0082,-2.0131,-2.0265,-2.0292,-2.0292,-2.0331,-2.0353,-2.0376,-2.0488,-2.0508,-2.0508,-2.0508,-2.0484,-2.0451,-2.0397,-2.0369,-2.0369,-2.0312,-2.0292,-2.0292,-2.0285,-2.0249,-2.0188,-1.0755,-1.0742,-1.0678,-1.0609,-1.064,-1.0902,-1.092,-1.0793,-1.0793,-1.0793,-1.0793,-1.0793,-1.0793,-1.0842,-1.1302,-1.1471,-1.1471,-1.1975,-1.2616,-1.3405,-1.3064,-1.3488,-1.4651,-1.4279,-1.4335,-1.4642,-1.4697,-1.4707,-1.4651,-1.4707,-1.4707,-1.4707,-1.4697,-1.4651,-1.4622,-1.4282,-1.4175,-1.4424,-1.4496,-1.4714,-1.5081,-1.5459,-1.5603,-1.5592,-1.5174,-1.5246,-1.5876,-1.5732,-1.5864,-1.6479,-1.6534,-1.6534,-1.6534,-1.7076,-1.733,0.0,0.0,0.0,0.0,0.0,0.0,0.0,0.0,0.0,0.0,0.0,-1.8121,-1.8406,-1.8662,-1.886,-1.8981,-1.9082,-1.9162,-1.9164,-1.9234,-1.9286,-1.9286,-1.9394,-1.9452,-1.9471,-1.9532,-1.9567,-1.958,-1.958,-1.9599,-1.958,-1.9599,-1.9632,-1.976,-1.9819,-1.984,-1.9895,-1.9953,-2.0073,-2.0265,-2.0292,-2.0292,-2.0292,-2.0292,-2.0327,-2.0387,-2.0436,-2.0459,-2.0449,-2.0469,-2.0488,-2.0414,-2.0431,-2.0423,-2.0332,-2.0292,-2.0292,-2.0292,-2.0292,-2.0269,-1.1042,-1.1029,-1.0735,-1.0678,-1.0658,-1.0301,-1.0033,-0.9793,-0.9793,-0.9793,-0.9793,-0.98,-0.98,-0.9793,-0.9904,-0.9969,-0.9969,-1.0079,-1.1033,-1.258,-1.1872,-1.2811,-1.504,-1.448,-1.4538,-1.5225,-1.5352,-1.542,-1.542,-1.542,-1.542,-1.542,-1.542,-1.542,-1.5381,-1.4612,-1.4482,-1.4853,-1.5026,-1.5163,-1.5152,-1.5581,-1.5847,-1.5836,-1.5389,-1.5452,-1.6089,-1.5759,-1.584,-1.6417,-1.643,-1.6423,-1.6479,-1.6509,-1.674,0.0,-1.7867,0.0,0.0,0.0,0.0,0.0,0.0,0.0,0.0,-1.848,-1.8542,-1.8491,-1.8523,-1.863,-1.8849,-1.9092,-1.9251,-1.924,-1.9408,-1.9488,-1.9488,-1.9488,-1.9504,-1.9554,-1.957,-1.957,-1.969,-1.962,-1.9635,-1.9743,-1.9779,-1.99,-2.0013,-1.9888,-1.9731,-1.9774,-1.9898,-2.006,-2.0203,-2.0277,-2.0292,-2.0292,-2.0292,-2.0292,-2.0308,-2.0352,-2.0398,-2.0394,-2.0449,-2.0484,-2.0429,-2.0472,-2.0482,-2.0369,-2.0334,-2.0331,-2.0312,-2.0292,-2.0292,-1.1343,-1.1323,-1.1029,-1.0909,-1.0889,-1.0601,-1.0448,-1.0463,-1.045,-1.0456,-1.0456,-1.0463,-1.0463,-1.0456,-1.111,-1.1409,-1.1409,-1.2079,-1.2595,-1.2901,-1.2775,-1.2929,-1.3485,-1.3999,-1.4305,-1.4451,-1.5118,-1.542,-1.542,-1.542,-1.542,-1.542,-1.542,-1.542,-1.541,0.0,0.0,0.0,-1.533,-1.5338,-1.5328,-1.5159,-1.5034,-1.5024,-1.455,0.0,-1.5279,-1.537,-1.5681,-1.6291,-1.5954,0.0,0.0,0.0,0.0,0.0,0.0,0.0,0.0,0.0,0.0,0.0,-1.9371,-1.9249,-1.8844,-1.9512,-1.9996,-1.9993,-2.0184,-2.034,-2.0361,-2.0442,-2.0456,-2.0439,-2.0481,-2.051,-2.0525,-2.0527,-2.0608,-2.0896,-2.0915,-2.1025,-2.1201,-2.1325,-2.129,-2.1216,-2.1325,-2.136,-2.1369,-2.0274,-1.9522,-1.9617,-1.9952,-2.005,-2.006,-2.0246,-2.043,-2.0292,-2.0292,-2.0331,-2.035,-2.0354,-2.0332,-2.0372,-2.0457,-2.0507,-2.0483,-2.0523,-2.0555,-2.0473,-2.0463,-2.0427,-2.0331,-2.0312,-2.0292,-1.1643,0.0,-1.1329,-1.1129,0.0,-1.0842,-1.0759,-1.0618,-1.0618,-1.0618,-1.0618,-1.0618,-1.0618,-1.0624,-1.1052,-1.1163,-1.1226,-1.16,-1.2027,-1.2389,-1.2389,-1.2634,-1.3009,-1.3425,-1.3614,-1.3614,-1.4034,-1.4213,-1.4213,-1.4204,-1.4204,-1.4204,-1.4638,-1.4628,-1.4204,-1.4628,-1.4991,-1.541,-1.542,-1.542,-1.54,-1.5205,-1.5098,-1.5078,-1.4678,0.0,0.0,0.0,0.0,0.0,0.0,0.0,0.0,-1.6647,0.0,-1.7271,-1.7827,-1.8224,-1.8496,-1.9006,-1.9295,-1.9317,-1.9717,-1.9844,-1.9413,-1.9894,-2.0208,-2.0191,-2.0319,-2.0396,-2.0413,-2.0512,-2.0609,-2.0598,-2.0728,-2.081,-2.0808,-2.0825,-2.0866,-2.1013,-2.1072,-2.1133,-2.129,-2.1461,-2.1534,-2.1553,-2.1697,-2.1804,-2.1748,-2.1084,-2.0612,-2.0763,-2.088,-2.1016,-2.1081,-2.1251,-2.1359,-2.1388,-2.1462,-2.1342,-2.0966,-2.0889,-2.0792,-2.0485,-2.0389,-2.0411,-2.0405,-2.0471,-2.0545,-2.0516,-2.0826,-2.1092,-2.0985,-2.0636,-2.0292,-1.1722,-1.1696,-1.1344,-1.109,-1.0868,-1.0816,-1.0745,-1.0694,0.0,0.0,0.0,-1.0618,-1.0618,-1.0618,-1.0618,-1.0618,-1.0618,-1.0618,-1.0926,-1.1593,-1.1586,-1.1958,-1.2581,-1.2696,-1.2757,-1.2818,-1.2948,-1.3009,-1.3009,-1.3009,-1.3009,-1.307,-1.3666,-1.3674,-1.307,-1.3674,-1.4392,-1.5167,-1.5352,-1.542,-1.542,-1.542,-1.542,-1.542,-1.5078,-1.5107,-1.5642,-1.5339,-1.5706,-1.6781,-1.6487,-1.6562,-1.7136,-1.6734,-1.6683,-1.7118,-1.7271,-1.7463,-1.7933,-1.8535,-1.893,-1.9006,-1.9814,-2.0264,-2.0114,-2.0223,-2.0269,-2.0269,-2.0381,-2.0424,-2.039,-2.0593,-2.0761,-2.073,-2.0932,-2.1063,-2.1065,-2.107,-2.1138,-2.1118,-2.1233,-2.1163,-2.1304,-2.1536,-2.1644,-2.1702,-2.1984,-2.2082,-2.2099,-2.1913,-2.1666,-2.1782,-2.1786,-2.1973,-2.2121,-2.2267,-2.2486,-2.2375,-2.2595,-2.2543,-2.1947,-2.1716,-2.1466,-2.0985,-2.0754,-2.0839,-2.0797,-2.0983,-2.091,-2.0898,-2.1468,-2.1997,-2.1906,-2.1359,-2.0897,-1.0959,-1.0935,-1.0677,-1.0545,-1.042,-1.0194,-1.039,-1.0925,-1.0694,-1.0618,-1.0618,-1.0618,-1.0618,-1.0618,-1.0618,-1.0618,-1.0618,-1.0618,-1.0688,-1.0744,-1.0744,-1.08,-1.0989,-1.1655,-1.195,-1.2012,-1.2696,-1.3009,-1.3009,-1.3009,-1.3009,-1.3009,-1.313,-1.307,-1.3009,-1.313,-1.3545,-1.4332,-1.505,-1.542,-1.542,-1.542,-1.542,-1.541,-1.5352,-1.5322,-1.5428,-1.5573,-1.5708,-1.5913,-1.6089,-1.6302,-1.6456,-1.6464,-1.6483,-1.6633,-1.7034,-1.7353,-1.7422,-1.8341,-1.9109,-1.9551,-2.0019,-2.0436,-2.0831,-2.1154,-2.1374,-2.1374,-2.1675,-2.1989,-2.1989,-2.1949,-2.1959,-2.2,-2.2055,-2.2078,-2.2023,-2.2044,-2.2089,-2.2279,-2.2434,-2.2489,-2.2611,-2.2764,-2.2797,-2.2886,-2.2799,-2.3048,-2.3087,-2.2483,-2.1876,-2.1835,-2.1932,-2.199,-2.2219,-2.2331,-2.2593,-2.2498,-2.2766,-2.2919,-2.266,-2.2601,-2.2504,-2.2406,-2.231,-2.2387,-2.2417,-2.2604,-2.2502,-2.2486,-2.2713,-2.2894,-2.2881,-2.2739,-2.2626,-0.9965,-0.9954,-0.9851,-0.9726,-0.958,-0.9769,-1.0355,-1.096,-1.087,-1.0766,-1.0624,-1.0618,-1.0618,-1.0618,-1.0618,-1.0618,-1.0618,-1.0618,-1.0618,-1.0618,-1.0618,-1.0618,-1.0618,-1.0989,-1.1163,-1.117,-1.1545,-1.167,-1.1725,-1.1725,-1.1725,-1.1725,-1.1725,-1.1903,-1.2328,-1.2328,-1.2512,-1.2931,-1.4145,-1.4932,-1.541,-1.542,-1.542,-1.542,-1.542,-1.542,-1.542,-1.5511,-1.5731,-1.6123,-1.6362,-1.6723,-1.7154,-1.7279,-1.7263,-1.7024,-1.7224,-1.7213,-1.6892,-1.7867,-1.8688,-1.9207,-1.9717,-2.0085,-2.0277,-2.1102,-2.1582,-2.1612,-2.2032,-2.2327,-2.2327,-2.2327,-2.2327,-2.2327,-2.2327,-2.2327,-2.2327,-2.2327,-2.2349,-2.2463,-2.249,-2.2527,-2.2686,-2.284,-2.2923,-2.2947,-2.3069,-2.3305,-2.3631,-2.3218,-2.2884,-2.3052,-2.3161,-2.3196,-2.3194,-2.3422,-2.3568,-2.3578,-2.3814,-2.3798,-2.3504,-2.341,-2.3303,-2.2899,-2.284,-2.2851,-2.288,-2.2899,-2.2941,-2.3023,-2.346,-2.3672,-2.3773,-2.4097,-2.4066,-0.8993,-0.8998,-0.8998,-0.8815,-0.8636,-0.9641,-1.0368,-1.0836,-1.0969,-1.0862,-1.0668,-1.0658,-1.0618,-1.0618,-1.0618,-1.0618,-1.0618,-1.0618,-1.0618,-1.0618,-1.0618,-1.0618,-1.0618,-1.0618,-1.0618,-1.0618,-1.0618,-1.0618,-1.0618,-1.0618,-1.0618,-1.0618,-1.0618,-1.0926,-1.1524,-1.1531,-1.1593,-1.1826,-1.3053,-1.4145,-1.5108,-1.5108,-1.5225,-1.541,-1.542,-1.542,-1.542,-1.542,-1.5642,-1.6244,-1.6579,-1.7017,-1.7622,-1.7982,-1.7939,-1.7639,-1.7576,-1.7402,-1.6977,-1.7745,-1.8481,-1.8855,-1.9406,-1.9705,-1.9797,-2.0682,-2.1352,-2.1491,-2.1869,-2.218,-2.2282,-2.2327,-2.2327,-2.2327,-2.2327,-2.2327,-2.2327,-2.2327,-2.2327,-2.2327,-2.2327,-2.231,-2.2321,-2.2473,-2.2616,-2.2652,-2.2873,-2.3189,-2.3414,-2.3566,-2.3816,-2.3996,-2.4151,-2.4135,-2.4209,-2.4319,-2.4402,-2.4512,-2.4695,-2.4556,-2.4217,-2.4213,-2.413,-2.3592,-2.3438,-2.3515,-2.3409,-2.3458,-2.3553,-2.3672,-2.4144,-2.4525,-2.4603,-2.5027,-2.5156,-0.7931,-0.7936,-0.7936,-0.7927,-0.8103,-0.9599,-1.0331,-1.0449,-1.0812,-1.0982,-1.0791,-1.0681,-1.0561,-1.0618,-1.0618,-1.0618,-1.0618,-1.0618,-1.0618,-1.0618,-1.0618,-1.0618,-1.0618,-1.0618,-1.0618,-1.0618,-1.0618,-1.0618,-1.0618,-1.0618,-1.0618,-1.0618,-1.0618,-1.0618,-1.0744,-1.0744,-1.1108,-1.1772,-1.1958,-1.274,-1.4204,-1.4323,-1.4697,-1.541,-1.541,-1.542,-1.542,-1.542,-1.541,-1.5526,-1.6167,-1.6665,-1.6961,-1.7576,-1.8006,-1.8131,-1.8129,-1.8096,-1.8079,-1.8517,-1.8822,-1.8927,-1.9428,-1.975,-1.972,-2.0154,-2.0616,-2.1023,-2.1446,-2.184,-2.2209,-2.2254,-2.2209,-2.2254,-2.2254,-2.2327,-2.2282,-2.2327,-2.2327,-2.2327,-2.2254,-2.2327,-2.231,-2.2349,-2.2349,-2.2388,-2.259,-2.2815,-2.2923,-2.33,-2.3649,-2.3795,-2.3996,-2.417,-2.4209,-2.4357,-2.4444,-2.4495,-2.467,-2.4714,-2.4702,-2.4777,-2.4866,-2.4619,-2.4832,-2.4783,-2.488,-2.5072,-2.4976,-2.4764,-2.5009,-2.526,-2.5367,-2.5476,-2.5344,-0.6949,-0.6949,-0.6949,-0.7249,-0.7923,-0.8595,-0.9055,-0.9427,-0.9652,-0.9546,-0.9333,-0.923,-0.9669,-1.0561,-1.0618,-1.0618,-1.0618,-1.0618,-1.0618,-1.0618,-1.0618,-1.0618,-1.0618,-1.0618,-1.0618,-1.0618,-1.0618,-1.0618,-1.0618,-1.0618,-1.0618,-1.0618,-1.0618,-1.0618,-1.0618,-1.0618,-1.0744,-1.1045,-1.1108,-1.1655,-1.2749,-1.3726,-1.4323,-1.4697,-1.5167,-1.542,-1.542,-1.542,-1.542,-1.5468,-1.6083,-1.6511,-1.6643,-1.7706,-1.8271,-1.808,-1.8127,-1.8197,-1.8234,-1.8666,-1.8943,-1.8944,-1.98,-2.0148,-1.9768,-2.0206,-2.0564,-2.0628,-2.0975,-2.1337,-2.1524,-2.1507,-2.1615,-2.184,-2.1899,-2.1899,-2.1899,-2.1899,-2.1899,-2.1899,-2.1899,-2.2003,-2.2225,-2.2327,-2.2327,-2.231,-2.2398,-2.2527,-2.2686,-2.2947,-2.3236,-2.361,-2.3816,-2.3996,-2.4133,-2.4247,-2.4321,-2.4357,-2.4495,-2.4651,-2.4693,-2.4823,-2.493,-2.5088,-2.5122,-2.5203,-2.5216,-2.5303,-2.5313,-2.5332,-2.539,-2.5428,-2.5503,-2.5538,-2.5539,-0.6261,-0.6261,-0.6261,-0.6718,-0.7403,-0.7706,-0.8062,-0.8524,-0.8724,-0.8657,-0.8374,-0.8309,-0.8869,-0.9839,-0.9881,-0.9977,-1.0168,-0.9977,-0.9901,-0.9907,-0.9907,-0.9977,-1.0231,-1.0238,-1.0364,-1.0498,-1.0301,-1.0238,-1.0301,-1.0498,-1.0618,-1.0618,-1.0618,-1.0618,-1.0618,-1.0618,-1.0618,-1.0618,-1.0618,-1.0863,-1.1593,-1.281,-1.3657,-1.3906,-1.4628,-1.505,-1.505,-1.5294,-1.542,-1.542,-1.5921,-1.6322,-1.6539,-1.7512,-1.8112,-1.818,-1.8449,-1.8555,-1.844,-1.8947,-1.9166,-1.9127,-2.0055,-2.0481,-2.0217,-2.0583,-2.085,-2.0793,-2.1007,-2.1201,-2.1023,-2.1007,-2.115,-2.1399,-2.143,-2.143,-2.143,-2.1446,-2.1491,-2.1582,-2.1658,-2.1794,-2.218,-2.2327,-2.2327,-2.231,-2.231,-2.2349,-2.2563,-2.266,-2.2898,-2.3369,-2.3544,-2.3855,-2.4113,-2.4209,-2.419,-2.4228,-2.4339,-2.4445,-2.4497,-2.4657,-2.4828,-2.4993,-2.4986,-2.5057,-2.5253,-2.5303,-2.5313,-2.5313,-2.5332,-2.539,-2.5418,-2.5467,-2.5492,-0.6261,-0.6261,-0.6261,-0.6338,-0.6493,-0.7326,-0.7783,-0.7838,-0.8458,-0.8709,-0.8582,-0.8406,-0.8344,-0.8342,-0.822,-0.8554,-0.9198,-0.8608,-0.8285,-0.8285,-0.8221,-0.8613,-0.9332,-0.9338,-0.9786,-1.0238,-0.9652,-0.9338,-0.9396,-1.011,-1.0618,-1.0561,-1.0491,-1.0555,-1.0555,-1.0561,-1.0618,-1.0618,-1.0618,-1.0624,-1.0744,-1.1531,-1.2328,-1.3,-1.3855,-1.4264,-1.4382,-1.4991,-1.542,-1.542,-1.5468,-1.5748,-1.6379,-1.6595,-1.7224,-1.8484,-1.9285,-1.9472,-1.9067,-1.9429,-1.9538,-1.9252,-2.0052,-2.0668,-2.0542,-2.1067,-2.1426,-2.1584,-2.1488,-2.1362,-2.111,-2.1099,-2.1053,-2.1071,-2.1071,-2.1087,-2.1023,-2.1023,-2.1213,-2.146,-2.1552,-2.1764,-2.2225,-2.2327,-2.2327,-2.2327,-2.2327,-2.2338,-2.236,-2.2537,-2.2712,-2.2898,-2.33,-2.3795,-2.4113,-2.419,-2.419,-2.4209,-2.4228,-2.4284,-2.441,-2.4543,-2.4723,-2.4877,-2.4898,-2.4998,-2.5203,-2.5313,-2.5313,-2.5313,-2.5313,-2.5332,-2.5351,-2.539,-2.5415,-0.6261,-0.6261,-0.6261,-0.6261,-0.6338,-0.6718,-0.6872,-0.6865,-0.7106,-0.7155,-0.6982,-0.6915,-0.7077,-0.7469,-0.6843,-0.7288,-0.8371,-0.8161,-0.8027,-0.8027,-0.8027,-0.8156,-0.8415,-0.8479,-0.8613,-0.8807,-0.8608,-0.8484,-0.8484,-0.8801,-0.8935,-0.9064,-0.953,-0.9786,-0.9849,-1.0364,-1.0618,-1.0555,-1.0618,-1.0618,-1.0618,-1.0863,-1.117,-1.1538,-1.2757,-1.3674,-1.4154,-1.451,-1.4874,-1.5352,-1.542,-1.5526,-1.5816,-1.6255,-1.7146,-1.8501,-1.8927,-1.9209,-1.9484,-1.9686,-1.9737,-1.9598,-2.0254,-2.0607,-2.0334,-2.0717,-2.1126,-2.1104,-2.107,-2.1094,-2.1417,-2.1458,-2.1383,-2.1249,-2.1158,-2.1002,-2.066,-2.055,-2.0616,-2.0797,-2.1228,-2.1688,-2.1869,-2.2106,-2.2282,-2.2327,-2.2327,-2.2282,-2.231,-2.2415,-2.2483,-2.2712,-2.3069,-2.35,-2.3834,-2.4074,-2.4208,-2.419,-2.4209,-2.4228,-2.4321,-2.4339,-2.4476,-2.4651,-2.4723,-2.4858,-2.503,-2.5224,-2.5234,-2.5313,-2.5313,-2.5313,-2.5313,-2.5332,-2.537,-0.6261,-0.6261,-0.6261,-0.6261,-0.6261,-0.6261,-0.6261,-0.6261,-0.6257,-0.62,-0.6115,-0.6105,-0.6388,-0.6615,-0.6161,-0.6302,-0.7252,-0.7251,-0.7179,-0.7186,-0.7186,-0.7312,-0.7567,-0.7567,-0.7762,-0.7962,-0.8027,-0.7897,-0.7632,-0.7892,-0.7957,-0.8091,-0.8613,-0.8877,-0.9005,-0.9722,-1.0168,-1.0238,-1.0428,-1.0618,-1.0618,-1.0618,-1.0618,-1.0744,-1.1663,-1.2634,-1.3416,-1.3906,-1.4392,-1.4932,-1.5235,-1.542,-1.5468,-1.6093,-1.6922,-1.7841,-1.8447,-1.8879,-1.9377,-1.9697,-1.9798,-1.985,-2.0396,-2.0562,-2.0206,-2.0711,-2.1032,-2.1036,-2.101,-2.1255,-2.1583,-2.1668,-2.1606,-2.1409,-2.1257,-2.1038,-2.0788,-2.0778,-2.0742,-2.0836,-2.1326,-2.1629,-2.1631,-2.1899,-2.2106,-2.2282,-2.2327,-2.2265,-2.2089,-2.222,-2.226,-2.2368,-2.2729,-2.3069,-2.3346,-2.3562,-2.3996,-2.4094,-2.4151,-2.417,-2.4151,-2.417,-2.4247,-2.4428,-2.4575,-2.4689,-2.4872,-2.5077,-2.5184,-2.5264,-2.5313,-2.5313,-2.5313,-2.5313,-2.5332,-0.6261,-0.6261,-0.6261,-0.6261,-0.6261,-0.6261,-0.6261,-0.6261,-0.6261,-0.6247,-0.6227,-0.6247,-0.6235,-0.6129,-0.603,-0.6016,-0.5997,-0.594,-0.5798,-0.5659,-0.5645,-0.602,-0.6654,-0.6719,-0.7046,-0.7697,-0.7897,-0.7437,-0.6789,-0.7372,-0.7702,-0.7832,-0.7897,-0.7962,-0.8027,-0.8812,-0.9268,-0.946,-1.004,-1.0491,-1.0555,-1.0561,-1.0618,-1.0618,-1.0744,-1.117,-1.1826,-1.3295,-1.4094,-1.4332,-1.4932,-1.5352,-1.5468,-1.6036,-1.6482,-1.6821,-1.7852,-1.8543,-1.8821,-1.9379,-1.9695,-1.985,-2.0396,-2.067,-2.0654,-2.1067,-2.1444,-2.147,-2.1517,-2.1633,-2.1638,-2.1625,-2.1662,-2.1636,-2.1219,-2.112,-2.1466,-2.1659,-2.159,-2.1399,-2.1689,-2.1842,-2.1724,-2.1814,-2.2002,-2.222,-2.2257,-2.2103,-2.1751,-2.1928,-2.2032,-2.1924,-2.2324,-2.2848,-2.2923,-2.3021,-2.3544,-2.3937,-2.4054,-2.4094,-2.4034,-2.4016,-2.4134,-2.4302,-2.4459,-2.4586,-2.4733,-2.4937,-2.5077,-2.5171,-2.5214,-2.5274,-2.5313,-2.5313,-2.5313,-0.6261,-0.6261,-0.6261,-0.6261,-0.6261,-0.6261,-0.6261,-0.6261,-0.6261,-0.6261,-0.6261,-0.6261,-0.6311,-0.6196,-0.6186,-0.6101,-0.5962,-0.5901,-0.5759,-0.5555,-0.5521,-0.5592,-0.5771,-0.5818,-0.5947,-0.6145,-0.621,-0.6079,-0.5947,-0.6145,-0.621,-0.6272,-0.6854,-0.7111,-0.7177,-0.7957,-0.842,-0.8484,-0.9268,-0.9722,-0.9786,-1.0301,-1.0561,-1.0618,-1.0618,-1.0744,-1.0989,-1.202,-1.3053,-1.4076,-1.4451,-1.4805,-1.5284,-1.5642,-1.5968,-1.6492,-1.6877,-1.7739,-1.8562,-1.8939,-1.9254,-1.9695,-2.0003,-2.0105,-2.0105,-2.0283,-2.062,-2.0966,-2.1064,-2.121,-2.152,-2.1307,-2.1285,-2.1657,-2.1499,-2.141,-2.1709,-2.1754,-2.1684,-2.1659,-2.1932,-2.2139,-2.2146,-2.2245,-2.236,-2.2167,-2.2166,-2.194,-2.147,-2.1732,-2.1794,-2.1672,-2.2241,-2.2695,-2.2712,-2.2832,-2.3153,-2.35,-2.3671,-2.3816,-2.3795,-2.3917,-2.4037,-2.4173,-2.4338,-2.4491,-2.4648,-2.4762,-2.4917,-2.503,-2.5077,-2.5163,-2.5264,-2.5303,-2.5303,-0.6261,-0.6261,-0.6261,-0.6261,-0.6261,-0.6261,-0.6261,-0.6261,-0.6261,-0.6261,-0.6261,-0.6261,-0.6261,-0.6261,-0.6261,-0.6207,-0.6122,-0.6115,-0.5983,-0.5769,-0.5684,-0.5589,-0.5518,-0.5382,-0.5428,-0.5428,-0.5428,-0.5428,-0.5428,-0.5428,-0.5428,-0.5557,-0.5943,-0.6203,-0.6268,-0.7051,-0.7502,-0.7632,-0.8355,-0.8941,-0.9332,-0.9856,-1.0301,-1.0555,-1.0618,-1.0618,-1.0618,-1.1108,-1.195,-1.3114,-1.3537,-1.4145,-1.4874,-1.4991,-1.5274,-1.5979,-1.6379,-1.6946,-1.7793,-1.8089,-1.8602,-1.9209,-1.9414,-1.9527,-1.9695,-1.9798,-2.0055,-2.0346,-2.0459,-2.057,-2.0868,-2.0683,-2.0744,-2.1287,-2.1328,-2.1567,-2.1921,-2.2282,-2.2263,-2.2239,-2.2319,-2.2378,-2.2393,-2.2487,-2.269,-2.2404,-2.2378,-2.216,-2.1786,-2.207,-2.2084,-2.2139,-2.2509,-2.2705,-2.2588,-2.2669,-2.2824,-2.3032,-2.323,-2.3346,-2.3414,-2.3714,-2.3919,-2.4095,-2.4266,-2.4392,-2.4524,-2.4604,-2.4727,-2.4836,-2.4949,-2.5065,-2.5163,-2.5274,-2.5303,-0.6261,-0.6261,-0.6261,-0.6261,-0.6261,-0.6261,-0.6261,-0.6261,-0.6261,-0.6261,-0.6261,-0.6261,-0.6261,-0.6261,-0.6261,-0.6251,-0.6254,-0.624,-0.6169,-0.6023,-0.5905,-0.5759,-0.5569,-0.5494,-0.5428,-0.5428,-0.5428,-0.5428,-0.5428,-0.5428,-0.5428,-0.5425,-0.5491,-0.5425,-0.5686,-0.6268,-0.6588,-0.6719,-0.7502,-0.8285,-0.8941,-0.9204,-0.9652,-1.0364,-1.0428,-1.0491,-1.0618,-1.0681,-1.1045,-1.1834,-1.2696,-1.3433,-1.4025,-1.4145,-1.4619,-1.5342,-1.6036,-1.6425,-1.6681,-1.7233,-1.785,-1.8553,-1.8684,-1.8939,-1.9371,-1.9371,-1.9463,-1.9683,-1.9734,-1.9798,-1.9888,-1.9901,-2.0169,-2.0633,-2.1062,-2.1653,-2.2557,-2.3167,-2.3161,-2.2832,-2.2724,-2.2681,-2.2532,-2.2548,-2.2645,-2.2781,-2.2823,-2.2561,-2.2327,-2.2378,-2.2812,-2.2948,-2.2934,-2.3177,-2.3187,-2.288,-2.3,-2.3005,-2.3033,-2.2925,-2.3087,-2.341,-2.3692,-2.3878,-2.4152,-2.4284,-2.4356,-2.4391,-2.4543,-2.4697,-2.4804,-2.493,-2.5057,-2.5192,-2.5293,-0.6261,-0.6261,-0.6261,-0.6261,-0.6261,-0.6261,-0.6261,-0.6261,-0.6257,-0.618,-0.6257,-0.6261,-0.6257,-0.6261,-0.6257,-0.6261,-0.618,-0.618,-0.6247,-0.62,-0.6166,-0.5918,-0.5623,-0.5571,-0.5502,-0.5435,-0.5432,-0.5428,-0.5428,-0.5428,-0.5428,-0.5428,-0.5428,-0.5428,-0.5491,-0.5686,-0.5752,-0.5881,-0.6593,-0.7111,-0.7502,-0.8091,-0.8748,-0.9524,-0.9652,-0.9977,-1.0491,-1.0618,-1.0982,-1.1772,-1.2573,-1.307,-1.3312,-1.3786,-1.4204,-1.4619,-1.5235,-1.5944,-1.6413,-1.6654,-1.7101,-1.7799,-1.7907,-1.7961,-1.8124,-1.8178,-1.8447,-1.8821,-1.898,-1.9202,-1.9631,-1.9747,-1.9888,-2.0181,-2.1121,-2.213,-2.2615,-2.3198,-2.352,-2.3385,-2.334,-2.326,-2.3209,-2.3145,-2.3091,-2.2894,-2.2797,-2.2705,-2.2524,-2.258,-2.2984,-2.3156,-2.3276,-2.367,-2.3761,-2.3405,-2.3214,-2.3141,-2.2937,-2.2504,-2.273,-2.3007,-2.323,-2.3397,-2.3937,-2.4172,-2.4096,-2.4078,-2.4284,-2.4559,-2.4697,-2.4836,-2.4998,-2.5152,-2.5253,-0.4999,-0.5002,-0.547,-0.5392,-0.5076,-0.5473,-0.5392,-0.5079,-0.547,-0.5315,-0.5157,-0.547,-0.5631,-0.5631,-0.5157,-0.5237,-0.555,-0.516,-0.4921,-0.4999,-0.5378,-0.5607,-0.5701,-0.5662,-0.5529,-0.5514,-0.5459,-0.5428,-0.5428,-0.5428,-0.5428,-0.5428,-0.5428,-0.5428,-0.5428,-0.5428,-0.5428,-0.5491,-0.5947,-0.6264,-0.6719,-0.7177,-0.7897,-0.8549,-0.8748,-0.9134,-0.9913,-1.0364,-1.0863,-1.1288,-1.1725,-1.2151,-1.2512,-1.2931,-1.3476,-1.4085,-1.4628,-1.5215,-1.5868,-1.6039,-1.64,-1.6976,-1.7146,-1.7313,-1.7578,-1.7633,-1.7841,-1.8178,-1.8221,-1.8436,-1.8821,-1.915,-1.931,-1.952,-2.0886,-2.1978,-2.2265,-2.3081,-2.3507,-2.3595,-2.3595,-2.3595,-2.3595,-2.3595,-2.343,-2.3203,-2.3125,-2.296,-2.2761,-2.294,-2.3079,-2.3335,-2.3487,-2.3799,-2.377,-2.3407,-2.3208,-2.3139,-2.305,-2.2547,-2.2545,-2.2773,-2.3038,-2.3305,-2.3732,-2.3996,-2.3937,-2.3958,-2.4172,-2.4428,-2.4578,-2.4731,-2.4891,-2.5018,-2.5138,-0.3124,-0.3202,-0.4139,-0.3984,-0.3435,-0.4139,-0.4062,-0.3437,-0.4139,-0.4062,-0.3591,-0.4139,-0.453,-0.4453,-0.3826,-0.3671,-0.445,-0.3826,-0.3437,-0.3669,-0.4126,-0.4757,-0.5333,-0.5647,-0.5638,-0.5562,-0.544,-0.5452,-0.5435,-0.5428,-0.5428,-0.5428,-0.5428,-0.5428,-0.5428,-0.5428,-0.5428,-0.5428,-0.5491,-0.5815,-0.6264,-0.6527,-0.6985,-0.7762,-0.835,-0.8748,-0.946,-1.0104,-1.0618,-1.0618,-1.0618,-1.1045,-1.1648,-1.171,-1.2443,-1.3597,-1.4085,-1.4628,-1.5177,-1.542,-1.5671,-1.626,-1.6415,-1.6652,-1.7024,-1.7135,-1.7191,-1.7468,-1.7457,-1.7567,-1.7895,-1.834,-1.8754,-1.9049,-2.0065,-2.1009,-2.1674,-2.2746,-2.3508,-2.3551,-2.3508,-2.3595,-2.3595,-2.3595,-2.358,-2.3415,-2.3385,-2.3295,-2.3218,-2.3371,-2.348,-2.3593,-2.3752,-2.3899,-2.3638,-2.3327,-2.3186,-2.3098,-2.3112,-2.287,-2.2632,-2.2796,-2.301,-2.3277,-2.354,-2.3753,-2.3837,-2.3958,-2.417,-2.4303,-2.4462,-2.461,-2.4712,-2.4842,-2.4968,-0.3124,-0.3124,-0.3357,-0.3279,-0.3124,-0.3357,-0.3279,-0.3046,-0.3279,-0.3281,-0.3124,-0.3357,-0.3435,-0.3437,-0.3124,-0.3279,-0.3359,-0.3124,-0.3124,-0.3122,-0.3269,-0.3498,-0.4094,-0.5061,-0.5656,-0.5534,-0.5493,-0.5474,-0.5326,-0.5226,-0.5362,-0.5359,-0.5359,-0.5428,-0.5428,-0.5428,-0.5428,-0.5428,-0.5428,-0.5491,-0.5686,-0.5815,-0.6141,-0.6981,-0.8221,-0.9011,-0.9402,-1.0174,-1.0561,-1.0618,-1.0618,-1.0737,-1.0982,-1.1469,-1.1958,-1.2565,-1.3537,-1.4204,-1.451,-1.4991,-1.5459,-1.5671,-1.5728,-1.568,-1.5806,-1.5968,-1.6197,-1.6539,-1.6765,-1.6922,-1.7401,-1.8232,-1.8543,-1.8882,-1.9851,-2.0772,-2.1158,-2.2109,-2.2785,-2.3009,-2.3275,-2.3595,-2.3551,-2.3551,-2.3551,-2.3595,-2.3595,-2.3595,-2.3666,-2.3764,-2.3766,-2.3728,-2.3856,-2.3958,-2.3936,-2.3629,-2.3447,-2.3359,-2.3342,-2.3408,-2.3187,-2.2767,-2.2972,-2.3137,-2.3289,-2.3473,-2.3692,-2.3996,-2.4209,-2.4284,-2.4358,-2.4478,-2.4591,-2.47,-2.4804,-0.1644,-0.1721,-0.219,-0.2112,-0.18,-0.2189,-0.2112,-0.18,-0.2189,-0.2112,-0.1878,-0.2111,-0.2425,-0.2347,-0.1878,-0.1878,-0.2189,-0.1878,-0.1956,-0.2267,-0.2421,-0.2655,-0.3202,-0.3973,-0.4548,-0.4367,-0.4206,-0.4193,-0.4247,-0.4553,-0.4686,-0.4821,-0.5156,-0.5362,-0.5428,-0.5362,-0.5428,-0.5428,-0.5428,-0.5428,-0.5428,-0.5428,-0.5557,-0.6334,-0.7702,-0.8689,-0.877,-0.9989,-1.0491,-1.0618,-1.0618,-1.0618,-1.0618,-1.0989,-1.1344,-1.1958,-1.2443,-1.3537,-1.4085,-1.4569,-1.4991,-1.541,-1.542,-1.542,-1.542,-1.542,-1.5526,-1.5874,-1.6036,-1.6197,-1.6574,-1.7622,-1.8074,-1.8425,-1.9455,-2.0271,-2.0514,-2.1437,-2.2392,-2.2543,-2.2665,-2.3084,-2.326,-2.3319,-2.3465,-2.3508,-2.3595,-2.3595,-2.3595,-2.3666,-2.3694,-2.3746,-2.3855,-2.3994,-2.4092,-2.4008,-2.3801,-2.3772,-2.3824,-2.3951,-2.3984,-2.3459,-2.2946,-2.305,-2.3161,-2.3387,-2.3631,-2.3937,-2.417,-2.4228,-2.4284,-2.4393,-2.4444,-2.4495,-2.4639,0.0,0.0,-0.0941,-0.0863,-0.0235,-0.0941,-0.0863,-0.0314,-0.0941,-0.0941,-0.0314,-0.102,-0.1333,-0.1176,-0.0549,-0.0628,-0.0941,-0.0706,-0.0784,-0.1254,-0.1333,-0.1723,-0.227,-0.2497,-0.2533,-0.2487,-0.2851,-0.2911,-0.3105,-0.3413,-0.3816,-0.3949,-0.4486,-0.4818,-0.502,-0.516,-0.5226,-0.5359,-0.5428,-0.5428,-0.5428,-0.5428,-0.5425,-0.5818,-0.7186,-0.8042,-0.8511,-0.9606,-1.0618,-1.0618,-1.0618,-1.0618,-1.0618,-1.0618,-1.0807,-1.1593,-1.1834,-1.2626,-1.3666,-1.4145,-1.4569,-1.5294,-1.542,-1.542,-1.542,-1.542,-1.5468,-1.541,-1.5526,-1.5526,-1.5517,-1.6631,-1.7413,-1.7829,-1.8862,-1.9579,-1.9991,-2.0805,-2.1534,-2.2114,-2.2193,-2.2455,-2.286,-2.3113,-2.3246,-2.3421,-2.3508,-2.3551,-2.3551,-2.3595,-2.3623,-2.3666,-2.3756,-2.3786,-2.3906,-2.3945,-2.3788,-2.3896,-2.4037,-2.4271,-2.4446,-2.4133,-2.357,-2.3045,-2.3092,-2.3265,-2.3477,-2.3735,-2.3917,-2.4074,-2.4209,-2.4303,-2.4321,-2.4303,-2.4426,0.0,0.0,-0.0157,0.0,0.0,0.0,0.0,-0.0079,0.0,0.0,0.0,0.0,0.0,0.0,0.0,0.0,0.0,0.0,0.0,0.0,0.0,0.0,0.0,0.0,0.0,-0.0978,-0.1749,-0.2528,-0.2576,-0.288,-0.2878,-0.2945,-0.3213,-0.3544,-0.4077,-0.4278,-0.4619,-0.5153,-0.5226,-0.5292,-0.5362,-0.5428,-0.5428,-0.5561,-0.699,-0.7782,-0.8317,-0.9606,-1.0618,-1.0618,-1.0618,-1.0618,-1.0618,-1.0618,-1.0681,-1.0926,-1.1406,-1.2143,-1.3183,-1.3846,-1.451,-1.5177,-1.542,-1.542,-1.542,-1.542,-1.542,-1.542,-1.542,-1.542,-1.541,-1.6255,-1.6933,-1.7589,-1.834,-1.9202,-1.9683,-2.0144,-2.0534,-2.1113,-2.1486,-2.1946,-2.2483,-2.2875,-2.3009,-2.3275,-2.3551,-2.3508,-2.3377,-2.3465,-2.3595,-2.3595,-2.361,-2.361,-2.3666,-2.3666,-2.3676,-2.3815,-2.3973,-2.4233,-2.4383,-2.458,-2.4281,-2.3731,-2.3165,-2.3014,-2.3265,-2.3513,-2.3631,-2.3756,-2.3958,-2.4152,-2.4075,-2.3998,-2.4114,0.0,0.0,0.0,0.0,0.0,0.0,0.0,0.0,0.0,0.0,0.0,0.0,0.0,0.0,0.0,0.0,0.0,0.0,0.0,0.0,0.0,0.0,0.0,0.0,0.0,0.0,-0.0957,0.0,-0.1374,-0.1754,-0.1945,-0.2075,-0.241,-0.2943,-0.3209,-0.3345,-0.3811,-0.448,-0.4683,-0.4954,-0.5359,-0.5362,-0.5428,-0.5752,-0.6597,-0.7447,-0.8242,-0.9145,-1.011,-1.0498,-1.0618,-1.0618,-1.0618,-1.0618,-1.0618,-1.0681,-1.0982,-1.1779,-1.2765,-1.3485,-1.4085,-1.5235,-1.542,-1.542,-1.542,-1.542,-1.542,-1.542,-1.542,-1.542,-1.541,-1.6036,-1.6814,-1.7509,-1.823,-1.8951,-1.9527,-1.9747,-1.9991,-2.0245,-2.0421,-2.1135,-2.2392,-2.268,-2.2815,-2.3084,-2.3508,-2.3363,-2.3187,-2.3319,-2.3437,-2.3465,-2.3465,-2.3595,-2.3595,-2.3595,-2.3595,-2.3709,-2.3891,-2.4157,-2.4428,-2.4616,-2.4636,-2.4315,-2.3789,-2.334,-2.2946,-2.3197,-2.3324,-2.3437,-2.3566,-2.3671,-2.3671,-2.371,-2.3834,0.0,0.0,0.0,0.0,0.0,0.0,0.0,0.0,0.0,0.0,0.0,0.0,0.0,0.0,0.0,0.0,0.0,0.0,0.0,0.0,0.0,0.0,0.0,0.0,0.0,0.0,0.0,0.0,0.0,-0.0748,-0.1008,-0.1208,-0.181,-0.228,-0.2347,-0.2412,-0.2941,-0.3476,-0.3742,-0.4215,-0.4888,-0.5292,-0.5428,-0.5491,-0.6272,-0.7051,-0.7666,-0.8554,-0.9448,-1.0021,-1.0288,-1.0371,-1.0555,-1.0618,-1.0618,-1.0618,-1.0618,-1.1421,-1.2336,-1.3009,-1.3726,-1.4874,-1.5294,-1.5352,-1.542,-1.542,-1.542,-1.542,-1.542,-1.542,-1.5468,-1.5921,-1.6545,-1.722,-1.7968,-1.8661,-1.9044,-1.9254,-1.9423,-1.9579,-1.9592,-2.0458,-2.1866,-2.23,-2.2377,-2.277,-2.3187,-2.2846,-2.268,-2.3065,-2.3215,-2.3231,-2.3319,-2.3551,-2.3595,-2.3595,-2.3595,-2.3638,-2.3837,-2.4066,-2.4366,-2.4681,-2.4628,-2.4625,-2.4688,-2.4213,-2.3577,-2.2911,-2.301,-2.3117,-2.3165,-2.3253,-2.3392,-2.3455,-2.3544,0.0,0.0,0.0,0.0,0.0,0.0,0.0,0.0,0.0,0.0,0.0,0.0,0.0,0.0,0.0,0.0,0.0,0.0,0.0,0.0,0.0,0.0,0.0,0.0,0.0,0.0,0.0,0.0,0.0,0.0,0.0,0.0,0.0,-0.0741,-0.1413,-0.1477,-0.1942,-0.2681,-0.288,-0.3345,-0.4215,-0.4957,-0.5226,-0.562,-0.6141,-0.6741,-0.703,-0.7792,-0.8533,-0.9336,-0.9506,-0.9856,-1.0434,-1.0618,-1.0618,-1.0618,-1.0681,-1.0989,-1.1896,-1.2512,-1.3252,-1.4204,-1.4805,-1.5294,-1.5294,-1.5294,-1.5294,-1.542,-1.542,-1.542,-1.542,-1.5526,-1.5946,-1.6566,-1.732,-1.7722,-1.807,-1.8939,-1.9097,-1.915,-1.9267,-2.0244,-2.1459,-2.171,-2.196,-2.2438,-2.2694,-2.2392,-2.2207,-2.252,-2.3199,-2.329,-2.3319,-2.3508,-2.3595,-2.3595,-2.3551,-2.3595,-2.3724,-2.3921,-2.4199,-2.4453,-2.4772,-2.4835,-2.4928,-2.4681,-2.3809,-2.3209,-2.2928,-2.2746,-2.2703,-2.293,-2.3212,-2.3253,-2.3224,0.1409,0.0863,0.0235,0.0,0.0,0.0,0.0,0.0,0.0,0.0,0.0,0.0706,0.0863,0.0784,0.0314,0.0,0.0,0.0,0.0,0.0,0.0,0.0,0.0,0.0,0.0,0.0,0.0,0.0,0.0,0.0,0.0,0.0,0.0,-0.0202,0.0,0.0,-0.1075,-0.1811,-0.241,-0.3145,-0.388,-0.4417,-0.4888,-0.5359,-0.5815,-0.6234,-0.6643,-0.7012,-0.7731,-0.8447,-0.8927,-0.946,-0.9913,-1.0301,-1.0618,-1.0618,-1.0618,-1.0982,-1.171,-1.2135,-1.2749,-1.3304,-1.3906,-1.4154,-1.4569,-1.4756,-1.4991,-1.5352,-1.541,-1.542,-1.541,-1.542,-1.582,-1.6372,-1.6814,-1.7145,-1.7523,-1.8286,-1.8833,-1.8886,-1.9085,-1.9978,-2.0779,-2.1099,-2.139,-2.1913,-2.2067,-2.1833,-2.1724,-2.1813,-2.2632,-2.348,-2.3508,-2.3595,-2.3595,-2.3595,-2.3551,-2.3551,-2.3595,-2.3794,-2.3906,-2.4178,-2.4553,-2.4649,-2.4515,-2.4172,-2.3736,-2.3219,-2.268,-2.2412,-2.2214,-2.2485,-2.2738,-2.2747,-2.2798,0.3047,0.227,0.1254,0.0784,0.0784,0.0784,0.0,0.0,0.0,0.0,0.0941,0.1645,0.1957,0.1879,0.1254,0.0,0.0,0.0784,0.0784,0.0706,0.0549,0.0,0.0,0.0,0.0,0.0,0.0,0.0,0.0,0.0,0.0,0.0,0.0,0.0,0.0,0.0,-0.0471,-0.094,-0.1809,-0.2542,-0.3145,-0.3813,-0.435,-0.4891,-0.5296,-0.5704,-0.625,-0.6358,-0.6836,-0.7635,-0.8132,-0.8613,-0.9332,-0.9849,-1.0364,-1.0491,-1.0618,-1.08,-1.1351,-1.1717,-1.2081,-1.2512,-1.3009,-1.3433,-1.3795,-1.3906,-1.4204,-1.4932,-1.4991,-1.5108,-1.5352,-1.542,-1.5644,-1.6032,-1.6405,-1.674,-1.709,-1.7633,-1.8124,-1.8286,-1.8608,-1.9347,-2.0067,-2.0396,-2.0832,-2.1342,-2.139,-2.1272,-2.1334,-2.1444,-2.2253,-2.3275,-2.3231,-2.3231,-2.3231,-2.3319,-2.3363,-2.3406,-2.345,-2.3595,-2.3752,-2.4063,-2.4449,-2.4374,-2.4256,-2.4052,-2.3787,-2.31,-2.244,-2.2344,-2.2224,-2.2111,-2.2175,-2.2265,-2.2544,0.453,0.4375,0.3359,0.2812,0.2812,0.289,0.2812,0.2656,0.2734,0.2734,0.2735,0.289,0.289,0.289,0.2735,0.2578,0.2812,0.2888,0.2656,0.2347,0.2035,0.1567,0.1254,0.0,0.0,0.0,0.0,0.0,0.0,0.0,0.0,0.0,0.0,0.0,0.0,0.0,0.0,0.0,-0.1074,-0.1475,-0.2143,-0.2945,-0.3882,-0.4284,-0.4891,-0.5428,-0.5498,-0.5624,-0.5947,-0.6736,-0.712,-0.7702,-0.8678,-0.9332,-0.9849,-1.0238,-1.0561,-1.0681,-1.0926,-1.1351,-1.171,-1.2074,-1.2381,-1.2757,-1.3061,-1.307,-1.3485,-1.4204,-1.4392,-1.4746,-1.5108,-1.542,-1.5498,-1.5672,-1.5972,-1.6066,-1.6368,-1.6652,-1.7135,-1.7523,-1.8112,-1.8756,-1.9073,-1.9399,-2.0093,-2.0657,-2.0881,-2.0759,-2.1233,-2.1491,-2.2203,-2.283,-2.283,-2.2785,-2.274,-2.2725,-2.2711,-2.2891,-2.3084,-2.3275,-2.3508,-2.3867,-2.4219,-2.4287,-2.4209,-2.403,-2.3733,-2.3045,-2.2487,-2.2427,-2.2287,-2.2098,-2.2144,-2.2332,-2.266,0.5705,0.5628,0.5237,0.4295,0.3124,0.3124,0.3124,0.3124,0.3127,0.3517,0.4062,0.3437,0.3435,0.3748,0.3279,0.3124,0.3124,0.3124,0.3202,0.3046,0.2657,0.2579,0.2267,0.2111,0.0,0.1796,0.1854,0.1905,0.0,0.1307,0.0991,0.0,0.0409,0.0,0.0,0.0,0.0,0.0,0.0,-0.0672,-0.1408,-0.1876,-0.2878,-0.4015,-0.4217,-0.4891,-0.5296,-0.5362,-0.5617,-0.5939,-0.6392,-0.7111,-0.7892,-0.8613,-0.9332,-0.9856,-1.0174,-1.0498,-1.0561,-1.0863,-1.1045,-1.1115,-1.1358,-1.1787,-1.2212,-1.2266,-1.2696,-1.3243,-1.3846,-1.4264,-1.4569,-1.5108,-1.542,-1.5468,-1.5526,-1.5584,-1.5758,-1.6093,-1.6482,-1.7034,-1.7468,-1.795,-1.8167,-1.8382,-1.919,-1.994,-2.0118,-2.0398,-2.0914,-2.1301,-2.1902,-2.2282,-2.2235,-2.2161,-2.2114,-2.21,-2.21,-2.2331,-2.262,-2.286,-2.3098,-2.3566,-2.3839,-2.3985,-2.3985,-2.3721,-2.333,-2.2869,-2.26,-2.2536,-2.2344,-2.2066,-2.2199,-2.244,-2.276,0.6261,0.6261,0.6261,0.547,0.4139,0.4059,0.4062,0.4062,0.4144,0.4457,0.5157,0.4375,0.4453,0.4766,0.453,0.4139,0.4295,0.4217,0.4139,0.3984,0.3906,0.3671,0.3435,0.3202,0.2812,0.3124,0.3119,0.3006,0.2859,0.2297,0.2103,0.1697,0.0,0.0,0.0,0.0,0.0,0.0,0.0,0.0,-0.0873,-0.1274,-0.1675,-0.3078,-0.3413,-0.3816,-0.4353,-0.4619,-0.4891,-0.5216,-0.5675,-0.633,-0.7046,-0.7697,-0.8549,-0.9075,-0.9658,-1.0174,-1.0238,-1.0498,-1.0561,-1.0744,-1.0681,-1.1052,-1.1296,-1.1476,-1.1841,-1.2573,-1.3174,-1.3674,-1.3983,-1.4697,-1.5177,-1.5284,-1.541,-1.5526,-1.5584,-1.5816,-1.6151,-1.6595,-1.6989,-1.7324,-1.771,-1.7984,-1.8483,-1.9279,-1.9798,-2.0182,-2.0738,-2.1099,-2.1277,-2.1527,-2.1623,-2.15,-2.1424,-2.1438,-2.1438,-2.1629,-2.1913,-2.2253,-2.2575,-2.2995,-2.3083,-2.2977,-2.2978,-2.3128,-2.2922,-2.2525,-2.2555,-2.2709,-2.2524,-2.2375,-2.2459,-2.2716,-2.2872,0.6261,0.6261,0.6261,0.618,0.6022,0.618,0.6103,0.5864,0.5948,0.6025,0.6103,0.5944,0.5944,0.6103,0.5786,0.5709,0.5709,0.5864,0.5864,0.555,0.5002,0.4688,0.4375,0.3984,0.3826,0.3202,0.3509,0.3707,0.3408,0.3229,0.3106,0.2823,0.2044,0.0,0.0,0.0,0.0,0.0,0.0,0.0,-0.0269,-0.0806,-0.1274,-0.1809,-0.241,-0.2878,-0.3347,-0.3749,-0.4082,-0.4414,-0.5017,-0.5675,-0.6527,-0.6785,-0.7372,-0.8021,-0.8812,-0.9268,-0.9338,-1.011,-1.0428,-1.0555,-1.0618,-1.0681,-1.0681,-1.0744,-1.1038,-1.1877,-1.2158,-1.283,-1.3528,-1.4345,-1.4827,-1.5181,-1.5398,-1.5674,-1.5772,-1.5841,-1.6256,-1.6473,-1.6587,-1.6751,-1.7245,-1.77,-1.7986,-1.8625,-1.9344,-1.9965,-2.0461,-2.0699,-2.0759,-2.0809,-2.0894,-2.0832,-2.0769,-2.0782,-2.0845,-2.0979,-2.1113,-2.1328,-2.1697,-2.2072,-2.2033,-2.1916,-2.2176,-2.2563,-2.2438,-2.2229,-2.2469,-2.2742,-2.2938,-2.2893,-2.2933,-2.2967,-2.3047,0.6261,0.6261,0.6261,0.6261,0.6261,0.6261,0.6261,0.6261,0.6261,0.6261,0.6261,0.6261,0.6261,0.6261,0.6261,0.6261,0.6261,0.6261,0.6261,0.618,0.5789,0.5789,0.555,0.5237,0.5079,0.5234,0.5231,0.5068,0.5337,0.4576,0.4218,0.3916,0.2936,0.1587,0.0,0.0,0.0,0.0,0.0,0.0,0.0,0.0,-0.0739,-0.1207,-0.1609,-0.2009,-0.2477,-0.2947,-0.3278,-0.3747,-0.435,-0.4951,-0.5807,-0.6137,-0.6785,-0.7307,-0.7962,-0.842,-0.8678,-0.9198,-0.9983,-1.0308,-1.0561,-1.0561,-1.0631,-1.0624,-1.0896,-1.1297,-1.1774,-1.2439,-1.3042,-1.4357,-1.5106,-1.5376,-1.5654,-1.6181,-1.6387,-1.6377,-1.652,-1.6602,-1.6647,-1.6547,-1.6848,-1.7249,-1.7614,-1.7969,-1.8669,-1.9364,-1.9926,-2.0029,-2.0105,-2.0156,-2.0194,-2.0156,-2.0105,-1.9927,-1.9709,-1.9633,-1.9876,-2.0218,-2.0604,-2.0922,-2.1301,-2.1278,-2.1648,-2.1988,-2.1921,-2.1969,-2.2486,-2.2817,-2.2793,-2.2963,-2.3075,-2.3072,-2.31,0.6261,0.6261,0.6261,0.6261,0.6261,0.6261,0.6261,0.6261,0.6261,0.6261,0.6261,0.6261,0.6261,0.6261,0.6261,0.6261,0.6261,0.6261,0.6261,0.6261,0.6257,0.618,0.6257,0.6261,0.6022,0.6261,0.6261,0.6177,0.6086,0.5539,0.5011,0.4484,0.3935,0.2688,0.0,0.0,0.0,0.0,0.0,0.0,0.0,0.0,0.0,-0.0672,-0.094,-0.1141,-0.1677,-0.2078,-0.2477,-0.3078,-0.368,-0.4217,-0.5017,-0.5679,-0.6199,-0.6465,-0.6985,-0.7637,-0.8156,-0.8415,-0.911,-0.9545,-1.0174,-1.0621,-1.0745,-1.0742,-1.0902,-1.13,-1.1699,-1.2166,-1.2878,-1.4255,-1.4601,-1.4863,-1.531,-1.5771,-1.5827,-1.567,-1.5735,-1.5909,-1.6002,-1.5992,-1.6367,-1.6815,-1.7172,-1.7584,-1.8027,-1.8661,-1.9271,-1.9287,-1.9356,-1.9423,-1.9254,-1.9032,-1.898,-1.8874,-1.8661,-1.8394,-1.8638,-1.9036,-1.9169,-1.9482,-2.0062,-2.0585,-2.0682,-2.0877,-2.134,-2.1678,-2.1777,-2.2038,-2.2233,-2.2584,-2.308,-2.3155,-2.3073,0.6261,0.6261,0.6261,0.6261,0.6261,0.6261,0.6261,0.6261,0.6261,0.6261,0.6261,0.6261,0.6261,0.6261,0.6261,0.6261,0.6261,0.6261,0.6261,0.6261,0.6261,0.6261,0.6261,0.6261,0.6261,0.6261,0.6261,0.6261,0.6261,0.6069,0.5536,0.5084,0.4792,0.386,0.2898,0.206,0.1288,0.0,0.0,0.0,0.0,0.0,0.0,0.0,0.0,0.0,0.0,-0.0941,-0.1274,-0.2008,-0.2876,-0.3613,-0.4284,-0.4888,-0.5226,-0.569,-0.6334,-0.692,-0.7512,-0.7712,-0.8022,-0.8527,-0.9592,-1.0347,-1.0778,-1.0744,-1.0888,-1.1255,-1.1635,-1.2079,-1.2682,-1.3112,-1.3473,-1.3803,-1.4263,-1.4388,-1.4455,-1.4446,-1.4455,-1.4538,-1.463,-1.4904,-1.5796,-1.636,-1.6878,-1.7369,-1.7743,-1.7995,-1.8419,-1.8421,-1.8515,-1.8608,-1.834,-1.7907,-1.7852,-1.807,-1.7852,-1.7688,-1.7578,-1.7884,-1.7915,-1.8097,-1.8641,-1.9125,-1.9418,-1.9762,-2.0245,-2.0497,-2.0568,-2.089,-2.1213,-2.2005,-2.2492,-2.2884,-2.2939,0.6261,0.6261,0.6261,0.6261,0.6261,0.6261,0.6261,0.6261,0.6261,0.6261,0.6261,0.6261,0.6261,0.6261,0.6261,0.6261,0.6261,0.6261,0.6261,0.6261,0.6261,0.6261,0.6261,0.6261,0.6261,0.6261,0.6261,0.6261,0.6261,0.6261,0.6254,0.5886,0.556,0.4924,0.4297,0.3598,0.2825,0.1959,0.1349,0.094,0.0672,0.0336,0.0,0.0,0.0,0.0,0.0,0.0,0.0,-0.1407,-0.1809,-0.2477,-0.4015,-0.4284,-0.4553,-0.5359,-0.5686,-0.5951,-0.623,-0.6852,-0.7234,-0.7464,-0.8434,-0.9343,-0.989,-1.0367,-1.0679,-1.1185,-1.1666,-1.2122,-1.2487,-1.2805,-1.3079,-1.3352,-1.3762,-1.4032,-1.4039,-1.4039,-1.4039,-1.4101,-1.4109,-1.4583,-1.5477,-1.6033,-1.658,-1.7125,-1.7486,-1.7667,-1.7701,-1.772,-1.7834,-1.7934,-1.7567,-1.7135,-1.7413,-1.7622,-1.7246,-1.6978,-1.6922,-1.681,-1.6901,-1.7147,-1.739,-1.7827,-1.8324,-1.872,-1.9137,-1.931,-1.9416,-1.9635,-2.0001,-2.1021,-2.1895,-2.2168,-2.2591,0.6261,0.6261,0.6261,0.6261,0.6261,0.6261,0.6261,0.6261,0.6261,0.6261,0.6261,0.6261,0.6261,0.6261,0.6261,0.6261,0.6261,0.6261,0.6261,0.6261,0.6335,0.6261,0.6261,0.6335,0.6261,0.6261,0.6261,0.6261,0.6261,0.6261,0.6254,0.6244,0.6149,0.5783,0.5309,0.489,0.4558,0.3608,0.272,0.1883,0.1275,0.0806,0.0471,0.0,0.0,0.0,0.0,0.0,0.0,0.0,-0.1006,-0.1742,-0.3145,-0.3478,-0.4082,-0.4821,-0.5292,-0.547,-0.5727,-0.6067,-0.6387,-0.6647,-0.7183,-0.792,-0.9026,-0.9702,-1.045,-1.1153,-1.1722,-1.2163,-1.249,-1.2725,-1.2931,-1.3142,-1.3491,-1.3917,-1.3924,-1.3924,-1.3917,-1.3981,-1.426,-1.4672,-1.5171,-1.5721,-1.6265,-1.6863,-1.7309,-1.7626,-1.7449,-1.7112,-1.7307,-1.7489,-1.6981,-1.6472,-1.6754,-1.681,-1.6394,-1.6073,-1.614,-1.6083,-1.6036,-1.6244,-1.6553,-1.6991,-1.7457,-1.7895,-1.8274,-1.8251,-1.8324,-1.8437,-1.8519,-1.9175,-2.0189,-2.1281,-2.1716,0.6563,0.6563,0.649,0.6412,0.6261,0.6261,0.6261,0.6335,0.6412,0.6412,0.649,0.6338,0.6412,0.6563,0.6412,0.6335,0.6261,0.6261,0.6261,0.6335,0.6641,0.6563,0.6335,0.6412,0.649,0.6412,0.6261,0.6261,0.6261,0.6261,0.6261,0.6261,0.6247,0.6106,0.5855,0.5777,0.5514,0.5048,0.3973,0.2927,0.1957,0.1413,0.0939,0.0269,0.0,0.0,0.0,0.0,0.0,0.0,-0.0605,-0.1141,-0.1942,-0.2878,-0.3613,-0.3966,-0.4445,-0.4889,-0.5111,-0.5471,-0.5776,-0.5908,-0.6037,-0.6836,-0.7886,-0.9269,-1.0149,-1.1016,-1.1586,-1.2125,-1.2425,-1.2519,-1.2592,-1.2666,-1.2879,-1.3091,-1.3091,-1.3091,-1.3091,-1.3164,-1.3375,-1.3875,-1.4434,-1.492,-1.547,-1.6339,-1.6734,-1.711,-1.692,-1.6456,-1.6695,-1.6908,-1.6345,-1.5772,-1.5576,-1.5566,-1.5284,-1.5108,-1.5157,-1.5274,-1.5274,-1.5449,-1.57,-1.6301,-1.6912,-1.7135,-1.7468,-1.728,-1.698,-1.6701,-1.6837,-1.728,-1.8265,-1.9419,-2.0377,0.8613,0.8542,0.7783,0.7022,0.6338,0.6261,0.6335,0.6416,0.7176,0.7403,0.7326,0.6795,0.6795,0.7326,0.6795,0.6567,0.649,0.6718,0.6335,0.6718,0.7099,0.7099,0.6718,0.7176,0.7022,0.649,0.6261,0.6335,0.6261,0.6261,0.6261,0.6261,0.6261,0.6217,0.6179,0.6108,0.5935,0.5882,0.5284,0.4284,0.347,0.2035,0.114,0.0739,0.0,0.0,0.0,0.0,0.0,0.0,0.0,-0.0672,-0.134,-0.2409,-0.2945,-0.3088,-0.3334,-0.3908,-0.437,-0.4706,-0.5099,-0.5699,-0.6023,-0.6343,-0.7141,-0.8703,-0.99,-1.0691,-1.1465,-1.1922,-1.2305,-1.2305,-1.2305,-1.2305,-1.2305,-1.2305,-1.2305,-1.2305,-1.2305,-1.2452,-1.2592,-1.3025,-1.36,-1.4171,-1.4736,-1.5155,-1.5508,-1.5695,-1.5722,-1.5551,-1.6039,-1.6179,-1.559,-1.513,-1.4827,-1.4508,-1.4348,-1.4001,-1.3965,-1.4145,-1.4392,-1.4864,-1.5342,-1.5853,-1.6368,-1.6404,-1.6291,-1.6073,-1.5728,-1.5323,-1.5419,-1.5887,-1.5857,-1.6718,-1.7928,0.9296,0.9226,0.8694,0.7859,0.7099,0.6945,0.6718,0.6493,0.6868,0.7629,0.8389,0.7936,0.7931,0.8466,0.7859,0.7557,0.7557,0.7629,0.7783,0.7931,0.8012,0.8089,0.8089,0.8165,0.8165,0.7629,0.7099,0.6872,0.6567,0.6261,0.6261,0.6335,0.6335,0.6335,0.6325,0.6166,0.6122,0.6122,0.5976,0.5564,0.4805,0.3491,0.1965,0.1552,0.0873,0.0471,0.0,0.0,0.0,0.0,0.0,0.0,-0.0806,-0.1542,-0.2008,-0.2225,-0.2529,-0.2986,-0.3436,-0.3831,-0.4302,-0.5039,-0.5463,-0.5541,-0.656,-0.7977,-0.8959,-0.989,-1.0858,-1.1391,-1.2077,-1.2305,-1.2305,-1.2305,-1.2305,-1.2305,-1.2305,-1.2305,-1.2305,-1.2305,-1.2445,-1.2519,-1.3091,-1.36,-1.4171,-1.445,-1.4665,-1.5092,-1.4931,-1.4584,-1.5155,-1.5303,-1.4754,-1.4395,-1.4098,-1.3783,-1.3549,-1.3202,-1.2891,-1.3252,-1.3674,-1.4392,-1.4982,-1.5148,-1.5264,-1.5206,-1.5031,-1.4923,-1.4501,-1.4016,-1.4186,-1.4523,-1.4387,-1.4241,-1.5234,0.9674,0.9523,0.9523,0.8917,0.8084,0.8012,0.7557,0.6868,0.6945,0.7931,0.9448,0.9674,0.9599,0.9523,0.9296,0.9296,0.9145,0.877,0.8993,0.9145,0.9372,0.9069,0.9069,0.9372,0.9145,0.8841,0.8313,0.7629,0.7099,0.7022,0.7022,0.6644,0.649,0.6412,0.6335,0.6254,0.6237,0.6207,0.6118,0.6051,0.5475,0.4899,0.334,0.2246,0.1482,0.1078,0.0,0.0,0.0,0.0,0.0,0.0,0.0,-0.0807,-0.0947,-0.1293,-0.1601,-0.2183,-0.2639,-0.2811,-0.3505,-0.411,-0.4368,-0.4999,-0.5935,-0.6626,-0.7689,-0.8908,-0.9954,-1.0783,-1.1471,-1.1855,-1.1855,-1.2077,-1.2077,-1.2231,-1.2231,-1.2231,-1.2231,-1.2231,-1.2231,-1.2224,-1.2586,-1.3171,-1.3382,-1.3738,-1.4027,-1.4522,-1.4649,-1.4109,-1.4049,-1.412,-1.383,-1.3514,-1.3421,-1.2956,-1.2629,-1.2536,-1.2284,-1.2609,-1.2956,-1.3614,-1.3965,-1.4094,-1.4085,-1.4145,-1.3965,-1.3786,-1.3312,-1.2826,-1.3364,-1.3648,-1.2915,-1.2785,-1.2793,1.1248,1.049,1.049,0.997,0.9069,0.8993,0.8917,0.8917,0.9513,1.026,1.049,1.1242,1.1316,1.0484,0.9599,0.9448,0.9744,0.9674,0.9372,0.9296,1.0196,0.997,0.982,1.0271,0.997,0.9518,0.9145,0.8922,0.8161,0.8313,0.8237,0.7557,0.748,0.7099,0.6338,0.6338,0.6254,0.6237,0.6224,0.6156,0.5793,0.5128,0.442,0.357,0.2979,0.2594,0.0,0.0,0.0,0.0,0.0,0.0,0.0,0.0,0.0,0.0,0.0,-0.122,-0.1538,-0.1738,-0.2402,-0.3205,-0.3526,-0.3906,-0.445,-0.4448,-0.5755,-0.7536,-0.8519,-0.9357,-0.9965,-1.0126,-1.0276,-1.1081,-1.1372,-1.1694,-1.1929,-1.1929,-1.1929,-1.1929,-1.1929,-1.1996,-1.2144,-1.2512,-1.2512,-1.2799,-1.2879,-1.331,-1.3375,-1.3157,-1.2938,-1.2846,-1.2748,-1.3062,-1.3194,-1.2137,-1.1741,-1.1636,-1.1622,-1.1618,-1.2007,-1.272,-1.307,-1.3191,-1.3252,-1.3243,-1.307,-1.2749,-1.232,-1.202,-1.2704,-1.2887,-1.1903,-1.1212,-1.119]}]]